Wetterdaten: Donnerstag, 27.07.2017
Datum Zeit Temp. A. Pool Temp. Feuchte A. Luftdruck Regen Wind Richtung Richtung Sonnenschein ET UV Solar Taupunkt Windchill Windben Empfang
27.07.2017 00:00 13,6 C 18,9 C 96 % 1010,2 hPa 0,2 l/m 11,4 km/h (2 Bft) W-SW 250 0 min 0,000 mm 0,0 UV-I 0 W/m 13,0 C 10,9 C 17,7 km/h (3 Bft) 100,00 %
27.07.2017 00:02 13,6 C 18,9 C 96 % 1010,1 hPa 0,0 l/m 11,8 km/h (2 Bft) W-SW 250 0 min 0,000 mm 0,0 UV-I 0 W/m 13,0 C 10,7 C 19,3 km/h (3 Bft) 94,44 %
27.07.2017 00:04 13,5 C 18,9 C 95 % 1010,1 hPa 0,0 l/m 15,5 km/h (3 Bft) W-SW 257 0 min 0,000 mm 0,0 UV-I 0 W/m 12,7 C 9,2 C 24,1 km/h (4 Bft) 97,87 %
27.07.2017 00:06 13,4 C 18,9 C 95 % 1010,1 hPa 0,0 l/m 11,5 km/h (2 Bft) SW 229 0 min 0,000 mm 0,0 UV-I 0 W/m 12,6 C 10,6 C 17,7 km/h (3 Bft) 90,00 %
27.07.2017 00:08 13,4 C 18,9 C 95 % 1010,1 hPa 0,0 l/m 17,9 km/h (3 Bft) W-SW 242 0 min 0,000 mm 0,0 UV-I 0 W/m 12,6 C 8,3 C 27,4 km/h (4 Bft) 94,00 %
27.07.2017 00:10 13,3 C 18,9 C 95 % 1010,1 hPa 0,0 l/m 12,9 km/h (3 Bft) W-SW 254 0 min 0,000 mm 0,0 UV-I 0 W/m 12,5 C 9,9 C 19,3 km/h (3 Bft) 98,00 %
27.07.2017 00:12 13,2 C 18,9 C 94 % 1010,2 hPa 0,2 l/m 9,8 km/h (2 Bft) W 262 0 min 0,000 mm 0,0 UV-I 0 W/m 12,3 C 11,2 C 20,9 km/h (4 Bft) 95,83 %
27.07.2017 00:14 13,1 C 18,9 C 94 % 1010,1 hPa 0,0 l/m 15,2 km/h (3 Bft) SW 236 0 min 0,000 mm 0,0 UV-I 0 W/m 12,2 C 8,8 C 20,9 km/h (4 Bft) 97,87 %
27.07.2017 00:16 13,1 C 18,9 C 94 % 1010,1 hPa 0,0 l/m 11,3 km/h (2 Bft) W-SW 242 0 min 0,000 mm 0,0 UV-I 0 W/m 12,2 C 10,4 C 20,9 km/h (4 Bft) 94,29 %
27.07.2017 00:18 13,0 C 18,9 C 94 % 1010,2 hPa 0,0 l/m 9,9 km/h (2 Bft) S-SW 213 0 min 0,000 mm 0,0 UV-I 0 W/m 12,1 C 11,0 C 16,1 km/h (3 Bft) 90,57 %
27.07.2017 00:20 12,9 C 18,9 C 94 % 1010,1 hPa 0,2 l/m 8,2 km/h (2 Bft) W-SW 238 0 min 0,000 mm 0,0 UV-I 0 W/m 12,0 C 11,8 C 16,1 km/h (3 Bft) 93,18 %
27.07.2017 00:22 12,9 C 18,9 C 93 % 1010,2 hPa 0,0 l/m 9,7 km/h (2 Bft) W-SW 250 0 min 0,000 mm 0,0 UV-I 0 W/m 11,8 C 11,0 C 16,1 km/h (3 Bft) 92,31 %
27.07.2017 00:24 12,8 C 18,9 C 93 % 1010,2 hPa 0,0 l/m 8,3 km/h (2 Bft) SW 226 0 min 0,000 mm 0,0 UV-I 0 W/m 11,7 C 11,6 C 12,9 km/h (3 Bft) 93,44 %
27.07.2017 00:26 12,8 C 18,9 C 93 % 1010,2 hPa 0,0 l/m 14,0 km/h (3 Bft) W 266 0 min 0,000 mm 0,0 UV-I 0 W/m 11,7 C 8,9 C 20,9 km/h (4 Bft) 95,24 %
27.07.2017 00:28 12,7 C 18,9 C 93 % 1010,2 hPa 0,0 l/m 14,5 km/h (3 Bft) W-SW 238 0 min 0,000 mm 0,0 UV-I 0 W/m 11,6 C 8,6 C 20,9 km/h (4 Bft) 91,43 %
27.07.2017 00:30 12,7 C 18,9 C 94 % 1010,2 hPa 0,0 l/m 11,6 km/h (2 Bft) SW 235 0 min 0,000 mm 0,0 UV-I 0 W/m 11,8 C 9,8 C 22,5 km/h (4 Bft) 92,31 %
27.07.2017 00:32 12,7 C 18,9 C 94 % 1010,2 hPa 0,0 l/m 11,7 km/h (2 Bft) W-SW 250 0 min 0,000 mm 0,0 UV-I 0 W/m 11,8 C 9,8 C 17,7 km/h (3 Bft) 94,74 %
27.07.2017 00:34 12,7 C 18,9 C 94 % 1010,2 hPa 0,2 l/m 11,9 km/h (2 Bft) W-SW 257 0 min 0,000 mm 0,0 UV-I 0 W/m 11,8 C 9,7 C 22,5 km/h (4 Bft) 92,45 %
27.07.2017 00:36 12,7 C 18,9 C 94 % 1010,2 hPa 0,0 l/m 12,1 km/h (2 Bft) W 269 0 min 0,000 mm 0,0 UV-I 0 W/m 11,8 C 9,6 C 17,7 km/h (3 Bft) 94,74 %
27.07.2017 00:38 12,7 C 18,9 C 94 % 1010,1 hPa 0,0 l/m 9,6 km/h (2 Bft) W-SW 255 0 min 0,000 mm 0,0 UV-I 0 W/m 11,8 C 10,8 C 16,1 km/h (3 Bft) 88,68 %
27.07.2017 00:40 12,7 C 18,9 C 94 % 1010,2 hPa 0,0 l/m 14,5 km/h (3 Bft) W 262 0 min 0,000 mm 0,0 UV-I 0 W/m 11,8 C 8,6 C 22,5 km/h (4 Bft) 93,18 %
27.07.2017 00:42 12,7 C 18,9 C 94 % 1010,2 hPa 0,0 l/m 12,4 km/h (3 Bft) SW 230 0 min 0,000 mm 0,0 UV-I 0 W/m 11,8 C 9,4 C 17,7 km/h (3 Bft) 92,00 %
27.07.2017 00:44 12,7 C 18,9 C 94 % 1010,2 hPa 0,0 l/m 12,1 km/h (2 Bft) W-SW 243 0 min 0,000 mm 0,0 UV-I 0 W/m 11,8 C 9,6 C 19,3 km/h (3 Bft) 93,62 %
27.07.2017 00:46 12,7 C 18,9 C 95 % 1010,2 hPa 0,2 l/m 8,5 km/h (2 Bft) W 269 0 min 0,000 mm 0,0 UV-I 0 W/m 11,9 C 11,4 C 11,3 km/h (2 Bft) 95,12 %
27.07.2017 00:48 12,7 C 18,9 C 95 % 1010,2 hPa 0,0 l/m 11,8 km/h (2 Bft) W-SW 247 0 min 0,000 mm 0,0 UV-I 0 W/m 11,9 C 9,7 C 19,3 km/h (3 Bft) 92,45 %
27.07.2017 00:50 12,7 C 18,9 C 95 % 1010,1 hPa 0,0 l/m 10,2 km/h (2 Bft) W-SW 250 0 min 0,000 mm 0,0 UV-I 0 W/m 11,9 C 10,5 C 16,1 km/h (3 Bft) 94,74 %
27.07.2017 00:52 12,8 C 18,9 C 95 % 1010,1 hPa 0,0 l/m 11,8 km/h (2 Bft) W-SW 248 0 min 0,000 mm 0,0 UV-I 0 W/m 12,0 C 9,8 C 16,1 km/h (3 Bft) 93,22 %
27.07.2017 00:54 12,8 C 18,9 C 95 % 1010,1 hPa 0,0 l/m 12,7 km/h (3 Bft) S-SW 208 0 min 0,000 mm 0,0 UV-I 0 W/m 12,0 C 9,4 C 19,3 km/h (3 Bft) 97,37 %
27.07.2017 00:56 12,8 C 18,9 C 95 % 1010,1 hPa 0,0 l/m 12,1 km/h (2 Bft) W 269 0 min 0,000 mm 0,0 UV-I 0 W/m 12,0 C 9,7 C 17,7 km/h (3 Bft) 92,86 %
27.07.2017 00:58 12,9 C 18,9 C 95 % 1010,2 hPa 0,0 l/m 10,4 km/h (2 Bft) W-SW 250 0 min 0,000 mm 0,0 UV-I 0 W/m 12,1 C 10,6 C 16,1 km/h (3 Bft) 92,11 %
27.07.2017 01:00 12,9 C 18,9 C 95 % 1010,1 hPa 0,0 l/m 9,5 km/h (2 Bft) SW 228 0 min 0,000 mm 0,0 UV-I 0 W/m 12,1 C 11,1 C 14,5 km/h (3 Bft) 94,64 %
27.07.2017 01:02 12,9 C 18,9 C 95 % 1010,1 hPa 0,0 l/m 9,6 km/h (2 Bft) SW 232 0 min 0,000 mm 0,0 UV-I 0 W/m 12,1 C 11,0 C 16,1 km/h (3 Bft) 95,24 %
27.07.2017 01:04 12,9 C 18,9 C 95 % 1010,1 hPa 0,0 l/m 12,0 km/h (2 Bft) SW 231 0 min 0,000 mm 0,0 UV-I 0 W/m 12,1 C 9,9 C 17,7 km/h (3 Bft) 94,23 %
27.07.2017 01:06 12,9 C 18,9 C 95 % 1010,2 hPa 0,0 l/m 10,8 km/h (2 Bft) W-SW 250 0 min 0,000 mm 0,0 UV-I 0 W/m 12,1 C 10,4 C 14,5 km/h (3 Bft) 97,62 %
27.07.2017 01:08 13,0 C 18,9 C 95 % 1010,1 hPa 0,0 l/m 8,8 km/h (2 Bft) SW 228 0 min 0,000 mm 0,0 UV-I 0 W/m 12,2 C 11,5 C 14,5 km/h (3 Bft) 96,00 %
27.07.2017 01:10 13,0 C 18,9 C 95 % 1010,1 hPa 0,0 l/m 11,2 km/h (2 Bft) SW 226 0 min 0,000 mm 0,0 UV-I 0 W/m 12,2 C 10,3 C 16,1 km/h (3 Bft) 97,73 %
27.07.2017 01:12 13,1 C 18,9 C 95 % 1010,1 hPa 0,0 l/m 11,8 km/h (2 Bft) S-SW 208 0 min 0,000 mm 0,0 UV-I 0 W/m 12,3 C 10,2 C 20,9 km/h (4 Bft) 100,00 %
27.07.2017 01:14 13,1 C 18,9 C 95 % 1010,1 hPa 0,0 l/m 13,2 km/h (3 Bft) W-SW 240 0 min 0,000 mm 0,0 UV-I 0 W/m 12,3 C 9,6 C 19,3 km/h (3 Bft) 96,00 %
27.07.2017 01:16 13,1 C 18,9 C 95 % 1010,1 hPa 0,2 l/m 13,4 km/h (3 Bft) S 188 0 min 0,000 mm 0,0 UV-I 0 W/m 12,3 C 9,5 C 19,3 km/h (3 Bft) 97,87 %
27.07.2017 01:18 13,1 C 18,9 C 95 % 1010,1 hPa 0,0 l/m 10,5 km/h (2 Bft) S-SW 194 0 min 0,000 mm 0,0 UV-I 0 W/m 12,3 C 10,8 C 16,1 km/h (3 Bft) 100,00 %
27.07.2017 01:20 13,1 C 18,9 C 95 % 1010,1 hPa 0,0 l/m 11,3 km/h (2 Bft) S 189 0 min 0,000 mm 0,0 UV-I 0 W/m 12,3 C 10,4 C 19,3 km/h (3 Bft) 98,11 %
27.07.2017 01:22 13,2 C 18,9 C 95 % 1010,0 hPa 0,0 l/m 12,9 km/h (3 Bft) SW 234 0 min 0,000 mm 0,0 UV-I 0 W/m 12,4 C 9,8 C 19,3 km/h (3 Bft) 97,73 %
27.07.2017 01:24 13,2 C 18,9 C 95 % 1010,1 hPa 0,2 l/m 11,9 km/h (2 Bft) SW 216 0 min 0,000 mm 0,0 UV-I 0 W/m 12,4 C 10,2 C 17,7 km/h (3 Bft) 96,15 %
27.07.2017 01:26 13,2 C 18,9 C 95 % 1010,1 hPa 0,0 l/m 14,2 km/h (3 Bft) SW 224 0 min 0,000 mm 0,0 UV-I 0 W/m 12,4 C 9,3 C 19,3 km/h (3 Bft) 98,39 %
27.07.2017 01:28 13,2 C 18,9 C 96 % 1010,1 hPa 0,0 l/m 15,7 km/h (3 Bft) W-SW 249 0 min 0,000 mm 0,0 UV-I 0 W/m 12,6 C 8,8 C 20,9 km/h (4 Bft) 98,00 %
27.07.2017 01:30 13,2 C 18,9 C 96 % 1010,1 hPa 0,0 l/m 11,3 km/h (2 Bft) W-SW 248 0 min 0,000 mm 0,0 UV-I 0 W/m 12,6 C 10,5 C 17,7 km/h (3 Bft) 95,74 %
27.07.2017 01:32 13,3 C 18,9 C 96 % 1010,1 hPa 0,2 l/m 10,4 km/h (2 Bft) W-SW 239 0 min 0,000 mm 0,0 UV-I 0 W/m 12,7 C 11,0 C 14,5 km/h (3 Bft) 92,00 %
27.07.2017 01:34 13,3 C 18,9 C 96 % 1010,1 hPa 0,0 l/m 9,3 km/h (2 Bft) W-SW 241 0 min 0,000 mm 0,0 UV-I 0 W/m 12,7 C 11,6 C 12,9 km/h (3 Bft) 97,56 %
27.07.2017 01:36 13,3 C 18,9 C 96 % 1010,1 hPa 0,0 l/m 11,9 km/h (2 Bft) SW 229 0 min 0,000 mm 0,0 UV-I 0 W/m 12,7 C 10,4 C 17,7 km/h (3 Bft) 96,23 %
27.07.2017 01:38 13,3 C 18,9 C 96 % 1010,1 hPa 0,2 l/m 12,5 km/h (3 Bft) SW 236 0 min 0,000 mm 0,0 UV-I 0 W/m 12,7 C 10,1 C 17,7 km/h (3 Bft) 97,56 %
27.07.2017 01:40 13,3 C 18,9 C 96 % 1010,2 hPa 0,0 l/m 9,9 km/h (2 Bft) W-SW 256 0 min 0,000 mm 0,0 UV-I 0 W/m 12,7 C 11,3 C 14,5 km/h (3 Bft) 97,78 %
27.07.2017 01:42 13,3 C 18,9 C 96 % 1010,2 hPa 0,0 l/m 11,1 km/h (2 Bft) W-SW 254 0 min 0,000 mm 0,0 UV-I 0 W/m 12,7 C 10,7 C 16,1 km/h (3 Bft) 98,00 %
27.07.2017 01:44 13,3 C 18,9 C 96 % 1010,2 hPa 0,0 l/m 13,9 km/h (3 Bft) W-SW 250 0 min 0,000 mm 0,0 UV-I 0 W/m 12,7 C 9,5 C 19,3 km/h (3 Bft) 94,23 %
27.07.2017 01:46 13,3 C 18,9 C 96 % 1010,2 hPa 0,2 l/m 9,0 km/h (2 Bft) SW 232 0 min 0,000 mm 0,0 UV-I 0 W/m 12,7 C 11,8 C 14,5 km/h (3 Bft) 97,62 %
27.07.2017 01:48 13,3 C 18,9 C 96 % 1010,2 hPa 0,0 l/m 8,9 km/h (2 Bft) W-SW 248 0 min 0,000 mm 0,0 UV-I 0 W/m 12,7 C 11,8 C 17,7 km/h (3 Bft) 98,11 %
27.07.2017 01:50 13,3 C 18,9 C 96 % 1010,2 hPa 0,2 l/m 9,3 km/h (2 Bft) W-SW 257 0 min 0,000 mm 0,0 UV-I 0 W/m 12,7 C 11,6 C 14,5 km/h (3 Bft) 100,00 %
27.07.2017 01:52 13,3 C 18,9 C 96 % 1010,2 hPa 0,0 l/m 9,7 km/h (2 Bft) SW 234 0 min 0,000 mm 0,0 UV-I 0 W/m 12,7 C 11,4 C 14,5 km/h (3 Bft) 98,11 %
27.07.2017 01:54 13,3 C 18,9 C 96 % 1010,2 hPa 0,0 l/m 12,7 km/h (3 Bft) W-SW 252 0 min 0,000 mm 0,0 UV-I 0 W/m 12,7 C 10,0 C 20,9 km/h (4 Bft) 97,73 %
27.07.2017 01:56 13,3 C 18,9 C 96 % 1010,2 hPa 0,2 l/m 12,4 km/h (3 Bft) W-SW 244 0 min 0,000 mm 0,0 UV-I 0 W/m 12,7 C 10,1 C 17,7 km/h (3 Bft) 100,00 %
27.07.2017 01:58 13,3 C 18,9 C 96 % 1010,2 hPa 0,0 l/m 10,6 km/h (2 Bft) S-SW 213 0 min 0,000 mm 0,0 UV-I 0 W/m 12,7 C 10,9 C 17,7 km/h (3 Bft) 100,00 %
27.07.2017 02:00 13,3 C 18,9 C 96 % 1010,3 hPa 0,0 l/m 9,2 km/h (2 Bft) W-SW 248 0 min 0,000 mm 0,0 UV-I 0 W/m 12,7 C 11,7 C 16,1 km/h (3 Bft) 97,73 %
27.07.2017 02:02 13,3 C 18,9 C 96 % 1010,3 hPa 0,2 l/m 8,8 km/h (2 Bft) W-SW 241 0 min 0,000 mm 0,0 UV-I 0 W/m 12,7 C 11,9 C 17,7 km/h (3 Bft) 97,56 %
27.07.2017 02:04 13,3 C 18,9 C 95 % 1010,3 hPa 0,0 l/m 15,2 km/h (3 Bft) W-SW 247 0 min 0,000 mm 0,0 UV-I 0 W/m 12,5 C 9,1 C 24,1 km/h (4 Bft) 94,34 %
27.07.2017 02:06 13,3 C 18,9 C 95 % 1010,3 hPa 0,0 l/m 11,5 km/h (2 Bft) W-SW 245 0 min 0,000 mm 0,0 UV-I 0 W/m 12,5 C 10,5 C 14,5 km/h (3 Bft) 95,12 %
27.07.2017 02:08 13,2 C 18,9 C 95 % 1010,3 hPa 0,0 l/m 11,7 km/h (2 Bft) SW 234 0 min 0,000 mm 0,0 UV-I 0 W/m 12,4 C 10,3 C 19,3 km/h (3 Bft) 96,00 %
27.07.2017 02:10 13,2 C 18,9 C 95 % 1010,4 hPa 0,2 l/m 12,6 km/h (3 Bft) SW 217 0 min 0,000 mm 0,0 UV-I 0 W/m 12,4 C 9,9 C 17,7 km/h (3 Bft) 97,37 %
27.07.2017 02:12 13,2 C 18,9 C 95 % 1010,4 hPa 0,0 l/m 12,2 km/h (2 Bft) SW 215 0 min 0,000 mm 0,0 UV-I 0 W/m 12,4 C 10,1 C 19,3 km/h (3 Bft) 98,00 %
27.07.2017 02:14 13,2 C 18,9 C 95 % 1010,4 hPa 0,2 l/m 14,1 km/h (3 Bft) W-SW 240 0 min 0,000 mm 0,0 UV-I 0 W/m 12,4 C 9,3 C 22,5 km/h (4 Bft) 90,24 %
27.07.2017 02:16 13,1 C 18,9 C 95 % 1010,4 hPa 0,0 l/m 12,8 km/h (3 Bft) SW 228 0 min 0,000 mm 0,0 UV-I 0 W/m 12,3 C 9,7 C 19,3 km/h (3 Bft) 98,31 %
27.07.2017 02:18 13,1 C 18,9 C 95 % 1010,3 hPa 0,0 l/m 10,3 km/h (2 Bft) SW 229 0 min 0,000 mm 0,0 UV-I 0 W/m 12,3 C 10,9 C 17,7 km/h (3 Bft) 97,44 %
27.07.2017 02:20 13,0 C 18,9 C 94 % 1010,3 hPa 0,0 l/m 11,5 km/h (2 Bft) W-SW 241 0 min 0,000 mm 0,0 UV-I 0 W/m 12,1 C 10,2 C 17,7 km/h (3 Bft) 94,55 %
27.07.2017 02:22 12,9 C 18,9 C 94 % 1010,3 hPa 0,2 l/m 12,4 km/h (3 Bft) W-SW 242 0 min 0,000 mm 0,0 UV-I 0 W/m 12,0 C 9,7 C 17,7 km/h (3 Bft) 97,62 %
27.07.2017 02:24 12,9 C 18,9 C 94 % 1010,4 hPa 0,0 l/m 13,7 km/h (3 Bft) SW 217 0 min 0,000 mm 0,0 UV-I 0 W/m 12,0 C 9,1 C 20,9 km/h (4 Bft) 98,00 %
27.07.2017 02:26 12,8 C 18,9 C 94 % 1010,3 hPa 0,2 l/m 12,5 km/h (3 Bft) W-SW 244 0 min 0,000 mm 0,0 UV-I 0 W/m 11,9 C 9,5 C 20,9 km/h (4 Bft) 94,00 %
27.07.2017 02:28 12,7 C 18,9 C 94 % 1010,4 hPa 0,0 l/m 13,5 km/h (3 Bft) W-SW 248 0 min 0,000 mm 0,0 UV-I 0 W/m 11,8 C 9,0 C 19,3 km/h (3 Bft) 93,62 %
27.07.2017 02:30 12,7 C 18,9 C 94 % 1010,5 hPa 0,0 l/m 11,7 km/h (2 Bft) W 273 0 min 0,000 mm 0,0 UV-I 0 W/m 11,8 C 9,8 C 16,1 km/h (3 Bft) 93,62 %
27.07.2017 02:32 12,6 C 18,9 C 94 % 1010,4 hPa 0,0 l/m 12,6 km/h (3 Bft) W-SW 250 0 min 0,000 mm 0,0 UV-I 0 W/m 11,7 C 9,2 C 19,3 km/h (3 Bft) 92,68 %
27.07.2017 02:34 12,6 C 18,9 C 93 % 1010,5 hPa 0,0 l/m 12,9 km/h (3 Bft) W-SW 240 0 min 0,000 mm 0,0 UV-I 0 W/m 11,5 C 9,1 C 19,3 km/h (3 Bft) 95,12 %
27.07.2017 02:36 12,5 C 18,9 C 93 % 1010,5 hPa 0,2 l/m 12,2 km/h (2 Bft) W-SW 250 0 min 0,000 mm 0,0 UV-I 0 W/m 11,4 C 9,3 C 17,7 km/h (3 Bft) 88,68 %
27.07.2017 02:38 12,5 C 18,9 C 93 % 1010,4 hPa 0,2 l/m 11,3 km/h (2 Bft) W-SW 248 0 min 0,000 mm 0,0 UV-I 0 W/m 11,4 C 9,7 C 25,7 km/h (4 Bft) 98,00 %
27.07.2017 02:40 12,4 C 18,9 C 93 % 1010,4 hPa 0,0 l/m 13,0 km/h (3 Bft) W-SW 254 0 min 0,000 mm 0,0 UV-I 0 W/m 11,3 C 8,8 C 20,9 km/h (4 Bft) 92,31 %
27.07.2017 02:42 12,4 C 18,9 C 93 % 1010,4 hPa 0,0 l/m 11,2 km/h (2 Bft) W-SW 252 0 min 0,000 mm 0,0 UV-I 0 W/m 11,3 C 9,6 C 19,3 km/h (3 Bft) 95,74 %
27.07.2017 02:44 12,4 C 18,9 C 93 % 1010,5 hPa 0,0 l/m 12,0 km/h (2 Bft) W-SW 238 0 min 0,000 mm 0,0 UV-I 0 W/m 11,3 C 9,3 C 20,9 km/h (4 Bft) 93,62 %
27.07.2017 02:46 12,3 C 18,9 C 94 % 1010,5 hPa 0,2 l/m 11,8 km/h (2 Bft) S-SW 209 0 min 0,000 mm 0,0 UV-I 0 W/m 11,4 C 9,3 C 17,7 km/h (3 Bft) 95,45 %
27.07.2017 02:48 12,3 C 18,9 C 94 % 1010,5 hPa 0,0 l/m 12,1 km/h (2 Bft) SW 225 0 min 0,000 mm 0,0 UV-I 0 W/m 11,4 C 9,1 C 19,3 km/h (3 Bft) 94,92 %
27.07.2017 02:50 12,3 C 18,3 C 94 % 1010,5 hPa 0,0 l/m 12,5 km/h (3 Bft) W-SW 240 0 min 0,000 mm 0,0 UV-I 0 W/m 11,4 C 8,9 C 17,7 km/h (3 Bft) 95,45 %
27.07.2017 02:52 12,3 C 18,3 C 94 % 1010,5 hPa 0,2 l/m 11,1 km/h (2 Bft) SW 227 0 min 0,000 mm 0,0 UV-I 0 W/m 11,4 C 9,6 C 16,1 km/h (3 Bft) 95,12 %
27.07.2017 02:54 12,3 C 18,3 C 94 % 1010,5 hPa 0,0 l/m 10,8 km/h (2 Bft) SW 221 0 min 0,000 mm 0,0 UV-I 0 W/m 11,4 C 9,7 C 17,7 km/h (3 Bft) 95,74 %
27.07.2017 02:56 12,3 C 18,3 C 94 % 1010,5 hPa 0,2 l/m 12,7 km/h (3 Bft) SW 229 0 min 0,000 mm 0,0 UV-I 0 W/m 11,4 C 8,9 C 17,7 km/h (3 Bft) 93,62 %
27.07.2017 02:58 12,3 C 18,3 C 94 % 1010,5 hPa 0,0 l/m 10,3 km/h (2 Bft) W-SW 253 0 min 0,000 mm 0,0 UV-I 0 W/m 11,4 C 10,0 C 16,1 km/h (3 Bft) 98,00 %
27.07.2017 03:00 12,3 C 18,3 C 94 % 1010,5 hPa 0,2 l/m 10,0 km/h (2 Bft) SW 235 0 min 0,000 mm 0,0 UV-I 0 W/m 11,4 C 10,1 C 19,3 km/h (3 Bft) 98,00 %
27.07.2017 03:02 12,3 C 18,3 C 94 % 1010,5 hPa 0,0 l/m 9,9 km/h (2 Bft) SW 227 0 min 0,000 mm 0,0 UV-I 0 W/m 11,4 C 10,2 C 12,9 km/h (3 Bft) 97,62 %
27.07.2017 03:04 12,3 C 18,3 C 94 % 1010,5 hPa 0,0 l/m 9,6 km/h (2 Bft) SW 223 0 min 0,000 mm 0,0 UV-I 0 W/m 11,4 C 10,3 C 14,5 km/h (3 Bft) 97,56 %
27.07.2017 03:06 12,3 C 18,3 C 94 % 1010,6 hPa 0,2 l/m 10,5 km/h (2 Bft) SW 230 0 min 0,000 mm 0,0 UV-I 0 W/m 11,4 C 9,9 C 14,5 km/h (3 Bft) 96,61 %
27.07.2017 03:08 12,3 C 18,3 C 94 % 1010,6 hPa 0,0 l/m 7,7 km/h (2 Bft) SW 229 0 min 0,000 mm 0,0 UV-I 0 W/m 11,4 C 11,5 C 11,3 km/h (2 Bft) 100,00 %
27.07.2017 03:10 12,2 C 18,3 C 95 % 1010,6 hPa 0,2 l/m 8,5 km/h (2 Bft) S-SW 200 0 min 0,000 mm 0,0 UV-I 0 W/m 11,4 C 10,9 C 12,9 km/h (3 Bft) 98,11 %
27.07.2017 03:12 12,2 C 18,3 C 95 % 1010,6 hPa 0,0 l/m 10,6 km/h (2 Bft) S-SW 213 0 min 0,000 mm 0,0 UV-I 0 W/m 11,4 C 9,7 C 16,1 km/h (3 Bft) 97,56 %
27.07.2017 03:14 12,2 C 18,3 C 95 % 1010,7 hPa 0,0 l/m 8,8 km/h (2 Bft) S-SW 210 0 min 0,000 mm 0,0 UV-I 0 W/m 11,4 C 10,7 C 11,3 km/h (2 Bft) 98,11 %
27.07.2017 03:16 12,2 C 18,3 C 95 % 1010,6 hPa 0,2 l/m 11,0 km/h (2 Bft) S-SW 200 0 min 0,000 mm 0,0 UV-I 0 W/m 11,4 C 9,5 C 16,1 km/h (3 Bft) 97,37 %
27.07.2017 03:18 12,2 C 18,3 C 95 % 1010,6 hPa 0,2 l/m 12,3 km/h (3 Bft) S-SW 199 0 min 0,000 mm 0,0 UV-I 0 W/m 11,4 C 8,9 C 16,1 km/h (3 Bft) 96,61 %
27.07.2017 03:20 12,1 C 18,3 C 95 % 1010,6 hPa 0,0 l/m 10,1 km/h (2 Bft) SW 221 0 min 0,000 mm 0,0 UV-I 0 W/m 11,3 C 9,9 C 14,5 km/h (3 Bft) 100,00 %
27.07.2017 03:22 12,1 C 18,3 C 95 % 1010,6 hPa 0,2 l/m 9,4 km/h (2 Bft) S-SW 206 0 min 0,000 mm 0,0 UV-I 0 W/m 11,3 C 10,2 C 12,9 km/h (3 Bft) 94,64 %
27.07.2017 03:24 12,1 C 18,3 C 95 % 1010,5 hPa 0,0 l/m 11,2 km/h (2 Bft) S-SW 207 0 min 0,000 mm 0,0 UV-I 0 W/m 11,3 C 9,3 C 17,7 km/h (3 Bft) 98,00 %
27.07.2017 03:26 12,1 C 18,3 C 95 % 1010,5 hPa 0,2 l/m 11,7 km/h (2 Bft) S-SW 196 0 min 0,000 mm 0,0 UV-I 0 W/m 11,3 C 9,1 C 16,1 km/h (3 Bft) 100,00 %
27.07.2017 03:28 12,0 C 18,3 C 95 % 1010,5 hPa 0,0 l/m 11,8 km/h (2 Bft) S-SW 209 0 min 0,000 mm 0,0 UV-I 0 W/m 11,2 C 8,9 C 14,5 km/h (3 Bft) 98,11 %
27.07.2017 03:30 12,1 C 18,3 C 95 % 1010,5 hPa 0,2 l/m 12,5 km/h (3 Bft) SW 229 0 min 0,000 mm 0,0 UV-I 0 W/m 11,3 C 8,7 C 19,3 km/h (3 Bft) 100,00 %
27.07.2017 03:32 12,0 C 18,3 C 95 % 1010,4 hPa 0,0 l/m 8,5 km/h (2 Bft) SW 217 0 min 0,000 mm 0,0 UV-I 0 W/m 11,2 C 10,6 C 14,5 km/h (3 Bft) 96,23 %
27.07.2017 03:34 12,0 C 18,3 C 95 % 1010,4 hPa 0,2 l/m 7,7 km/h (2 Bft) SW 218 0 min 0,000 mm 0,0 UV-I 0 W/m 11,2 C 11,1 C 12,9 km/h (3 Bft) 95,12 %
27.07.2017 03:36 12,1 C 18,3 C 95 % 1010,4 hPa 0,0 l/m 8,7 km/h (2 Bft) SW 223 0 min 0,000 mm 0,0 UV-I 0 W/m 11,3 C 10,6 C 12,9 km/h (3 Bft) 100,00 %
27.07.2017 03:38 12,1 C 18,3 C 95 % 1010,4 hPa 0,0 l/m 13,9 km/h (3 Bft) S-SW 213 0 min 0,000 mm 0,0 UV-I 0 W/m 11,3 C 8,1 C 19,3 km/h (3 Bft) 94,87 %
27.07.2017 03:40 12,1 C 18,3 C 95 % 1010,3 hPa 0,0 l/m 15,6 km/h (3 Bft) SW 215 0 min 0,000 mm 0,0 UV-I 0 W/m 11,3 C 7,5 C 20,9 km/h (4 Bft) 98,08 %
27.07.2017 03:42 12,1 C 18,3 C 96 % 1010,3 hPa 0,0 l/m 12,6 km/h (3 Bft) S-SW 193 0 min 0,000 mm 0,0 UV-I 0 W/m 11,5 C 8,7 C 17,7 km/h (3 Bft) 97,62 %
27.07.2017 03:44 12,1 C 18,3 C 96 % 1010,3 hPa 0,2 l/m 11,3 km/h (2 Bft) SW 221 0 min 0,000 mm 0,0 UV-I 0 W/m 11,5 C 9,3 C 16,1 km/h (3 Bft) 96,00 %
27.07.2017 03:46 12,1 C 18,3 C 96 % 1010,3 hPa 0,0 l/m 11,5 km/h (2 Bft) S 190 0 min 0,000 mm 0,0 UV-I 0 W/m 11,5 C 9,2 C 16,1 km/h (3 Bft) 97,56 %
27.07.2017 03:48 12,1 C 18,3 C 96 % 1010,3 hPa 0,0 l/m 10,9 km/h (2 Bft) S-SW 209 0 min 0,000 mm 0,0 UV-I 0 W/m 11,5 C 9,5 C 16,1 km/h (3 Bft) 97,73 %
27.07.2017 03:50 12,1 C 18,3 C 96 % 1010,3 hPa 0,0 l/m 10,5 km/h (2 Bft) S 191 0 min 0,000 mm 0,0 UV-I 0 W/m 11,5 C 9,7 C 17,7 km/h (3 Bft) 98,11 %
27.07.2017 03:52 12,1 C 18,3 C 96 % 1010,3 hPa 0,0 l/m 10,9 km/h (2 Bft) S-SW 202 0 min 0,000 mm 0,0 UV-I 0 W/m 11,5 C 9,5 C 16,1 km/h (3 Bft) 96,30 %
27.07.2017 03:54 12,1 C 18,3 C 96 % 1010,3 hPa 0,0 l/m 12,0 km/h (2 Bft) SW 233 0 min 0,000 mm 0,0 UV-I 0 W/m 11,5 C 8,9 C 17,7 km/h (3 Bft) 93,62 %
27.07.2017 03:56 12,1 C 18,3 C 96 % 1010,2 hPa 0,2 l/m 11,8 km/h (2 Bft) SW 216 0 min 0,000 mm 0,0 UV-I 0 W/m 11,5 C 9,0 C 17,7 km/h (3 Bft) 94,74 %
27.07.2017 03:58 12,1 C 18,3 C 96 % 1010,3 hPa 0,0 l/m 11,2 km/h (2 Bft) W-SW 239 0 min 0,000 mm 0,0 UV-I 0 W/m 11,5 C 9,3 C 17,7 km/h (3 Bft) 94,00 %
27.07.2017 04:00 12,1 C 18,3 C 96 % 1010,2 hPa 0,0 l/m 10,9 km/h (2 Bft) SW 214 0 min 0,000 mm 0,0 UV-I 0 W/m 11,5 C 9,5 C 17,7 km/h (3 Bft) 95,45 %
27.07.2017 04:02 12,1 C 18,3 C 96 % 1010,2 hPa 0,2 l/m 13,1 km/h (3 Bft) S-SW 205 0 min 0,000 mm 0,0 UV-I 0 W/m 11,5 C 8,4 C 19,3 km/h (3 Bft) 92,59 %
27.07.2017 04:04 12,2 C 18,3 C 96 % 1010,2 hPa 0,0 l/m 13,1 km/h (3 Bft) SW 234 0 min 0,000 mm 0,0 UV-I 0 W/m 11,6 C 8,6 C 20,9 km/h (4 Bft) 93,62 %
27.07.2017 04:06 12,2 C 18,3 C 96 % 1010,1 hPa 0,0 l/m 13,5 km/h (3 Bft) W-SW 254 0 min 0,000 mm 0,0 UV-I 0 W/m 11,6 C 8,4 C 22,5 km/h (4 Bft) 97,73 %
27.07.2017 04:08 12,2 C 18,3 C 96 % 1010,2 hPa 0,0 l/m 12,8 km/h (3 Bft) SW 229 0 min 0,000 mm 0,0 UV-I 0 W/m 11,6 C 8,7 C 22,5 km/h (4 Bft) 95,74 %
27.07.2017 04:10 12,3 C 18,3 C 96 % 1010,2 hPa 0,2 l/m 12,6 km/h (3 Bft) W-SW 242 0 min 0,000 mm 0,0 UV-I 0 W/m 11,7 C 8,9 C 19,3 km/h (3 Bft) 94,00 %
27.07.2017 04:12 12,3 C 18,3 C 96 % 1010,3 hPa 0,0 l/m 11,8 km/h (2 Bft) SW 219 0 min 0,000 mm 0,0 UV-I 0 W/m 11,7 C 9,3 C 19,3 km/h (3 Bft) 98,11 %
27.07.2017 04:14 12,3 C 18,3 C 96 % 1010,3 hPa 0,0 l/m 12,7 km/h (3 Bft) SW 234 0 min 0,000 mm 0,0 UV-I 0 W/m 11,7 C 8,9 C 20,9 km/h (4 Bft) 97,56 %
27.07.2017 04:16 12,3 C 18,3 C 96 % 1010,3 hPa 0,0 l/m 13,7 km/h (3 Bft) S-SW 212 0 min 0,000 mm 0,0 UV-I 0 W/m 11,7 C 8,4 C 20,9 km/h (4 Bft) 97,62 %
27.07.2017 04:18 12,3 C 18,3 C 96 % 1010,2 hPa 0,0 l/m 11,5 km/h (2 Bft) SW 223 0 min 0,000 mm 0,0 UV-I 0 W/m 11,7 C 9,4 C 17,7 km/h (3 Bft) 92,68 %
27.07.2017 04:20 12,4 C 18,3 C 96 % 1010,3 hPa 0,0 l/m 12,9 km/h (3 Bft) S 186 0 min 0,000 mm 0,0 UV-I 0 W/m 11,8 C 8,9 C 19,3 km/h (3 Bft) 92,19 %
27.07.2017 04:22 12,4 C 18,3 C 96 % 1010,3 hPa 0,0 l/m 13,1 km/h (3 Bft) W-SW 250 0 min 0,000 mm 0,0 UV-I 0 W/m 11,8 C 8,8 C 19,3 km/h (3 Bft) 97,44 %
27.07.2017 04:24 12,4 C 18,3 C 96 % 1010,3 hPa 0,0 l/m 10,1 km/h (2 Bft) SW 236 0 min 0,000 mm 0,0 UV-I 0 W/m 11,8 C 10,2 C 16,1 km/h (3 Bft) 92,00 %
27.07.2017 04:26 12,4 C 18,3 C 96 % 1010,2 hPa 0,2 l/m 12,4 km/h (3 Bft) S-SW 195 0 min 0,000 mm 0,0 UV-I 0 W/m 11,8 C 9,1 C 20,9 km/h (4 Bft) 95,12 %
27.07.2017 04:28 12,4 C 18,3 C 96 % 1010,3 hPa 0,0 l/m 13,0 km/h (3 Bft) W-SW 243 0 min 0,000 mm 0,0 UV-I 0 W/m 11,8 C 8,8 C 20,9 km/h (4 Bft) 94,64 %
27.07.2017 04:30 12,5 C 18,3 C 96 % 1010,3 hPa 0,0 l/m 12,0 km/h (2 Bft) W-SW 250 0 min 0,000 mm 0,0 UV-I 0 W/m 11,9 C 9,4 C 19,3 km/h (3 Bft) 95,12 %
27.07.2017 04:32 12,5 C 18,3 C 96 % 1010,3 hPa 0,0 l/m 13,0 km/h (3 Bft) W-SW 244 0 min 0,000 mm 0,0 UV-I 0 W/m 11,9 C 9,0 C 20,9 km/h (4 Bft) 92,00 %
27.07.2017 04:34 12,5 C 18,3 C 96 % 1010,3 hPa 0,0 l/m 12,5 km/h (3 Bft) S-SW 209 0 min 0,000 mm 0,0 UV-I 0 W/m 11,9 C 9,2 C 22,5 km/h (4 Bft) 90,91 %
27.07.2017 04:36 12,6 C 18,3 C 96 % 1010,3 hPa 0,0 l/m 13,1 km/h (3 Bft) SW 225 0 min 0,000 mm 0,0 UV-I 0 W/m 12,0 C 9,0 C 20,9 km/h (4 Bft) 93,62 %
27.07.2017 04:38 12,6 C 18,3 C 96 % 1010,3 hPa 0,0 l/m 13,6 km/h (3 Bft) S-SW 207 0 min 0,000 mm 0,0 UV-I 0 W/m 12,0 C 8,8 C 22,5 km/h (4 Bft) 94,00 %
27.07.2017 04:40 12,6 C 18,3 C 96 % 1010,3 hPa 0,0 l/m 12,6 km/h (3 Bft) S-SW 213 0 min 0,000 mm 0,0 UV-I 0 W/m 12,0 C 9,2 C 17,7 km/h (3 Bft) 92,68 %
27.07.2017 04:42 12,6 C 18,3 C 96 % 1010,3 hPa 0,2 l/m 15,3 km/h (3 Bft) W-SW 252 0 min 0,000 mm 0,0 UV-I 0 W/m 12,0 C 8,2 C 20,9 km/h (4 Bft) 96,23 %
27.07.2017 04:44 12,6 C 18,3 C 96 % 1010,2 hPa 0,0 l/m 13,5 km/h (3 Bft) S-SW 200 0 min 0,000 mm 0,0 UV-I 0 W/m 12,0 C 8,9 C 19,3 km/h (3 Bft) 90,00 %
27.07.2017 04:46 12,7 C 18,3 C 96 % 1010,2 hPa 0,0 l/m 11,4 km/h (2 Bft) SW 214 0 min 0,000 mm 0,0 UV-I 0 W/m 12,1 C 9,9 C 20,9 km/h (4 Bft) 94,74 %
27.07.2017 04:48 12,7 C 18,3 C 96 % 1010,2 hPa 0,0 l/m 13,8 km/h (3 Bft) SW 221 0 min 0,000 mm 0,0 UV-I 0 W/m 12,1 C 8,9 C 20,9 km/h (4 Bft) 95,12 %
27.07.2017 04:50 12,7 C 18,3 C 96 % 1010,2 hPa 0,0 l/m 11,7 km/h (2 Bft) S-SW 209 0 min 0,000 mm 0,0 UV-I 0 W/m 12,1 C 9,8 C 17,7 km/h (3 Bft) 88,68 %
27.07.2017 04:52 12,7 C 18,3 C 96 % 1010,3 hPa 0,0 l/m 11,1 km/h (2 Bft) S-SW 202 0 min 0,000 mm 0,0 UV-I 0 W/m 12,1 C 10,0 C 19,3 km/h (3 Bft) 94,87 %
27.07.2017 04:54 12,7 C 18,3 C 96 % 1010,2 hPa 0,0 l/m 9,6 km/h (2 Bft) SW 224 0 min 0,000 mm 0,0 UV-I 0 W/m 12,1 C 10,8 C 14,5 km/h (3 Bft) 94,34 %
27.07.2017 04:56 12,7 C 18,3 C 96 % 1010,3 hPa 0,0 l/m 11,4 km/h (2 Bft) SW 219 0 min 0,000 mm 0,0 UV-I 0 W/m 12,1 C 9,9 C 16,1 km/h (3 Bft) 92,73 %
27.07.2017 04:58 12,8 C 18,3 C 96 % 1010,3 hPa 0,0 l/m 15,7 km/h (3 Bft) S-SW 207 0 min 0,000 mm 0,0 UV-I 0 W/m 12,2 C 8,3 C 22,5 km/h (4 Bft) 94,44 %
27.07.2017 05:00 12,8 C 18,3 C 96 % 1010,4 hPa 0,2 l/m 14,7 km/h (3 Bft) W-SW 241 0 min 0,000 mm 0,0 UV-I 0 W/m 12,2 C 8,6 C 19,3 km/h (3 Bft) 94,83 %
27.07.2017 05:02 12,8 C 18,3 C 96 % 1010,4 hPa 0,0 l/m 11,8 km/h (2 Bft) W-SW 250 0 min 0,000 mm 0,0 UV-I 0 W/m 12,2 C 9,8 C 20,9 km/h (4 Bft) 95,24 %
27.07.2017 05:04 12,8 C 18,3 C 96 % 1010,4 hPa 0,0 l/m 12,6 km/h (3 Bft) S-SW 213 0 min 0,000 mm 0,0 UV-I 0 W/m 12,2 C 9,5 C 22,5 km/h (4 Bft) 94,00 %
27.07.2017 05:06 12,8 C 18,3 C 96 % 1010,4 hPa 0,0 l/m 13,3 km/h (3 Bft) SW 223 0 min 0,000 mm 0,0 UV-I 0 W/m 12,2 C 9,2 C 19,3 km/h (3 Bft) 96,00 %
27.07.2017 05:08 12,9 C 18,3 C 96 % 1010,4 hPa 0,0 l/m 12,9 km/h (3 Bft) SW 229 0 min 0,000 mm 0,0 UV-I 0 W/m 12,3 C 9,5 C 19,3 km/h (3 Bft) 95,74 %
27.07.2017 05:10 12,9 C 18,3 C 96 % 1010,4 hPa 0,0 l/m 14,0 km/h (3 Bft) SW 232 0 min 0,000 mm 0,0 UV-I 0 W/m 12,3 C 9,0 C 19,3 km/h (3 Bft) 97,87 %
27.07.2017 05:12 12,9 C 18,3 C 96 % 1010,4 hPa 0,2 l/m 11,7 km/h (2 Bft) SW 234 0 min 0,000 mm 0,0 UV-I 0 W/m 12,3 C 10,0 C 16,1 km/h (3 Bft) 95,74 %
27.07.2017 05:14 12,9 C 18,3 C 96 % 1010,4 hPa 0,0 l/m 10,3 km/h (2 Bft) SW 214 0 min 0,000 mm 0,0 UV-I 0 W/m 12,3 C 10,6 C 19,3 km/h (3 Bft) 100,00 %
27.07.2017 05:16 12,9 C 18,3 C 96 % 1010,4 hPa 0,0 l/m 12,8 km/h (3 Bft) W-SW 248 0 min 0,000 mm 0,0 UV-I 0 W/m 12,3 C 9,5 C 17,7 km/h (3 Bft) 98,00 %
27.07.2017 05:18 12,9 C 18,3 C 96 % 1010,3 hPa 0,0 l/m 14,5 km/h (3 Bft) W-SW 242 0 min 0,000 mm 0,0 UV-I 0 W/m 12,3 C 8,8 C 19,3 km/h (3 Bft) 96,88 %
27.07.2017 05:20 12,9 C 18,3 C 96 % 1010,3 hPa 0,2 l/m 12,9 km/h (3 Bft) W-SW 240 0 min 0,000 mm 0,0 UV-I 0 W/m 12,3 C 9,5 C 20,9 km/h (4 Bft) 98,11 %
27.07.2017 05:22 12,9 C 18,3 C 96 % 1010,3 hPa 0,0 l/m 10,6 km/h (2 Bft) SW 223 0 min 0,000 mm 0,0 UV-I 0 W/m 12,3 C 10,5 C 16,1 km/h (3 Bft) 96,15 %
27.07.2017 05:24 12,9 C 18,3 C 96 % 1010,3 hPa 0,0 l/m 12,4 km/h (3 Bft) SW 221 0 min 0,000 mm 0,0 UV-I 0 W/m 12,3 C 9,7 C 19,3 km/h (3 Bft) 100,00 %
27.07.2017 05:26 12,9 C 18,3 C 96 % 1010,3 hPa 0,0 l/m 10,6 km/h (2 Bft) W-SW 249 0 min 0,000 mm 0,0 UV-I 0 W/m 12,3 C 10,5 C 17,7 km/h (3 Bft) 97,37 %
27.07.2017 05:28 12,9 C 18,3 C 96 % 1010,3 hPa 0,2 l/m 8,8 km/h (2 Bft) SW 225 0 min 0,000 mm 0,0 UV-I 0 W/m 12,3 C 11,4 C 14,5 km/h (3 Bft) 100,00 %
27.07.2017 05:30 12,9 C 18,3 C 96 % 1010,3 hPa 0,0 l/m 8,6 km/h (2 Bft) SW 236 0 min 0,000 mm 0,0 UV-I 0 W/m 12,3 C 11,5 C 12,9 km/h (3 Bft) 97,73 %
27.07.2017 05:32 13,0 C 18,3 C 96 % 1010,3 hPa 0,0 l/m 7,5 km/h (2 Bft) W-SW 256 0 min 0,000 mm 0,0 UV-I 0 W/m 12,4 C 12,3 C 14,5 km/h (3 Bft) 98,11 %
27.07.2017 05:34 13,0 C 18,3 C 96 % 1010,3 hPa 0,0 l/m 6,1 km/h (2 Bft) SW 229 0 min 0,000 mm 0,0 UV-I 0 W/m 12,4 C 13,0 C 9,7 km/h (2 Bft) 97,37 %
27.07.2017 05:36 13,0 C 18,3 C 96 % 1010,4 hPa 0,0 l/m 6,0 km/h (2 Bft) W-SW 253 0 min 0,000 mm 0,0 UV-I 0 W/m 12,4 C 13,0 C 9,7 km/h (2 Bft) 94,34 %
27.07.2017 05:38 12,9 C 18,3 C 96 % 1010,3 hPa 0,0 l/m 7,5 km/h (2 Bft) W 268 0 min 0,000 mm 0,0 UV-I 0 W/m 12,3 C 12,2 C 12,9 km/h (3 Bft) 97,22 %
27.07.2017 05:40 13,0 C 18,3 C 96 % 1010,3 hPa 0,0 l/m 6,1 km/h (2 Bft) W-SW 245 0 min 0,000 mm 0,0 UV-I 0 W/m 12,4 C 13,0 C 12,9 km/h (3 Bft) 98,21 %
27.07.2017 05:42 12,9 C 18,3 C 96 % 1010,3 hPa 0,0 l/m 4,3 km/h (1 Bft) W-SW 257 0 min 0,000 mm 0,0 UV-I 0 W/m 12,3 C 12,9 C 8,0 km/h (2 Bft) 98,00 %
27.07.2017 05:44 13,0 C 18,3 C 96 % 1010,3 hPa 0,0 l/m 10,3 km/h (2 Bft) W 266 0 min 0,000 mm 0,0 UV-I 0 W/m 12,4 C 10,8 C 14,5 km/h (3 Bft) 97,56 %
27.07.2017 05:46 13,0 C 18,3 C 96 % 1010,4 hPa 0,0 l/m 7,1 km/h (2 Bft) W 261 0 min 0,000 mm 0,0 UV-I 0 W/m 12,4 C 12,6 C 12,9 km/h (3 Bft) 100,00 %
27.07.2017 05:48 13,0 C 18,3 C 96 % 1010,4 hPa 0,0 l/m 6,8 km/h (2 Bft) W 261 0 min 0,000 mm 0,0 UV-I 0 W/m 12,4 C 12,8 C 11,3 km/h (2 Bft) 97,56 %
27.07.2017 05:50 13,0 C 18,3 C 96 % 1010,3 hPa 0,0 l/m 8,2 km/h (2 Bft) SW 225 0 min 0,000 mm 0,0 UV-I 3 W/m 12,4 C 11,9 C 12,9 km/h (3 Bft) 97,87 %
27.07.2017 05:52 13,0 C 18,3 C 96 % 1010,4 hPa 0,0 l/m 8,5 km/h (2 Bft) SW 227 0 min 0,000 mm 0,0 UV-I 5 W/m 12,4 C 11,7 C 12,9 km/h (3 Bft) 95,74 %
27.07.2017 05:54 13,0 C 18,3 C 96 % 1010,4 hPa 0,0 l/m 6,1 km/h (2 Bft) SW 223 0 min 0,000 mm 0,0 UV-I 5 W/m 12,4 C 13,0 C 9,7 km/h (2 Bft) 96,23 %
27.07.2017 05:56 13,1 C 18,3 C 96 % 1010,4 hPa 0,0 l/m 7,2 km/h (2 Bft) SW 236 0 min 0,000 mm 0,0 UV-I 5 W/m 12,5 C 12,6 C 12,9 km/h (3 Bft) 97,14 %
27.07.2017 05:58 13,1 C 18,3 C 96 % 1010,4 hPa 0,0 l/m 7,5 km/h (2 Bft) SW 220 0 min 0,000 mm 0,0 UV-I 6 W/m 12,5 C 12,4 C 12,9 km/h (3 Bft) 98,21 %
27.07.2017 06:00 13,1 C 18,3 C 96 % 1010,5 hPa 0,2 l/m 6,7 km/h (2 Bft) S-SW 213 0 min 0,000 mm 0,0 UV-I 6 W/m 12,5 C 12,9 C 11,3 km/h (2 Bft) 97,73 %
27.07.2017 06:02 13,1 C 18,3 C 96 % 1010,4 hPa 0,0 l/m 9,1 km/h (2 Bft) S-SW 205 0 min 0,000 mm 0,0 UV-I 7 W/m 12,5 C 11,5 C 12,9 km/h (3 Bft) 100,00 %
27.07.2017 06:04 13,1 C 18,3 C 97 % 1010,4 hPa 0,0 l/m 9,4 km/h (2 Bft) S-SW 197 0 min 0,000 mm 0,0 UV-I 7 W/m 12,6 C 11,3 C 16,1 km/h (3 Bft) 98,00 %
27.07.2017 06:06 13,1 C 18,3 C 97 % 1010,4 hPa 0,0 l/m 6,9 km/h (2 Bft) W-SW 248 0 min 0,000 mm 0,0 UV-I 8 W/m 12,6 C 12,8 C 12,9 km/h (3 Bft) 100,00 %
27.07.2017 06:08 13,1 C 18,3 C 97 % 1010,4 hPa 0,0 l/m 9,3 km/h (2 Bft) S 188 0 min 0,000 mm 0,0 UV-I 9 W/m 12,6 C 11,4 C 14,5 km/h (3 Bft) 98,00 %
27.07.2017 06:10 13,1 C 18,3 C 97 % 1010,4 hPa 0,0 l/m 9,3 km/h (2 Bft) SW 221 0 min 0,000 mm 0,0 UV-I 9 W/m 12,6 C 11,4 C 12,9 km/h (3 Bft) 94,74 %
27.07.2017 06:12 13,1 C 18,3 C 97 % 1010,4 hPa 0,0 l/m 9,3 km/h (2 Bft) W-SW 237 0 min 0,000 mm 0,0 UV-I 11 W/m 12,6 C 11,4 C 16,1 km/h (3 Bft) 100,00 %
27.07.2017 06:14 13,1 C 18,3 C 97 % 1010,4 hPa 0,0 l/m 8,3 km/h (2 Bft) SW 229 0 min 0,000 mm 0,0 UV-I 12 W/m 12,6 C 11,9 C 16,1 km/h (3 Bft) 94,00 %
27.07.2017 06:16 13,1 C 18,3 C 97 % 1010,4 hPa 0,0 l/m 10,2 km/h (2 Bft) SW 224 0 min 0,000 mm 0,0 UV-I 13 W/m 12,6 C 10,9 C 14,5 km/h (3 Bft) 92,86 %
27.07.2017 06:18 13,1 C 18,3 C 97 % 1010,5 hPa 0,0 l/m 10,3 km/h (2 Bft) S-SW 208 0 min 0,000 mm 0,0 UV-I 14 W/m 12,6 C 10,9 C 17,7 km/h (3 Bft) 98,11 %
27.07.2017 06:20 13,1 C 18,3 C 97 % 1010,4 hPa 0,0 l/m 10,3 km/h (2 Bft) W-SW 238 0 min 0,000 mm 0,0 UV-I 12 W/m 12,6 C 10,9 C 16,1 km/h (3 Bft) 100,00 %
27.07.2017 06:22 13,2 C 18,3 C 97 % 1010,4 hPa 0,0 l/m 10,9 km/h (2 Bft) S-SW 213 0 min 0,000 mm 0,0 UV-I 12 W/m 12,7 C 10,7 C 17,7 km/h (3 Bft) 98,11 %
27.07.2017 06:24 13,2 C 18,3 C 97 % 1010,5 hPa 0,0 l/m 9,8 km/h (2 Bft) SW 230 0 min 0,000 mm 0,0 UV-I 13 W/m 12,7 C 11,2 C 12,9 km/h (3 Bft) 94,74 %
27.07.2017 06:26 13,2 C 18,3 C 97 % 1010,5 hPa 0,0 l/m 10,1 km/h (2 Bft) SW 232 0 min 0,000 mm 0,0 UV-I 13 W/m 12,7 C 11,1 C 14,5 km/h (3 Bft) 97,73 %
27.07.2017 06:28 13,2 C 18,3 C 96 % 1010,5 hPa 0,0 l/m 9,4 km/h (2 Bft) SW 223 0 min 0,000 mm 0,0 UV-I 13 W/m 12,6 C 11,4 C 14,5 km/h (3 Bft) 96,43 %
27.07.2017 06:30 13,2 C 18,3 C 96 % 1010,5 hPa 0,0 l/m 10,4 km/h (2 Bft) S-SW 198 0 min 0,000 mm 0,0 UV-I 12 W/m 12,6 C 10,9 C 14,5 km/h (3 Bft) 92,11 %
27.07.2017 06:32 13,2 C 18,3 C 96 % 1010,5 hPa 0,0 l/m 8,4 km/h (2 Bft) S-SW 207 0 min 0,000 mm 0,0 UV-I 12 W/m 12,6 C 12,0 C 14,5 km/h (3 Bft) 96,43 %
27.07.2017 06:34 13,2 C 18,3 C 96 % 1010,5 hPa 0,0 l/m 10,7 km/h (2 Bft) SW 234 0 min 0,000 mm 0,0 UV-I 14 W/m 12,6 C 10,8 C 16,1 km/h (3 Bft) 97,87 %
27.07.2017 06:36 13,2 C 18,3 C 96 % 1010,6 hPa 0,0 l/m 6,9 km/h (2 Bft) SW 221 0 min 0,000 mm 0,0 UV-I 16 W/m 12,6 C 12,9 C 12,9 km/h (3 Bft) 91,49 %
27.07.2017 06:38 13,2 C 18,3 C 96 % 1010,5 hPa 0,0 l/m 9,2 km/h (2 Bft) SW 225 0 min 0,000 mm 0,0 UV-I 19 W/m 12,6 C 11,5 C 12,9 km/h (3 Bft) 95,12 %
27.07.2017 06:40 13,3 C 18,3 C 96 % 1010,6 hPa 0,0 l/m 10,9 km/h (2 Bft) W-SW 243 0 min 0,000 mm 0,0 UV-I 20 W/m 12,7 C 10,8 C 17,7 km/h (3 Bft) 92,45 %
27.07.2017 06:42 13,3 C 18,3 C 96 % 1010,6 hPa 0,0 l/m 7,7 km/h (2 Bft) SW 229 0 min 0,000 mm 0,0 UV-I 22 W/m 12,7 C 12,5 C 12,9 km/h (3 Bft) 97,73 %
27.07.2017 06:44 13,3 C 18,3 C 96 % 1010,6 hPa 0,0 l/m 11,1 km/h (2 Bft) W-SW 238 0 min 0,000 mm 0,0 UV-I 25 W/m 12,7 C 10,7 C 17,7 km/h (3 Bft) 97,37 %
27.07.2017 06:46 13,3 C 18,3 C 96 % 1010,6 hPa 0,0 l/m 8,2 km/h (2 Bft) SW 229 0 min 0,000 mm 0,0 UV-I 31 W/m 12,7 C 12,2 C 12,9 km/h (3 Bft) 96,43 %
27.07.2017 06:48 13,3 C 18,3 C 96 % 1010,5 hPa 0,0 l/m 11,7 km/h (2 Bft) W-SW 241 0 min 0,000 mm 0,0 UV-I 36 W/m 12,7 C 10,4 C 16,1 km/h (3 Bft) 98,00 %
27.07.2017 06:50 13,3 C 18,3 C 96 % 1010,6 hPa 0,0 l/m 11,4 km/h (2 Bft) W-SW 253 0 min 0,000 mm 0,0 UV-I 41 W/m 12,7 C 10,6 C 16,1 km/h (3 Bft) 97,37 %
27.07.2017 06:52 13,4 C 18,3 C 96 % 1010,6 hPa 0,0 l/m 7,6 km/h (2 Bft) W-SW 255 0 min 0,000 mm 0,0 UV-I 42 W/m 12,8 C 12,7 C 12,9 km/h (3 Bft) 97,87 %
27.07.2017 06:54 13,4 C 18,3 C 96 % 1010,7 hPa 0,0 l/m 9,8 km/h (2 Bft) SW 235 0 min 0,000 mm 0,0 UV-I 44 W/m 12,8 C 11,5 C 16,1 km/h (3 Bft) 97,78 %
27.07.2017 06:56 13,4 C 18,3 C 96 % 1010,7 hPa 0,0 l/m 9,0 km/h (2 Bft) SW 226 0 min 0,000 mm 0,0 UV-I 48 W/m 12,8 C 11,9 C 12,9 km/h (3 Bft) 94,55 %
27.07.2017 06:58 13,5 C 18,3 C 96 % 1010,7 hPa 0,0 l/m 8,9 km/h (2 Bft) W-SW 240 0 min 0,000 mm 0,0 UV-I 56 W/m 12,9 C 12,0 C 12,9 km/h (3 Bft) 100,00 %
27.07.2017 07:00 13,5 C 18,3 C 96 % 1010,7 hPa 0,0 l/m 7,0 km/h (2 Bft) S-SW 205 0 min 0,025 mm 0,0 UV-I 60 W/m 12,9 C 13,1 C 11,3 km/h (2 Bft) 100,00 %
27.07.2017 07:02 13,6 C 18,3 C 96 % 1010,7 hPa 0,0 l/m 8,0 km/h (2 Bft) W-SW 254 0 min 0,000 mm 0,0 UV-I 55 W/m 13,0 C 12,6 C 16,1 km/h (3 Bft) 100,00 %
27.07.2017 07:04 13,6 C 18,3 C 96 % 1010,8 hPa 0,0 l/m 10,8 km/h (2 Bft) SW 227 0 min 0,000 mm 0,0 UV-I 50 W/m 13,0 C 11,2 C 16,1 km/h (3 Bft) 97,87 %
27.07.2017 07:06 13,6 C 18,3 C 96 % 1010,8 hPa 0,0 l/m 9,8 km/h (2 Bft) SW 236 0 min 0,000 mm 0,0 UV-I 47 W/m 13,0 C 11,7 C 12,9 km/h (3 Bft) 96,00 %
27.07.2017 07:08 13,6 C 18,3 C 96 % 1010,8 hPa 0,0 l/m 9,8 km/h (2 Bft) W-SW 254 0 min 0,000 mm 0,0 UV-I 50 W/m 13,0 C 11,7 C 14,5 km/h (3 Bft) 97,37 %
27.07.2017 07:10 13,6 C 18,3 C 96 % 1010,8 hPa 0,0 l/m 10,5 km/h (2 Bft) S-SW 200 0 min 0,000 mm 0,0 UV-I 57 W/m 13,0 C 11,3 C 16,1 km/h (3 Bft) 100,00 %
27.07.2017 07:12 13,7 C 18,3 C 96 % 1010,8 hPa 0,0 l/m 10,2 km/h (2 Bft) W-SW 244 0 min 0,000 mm 0,0 UV-I 66 W/m 13,1 C 11,6 C 14,5 km/h (3 Bft) 97,73 %
27.07.2017 07:14 13,7 C 18,3 C 96 % 1010,8 hPa 0,0 l/m 9,3 km/h (2 Bft) W-SW 248 0 min 0,000 mm 0,0 UV-I 69 W/m 13,1 C 12,0 C 16,1 km/h (3 Bft) 96,23 %
27.07.2017 07:16 13,7 C 18,3 C 95 % 1010,9 hPa 0,0 l/m 13,3 km/h (3 Bft) W-SW 246 0 min 0,000 mm 0,0 UV-I 72 W/m 12,9 C 10,2 C 19,3 km/h (3 Bft) 100,00 %
27.07.2017 07:18 13,7 C 18,3 C 95 % 1010,9 hPa 0,0 l/m 11,3 km/h (2 Bft) W-SW 238 0 min 0,000 mm 0,0 UV-I 76 W/m 12,9 C 11,1 C 17,7 km/h (3 Bft) 95,74 %
27.07.2017 07:20 13,7 C 18,3 C 95 % 1010,9 hPa 0,0 l/m 8,7 km/h (2 Bft) W-SW 244 0 min 0,000 mm 0,0 UV-I 75 W/m 12,9 C 12,3 C 12,9 km/h (3 Bft) 98,11 %
27.07.2017 07:22 13,7 C 18,3 C 95 % 1010,9 hPa 0,0 l/m 9,9 km/h (2 Bft) SW 220 0 min 0,000 mm 0,0 UV-I 65 W/m 12,9 C 11,7 C 14,5 km/h (3 Bft) 95,12 %
27.07.2017 07:24 13,7 C 18,3 C 95 % 1010,9 hPa 0,0 l/m 7,9 km/h (2 Bft) SW 230 0 min 0,000 mm 0,0 UV-I 56 W/m 12,9 C 12,8 C 12,9 km/h (3 Bft) 100,00 %
27.07.2017 07:26 13,7 C 18,3 C 95 % 1010,9 hPa 0,0 l/m 8,4 km/h (2 Bft) W-SW 243 0 min 0,000 mm 0,0 UV-I 50 W/m 12,9 C 12,5 C 11,3 km/h (2 Bft) 100,00 %
27.07.2017 07:28 13,7 C 18,3 C 95 % 1010,9 hPa 0,0 l/m 8,0 km/h (2 Bft) W-SW 240 0 min 0,000 mm 0,0 UV-I 52 W/m 12,9 C 12,7 C 11,3 km/h (2 Bft) 100,00 %
27.07.2017 07:30 13,8 C 18,3 C 95 % 1010,9 hPa 0,0 l/m 8,5 km/h (2 Bft) W-SW 249 0 min 0,000 mm 0,0 UV-I 59 W/m 13,0 C 12,6 C 12,9 km/h (3 Bft) 98,11 %
27.07.2017 07:32 13,7 C 18,3 C 95 % 1010,9 hPa 0,0 l/m 7,8 km/h (2 Bft) SW 221 0 min 0,000 mm 0,0 UV-I 71 W/m 12,9 C 12,9 C 11,3 km/h (2 Bft) 100,00 %
27.07.2017 07:34 13,8 C 18,3 C 95 % 1010,9 hPa 0,0 l/m 9,4 km/h (2 Bft) SW 225 0 min 0,000 mm 0,0 UV-I 76 W/m 13,0 C 12,1 C 12,9 km/h (3 Bft) 100,00 %
27.07.2017 07:36 13,8 C 18,3 C 95 % 1010,9 hPa 0,0 l/m 8,7 km/h (2 Bft) SW 217 0 min 0,000 mm 0,0 UV-I 80 W/m 13,0 C 12,5 C 12,9 km/h (3 Bft) 94,87 %
27.07.2017 07:38 13,8 C 18,3 C 95 % 1010,9 hPa 0,0 l/m 8,0 km/h (2 Bft) SW 233 0 min 0,000 mm 0,0 UV-I 86 W/m 13,0 C 12,8 C 11,3 km/h (2 Bft) 96,43 %
27.07.2017 07:40 13,9 C 18,3 C 95 % 1010,9 hPa 0,0 l/m 6,5 km/h (2 Bft) W-SW 238 0 min 0,000 mm 0,0 UV-I 94 W/m 13,1 C 13,9 C 8,0 km/h (2 Bft) 97,56 %
27.07.2017 07:42 13,9 C 18,3 C 95 % 1011,0 hPa 0,0 l/m 8,6 km/h (2 Bft) W-SW 241 0 min 0,000 mm 0,0 UV-I 105 W/m 13,1 C 12,6 C 12,9 km/h (3 Bft) 96,23 %
27.07.2017 07:44 13,9 C 18,3 C 95 % 1011,0 hPa 0,0 l/m 7,4 km/h (2 Bft) W-SW 244 0 min 0,000 mm 0,0 UV-I 112 W/m 13,1 C 13,3 C 14,5 km/h (3 Bft) 95,12 %
27.07.2017 07:46 13,9 C 18,3 C 95 % 1011,0 hPa 0,0 l/m 7,6 km/h (2 Bft) SW 223 0 min 0,000 mm 0,0 UV-I 107 W/m 13,1 C 13,2 C 12,9 km/h (3 Bft) 87,23 %
27.07.2017 07:48 14,0 C 18,3 C 95 % 1011,0 hPa 0,0 l/m 7,5 km/h (2 Bft) SW 229 0 min 0,000 mm 0,0 UV-I 99 W/m 13,2 C 13,3 C 11,3 km/h (2 Bft) 100,00 %
27.07.2017 07:50 14,0 C 18,3 C 95 % 1011,0 hPa 0,0 l/m 7,4 km/h (2 Bft) SW 215 0 min 0,000 mm 0,0 UV-I 102 W/m 13,2 C 13,4 C 12,9 km/h (3 Bft) 92,00 %
27.07.2017 07:53 14,1 C 18,3 C 95 % 1011,0 hPa 0,0 l/m 6,5 km/h (2 Bft) W-SW 257 0 min 0,000 mm 0,0 UV-I 104 W/m 13,3 C 14,1 C 12,9 km/h (3 Bft) 98,46 %
27.07.2017 07:54 14,1 C 18,3 C 95 % 1011,0 hPa 0,0 l/m 7,1 km/h (2 Bft) SW 234 0 min 0,000 mm 0,0 UV-I 101 W/m 13,3 C 13,7 C 8,0 km/h (2 Bft) 96,15 %
27.07.2017 07:56 14,1 C 18,3 C 95 % 1011,0 hPa 0,0 l/m 6,4 km/h (2 Bft) W-SW 253 0 min 0,000 mm 0,0 UV-I 93 W/m 13,3 C 14,1 C 9,7 km/h (2 Bft) 100,00 %
27.07.2017 07:58 14,1 C 18,3 C 95 % 1011,0 hPa 0,0 l/m 6,7 km/h (2 Bft) W-SW 246 0 min 0,000 mm 0,0 UV-I 82 W/m 13,3 C 13,9 C 9,7 km/h (2 Bft) 96,72 %
27.07.2017 08:00 14,1 C 18,3 C 95 % 1011,0 hPa 0,0 l/m 7,6 km/h (2 Bft) W-SW 258 0 min 0,051 mm 0,0 UV-I 86 W/m 13,3 C 13,4 C 9,7 km/h (2 Bft) 94,74 %
27.07.2017 08:02 14,2 C 18,3 C 95 % 1011,0 hPa 0,0 l/m 7,2 km/h (2 Bft) SW 223 0 min 0,000 mm 0,0 UV-I 95 W/m 13,4 C 13,7 C 11,3 km/h (2 Bft) 96,00 %
27.07.2017 08:04 14,2 C 18,3 C 95 % 1011,0 hPa 0,0 l/m 8,5 km/h (2 Bft) SW 229 0 min 0,000 mm 0,2 UV-I 105 W/m 13,4 C 13,0 C 11,3 km/h (2 Bft) 96,00 %
27.07.2017 08:06 14,2 C 18,3 C 95 % 1011,0 hPa 0,0 l/m 7,6 km/h (2 Bft) SW 219 0 min 0,000 mm 0,5 UV-I 114 W/m 13,4 C 13,5 C 12,9 km/h (3 Bft) 96,00 %
27.07.2017 08:08 14,2 C 18,3 C 95 % 1011,1 hPa 0,0 l/m 8,6 km/h (2 Bft) SW 215 0 min 0,000 mm 0,5 UV-I 117 W/m 13,4 C 12,9 C 11,3 km/h (2 Bft) 92,50 %
27.07.2017 08:10 14,2 C 18,3 C 95 % 1011,1 hPa 0,0 l/m 8,4 km/h (2 Bft) SW 231 0 min 0,000 mm 0,5 UV-I 116 W/m 13,4 C 13,0 C 14,5 km/h (3 Bft) 96,23 %
27.07.2017 08:12 14,3 C 18,3 C 95 % 1011,0 hPa 0,0 l/m 8,6 km/h (2 Bft) SW 221 0 min 0,000 mm 0,6 UV-I 122 W/m 13,5 C 13,0 C 12,9 km/h (3 Bft) 97,44 %
27.07.2017 08:14 14,3 C 18,3 C 94 % 1011,0 hPa 0,0 l/m 8,2 km/h (2 Bft) W 263 0 min 0,000 mm 0,6 UV-I 136 W/m 13,3 C 13,3 C 11,3 km/h (2 Bft) 92,31 %
27.07.2017 08:16 14,3 C 18,3 C 94 % 1011,0 hPa 0,0 l/m 8,6 km/h (2 Bft) SW 225 0 min 0,000 mm 0,6 UV-I 145 W/m 13,3 C 13,0 C 12,9 km/h (3 Bft) 91,67 %
27.07.2017 08:18 14,3 C 18,3 C 94 % 1011,0 hPa 0,0 l/m 8,7 km/h (2 Bft) SW 223 0 min 0,000 mm 0,7 UV-I 154 W/m 13,3 C 13,0 C 14,5 km/h (3 Bft) 96,00 %
27.07.2017 08:20 14,4 C 18,3 C 94 % 1011,0 hPa 0,0 l/m 8,7 km/h (2 Bft) W-SW 238 0 min 0,000 mm 0,7 UV-I 168 W/m 13,4 C 13,1 C 12,9 km/h (3 Bft) 96,23 %
27.07.2017 08:22 14,4 C 18,3 C 94 % 1011,0 hPa 0,0 l/m 8,2 km/h (2 Bft) W-SW 256 0 min 0,000 mm 0,7 UV-I 171 W/m 13,4 C 13,4 C 12,9 km/h (3 Bft) 92,00 %
27.07.2017 08:24 14,4 C 18,3 C 94 % 1011,0 hPa 0,0 l/m 8,7 km/h (2 Bft) SW 229 0 min 0,000 mm 0,7 UV-I 171 W/m 13,4 C 13,1 C 12,9 km/h (3 Bft) 92,11 %
27.07.2017 08:26 14,4 C 18,3 C 94 % 1011,0 hPa 0,0 l/m 9,3 km/h (2 Bft) W-SW 242 0 min 0,000 mm 0,7 UV-I 172 W/m 13,4 C 12,8 C 14,5 km/h (3 Bft) 93,18 %
27.07.2017 08:28 14,5 C 18,3 C 94 % 1011,1 hPa 0,0 l/m 9,1 km/h (2 Bft) SW 227 0 min 0,000 mm 0,7 UV-I 164 W/m 13,5 C 13,0 C 12,9 km/h (3 Bft) 92,45 %
27.07.2017 08:30 14,5 C 18,3 C 94 % 1011,0 hPa 0,0 l/m 7,9 km/h (2 Bft) SW 222 0 min 0,000 mm 0,8 UV-I 157 W/m 13,5 C 13,6 C 11,3 km/h (2 Bft) 92,00 %
27.07.2017 08:32 14,6 C 18,3 C 94 % 1011,0 hPa 0,0 l/m 7,6 km/h (2 Bft) W-SW 238 0 min 0,000 mm 0,8 UV-I 148 W/m 13,6 C 13,9 C 11,3 km/h (2 Bft) 96,00 %
27.07.2017 08:34 14,6 C 18,3 C 94 % 1011,1 hPa 0,0 l/m 7,4 km/h (2 Bft) SW 214 0 min 0,000 mm 0,8 UV-I 140 W/m 13,6 C 14,0 C 9,7 km/h (2 Bft) 92,31 %
27.07.2017 08:36 14,6 C 18,3 C 94 % 1011,1 hPa 0,0 l/m 8,4 km/h (2 Bft) SW 223 0 min 0,000 mm 0,8 UV-I 142 W/m 13,6 C 13,5 C 14,5 km/h (3 Bft) 94,12 %
27.07.2017 08:38 14,6 C 18,3 C 93 % 1011,2 hPa 0,0 l/m 10,3 km/h (2 Bft) W-SW 250 0 min 0,000 mm 0,8 UV-I 160 W/m 13,5 C 12,5 C 14,5 km/h (3 Bft) 92,68 %
27.07.2017 08:40 14,6 C 18,3 C 94 % 1011,1 hPa 0,0 l/m 6,8 km/h (2 Bft) W-SW 242 0 min 0,000 mm 0,9 UV-I 173 W/m 13,6 C 14,4 C 9,7 km/h (2 Bft) 92,45 %
27.07.2017 08:42 14,7 C 18,3 C 94 % 1011,2 hPa 0,0 l/m 7,0 km/h (2 Bft) SW 221 0 min 0,000 mm 0,9 UV-I 175 W/m 13,7 C 14,4 C 11,3 km/h (2 Bft) 93,18 %
27.07.2017 08:44 14,7 C 18,3 C 93 % 1011,2 hPa 0,0 l/m 8,0 km/h (2 Bft) W-SW 239 0 min 0,000 mm 0,9 UV-I 181 W/m 13,6 C 13,8 C 12,9 km/h (3 Bft) 93,18 %
27.07.2017 08:46 14,7 C 18,3 C 93 % 1011,2 hPa 0,0 l/m 7,4 km/h (2 Bft) S-SW 199 0 min 0,000 mm 1,0 UV-I 194 W/m 13,6 C 14,1 C 12,9 km/h (3 Bft) 96,00 %
27.07.2017 08:48 14,7 C 18,3 C 93 % 1011,2 hPa 0,0 l/m 8,7 km/h (2 Bft) SW 236 0 min 0,000 mm 0,9 UV-I 186 W/m 13,6 C 13,4 C 12,9 km/h (3 Bft) 93,18 %
27.07.2017 08:50 14,8 C 18,3 C 93 % 1011,2 hPa 0,0 l/m 8,1 km/h (2 Bft) W-SW 249 0 min 0,000 mm 1,0 UV-I 194 W/m 13,7 C 13,8 C 12,9 km/h (3 Bft) 95,24 %
27.07.2017 08:52 14,8 C 18,3 C 93 % 1011,2 hPa 0,0 l/m 7,8 km/h (2 Bft) SW 233 0 min 0,000 mm 1,0 UV-I 199 W/m 13,7 C 14,0 C 12,9 km/h (3 Bft) 96,36 %
27.07.2017 08:54 14,8 C 18,3 C 93 % 1011,1 hPa 0,0 l/m 7,7 km/h (2 Bft) S-SW 210 0 min 0,000 mm 1,0 UV-I 195 W/m 13,7 C 14,1 C 12,9 km/h (3 Bft) 89,74 %
27.07.2017 08:56 14,8 C 18,3 C 93 % 1011,2 hPa 0,0 l/m 9,0 km/h (2 Bft) SW 220 0 min 0,000 mm 1,1 UV-I 200 W/m 13,7 C 13,4 C 14,5 km/h (3 Bft) 92,00 %
27.07.2017 08:58 14,9 C 18,3 C 93 % 1011,2 hPa 0,0 l/m 9,8 km/h (2 Bft) SW 226 0 min 0,000 mm 1,1 UV-I 198 W/m 13,8 C 13,1 C 14,5 km/h (3 Bft) 97,87 %
27.07.2017 09:00 14,9 C 18,3 C 93 % 1011,1 hPa 0,0 l/m 9,6 km/h (2 Bft) W-SW 237 0 min 0,076 mm 1,0 UV-I 181 W/m 13,8 C 13,2 C 14,5 km/h (3 Bft) 94,34 %
27.07.2017 09:02 14,9 C 18,3 C 93 % 1011,1 hPa 0,0 l/m 9,0 km/h (2 Bft) S-SW 198 0 min 0,000 mm 1,0 UV-I 165 W/m 13,8 C 13,5 C 12,9 km/h (3 Bft) 100,00 %
27.07.2017 09:04 14,9 C 18,3 C 93 % 1011,1 hPa 0,0 l/m 9,0 km/h (2 Bft) W-SW 243 0 min 0,000 mm 1,0 UV-I 157 W/m 13,8 C 13,5 C 14,5 km/h (3 Bft) 94,00 %
27.07.2017 09:06 14,9 C 18,3 C 93 % 1011,2 hPa 0,0 l/m 10,0 km/h (2 Bft) SW 223 0 min 0,000 mm 1,1 UV-I 166 W/m 13,8 C 13,0 C 14,5 km/h (3 Bft) 98,00 %
27.07.2017 09:08 15,0 C 18,3 C 93 % 1011,2 hPa 0,0 l/m 8,9 km/h (2 Bft) SW 227 0 min 0,000 mm 1,1 UV-I 162 W/m 13,9 C 13,6 C 12,9 km/h (3 Bft) 98,00 %
27.07.2017 09:10 15,0 C 18,3 C 93 % 1011,2 hPa 0,0 l/m 7,2 km/h (2 Bft) W 263 0 min 0,000 mm 1,1 UV-I 155 W/m 13,9 C 14,5 C 12,9 km/h (3 Bft) 95,12 %
27.07.2017 09:12 15,0 C 18,3 C 93 % 1011,2 hPa 0,0 l/m 6,8 km/h (2 Bft) W-SW 250 0 min 0,000 mm 1,1 UV-I 153 W/m 13,9 C 14,8 C 11,3 km/h (2 Bft) 97,56 %
27.07.2017 09:14 15,0 C 18,3 C 93 % 1011,2 hPa 0,0 l/m 8,3 km/h (2 Bft) SW 231 0 min 0,000 mm 1,1 UV-I 152 W/m 13,9 C 13,9 C 12,9 km/h (3 Bft) 96,00 %
27.07.2017 09:16 15,0 C 18,3 C 93 % 1011,3 hPa 0,0 l/m 7,9 km/h (2 Bft) SW 234 0 min 0,000 mm 1,1 UV-I 139 W/m 13,9 C 14,2 C 12,9 km/h (3 Bft) 98,00 %
27.07.2017 09:18 15,0 C 18,3 C 93 % 1011,3 hPa 0,0 l/m 8,9 km/h (2 Bft) W-SW 240 0 min 0,000 mm 1,1 UV-I 127 W/m 13,9 C 13,6 C 12,9 km/h (3 Bft) 95,74 %
27.07.2017 09:20 15,0 C 18,3 C 93 % 1011,2 hPa 0,0 l/m 7,7 km/h (2 Bft) SW 217 0 min 0,000 mm 1,1 UV-I 118 W/m 13,9 C 14,3 C 11,3 km/h (2 Bft) 100,00 %
27.07.2017 09:22 15,0 C 18,3 C 93 % 1011,2 hPa 0,0 l/m 5,5 km/h (1 Bft) SW 229 0 min 0,000 mm 1,1 UV-I 124 W/m 13,9 C 15,0 C 9,7 km/h (2 Bft) 97,87 %
27.07.2017 09:24 15,0 C 18,3 C 93 % 1011,2 hPa 0,0 l/m 5,9 km/h (2 Bft) W-SW 240 0 min 0,000 mm 1,2 UV-I 140 W/m 13,9 C 15,0 C 12,9 km/h (3 Bft) 100,00 %
27.07.2017 09:26 15,1 C 18,3 C 93 % 1011,1 hPa 0,0 l/m 6,3 km/h (2 Bft) W-SW 244 0 min 0,000 mm 1,3 UV-I 160 W/m 14,0 C 15,1 C 9,7 km/h (2 Bft) 97,44 %
27.07.2017 09:28 15,1 C 18,3 C 93 % 1011,1 hPa 0,0 l/m 4,6 km/h (1 Bft) SW 222 0 min 0,000 mm 1,4 UV-I 199 W/m 14,0 C 15,1 C 6,4 km/h (2 Bft) 98,08 %
27.07.2017 09:30 15,2 C 18,3 C 93 % 1011,2 hPa 0,0 l/m 3,9 km/h (1 Bft) SW 217 2 min 0,000 mm 1,7 UV-I 335 W/m 14,1 C 15,2 C 8,0 km/h (2 Bft) 98,00 %
27.07.2017 09:32 15,4 C 18,3 C 93 % 1011,2 hPa 0,0 l/m 6,4 km/h (2 Bft) SW 221 2 min 0,000 mm 2,1 UV-I 435 W/m 14,3 C 15,4 C 9,7 km/h (2 Bft) 100,00 %
27.07.2017 09:34 15,7 C 18,3 C 93 % 1011,2 hPa 0,0 l/m 6,0 km/h (2 Bft) SW 236 2 min 0,000 mm 2,3 UV-I 600 W/m 14,6 C 15,7 C 9,7 km/h (2 Bft) 97,22 %
27.07.2017 09:36 16,0 C 18,3 C 92 % 1011,1 hPa 0,0 l/m 4,4 km/h (1 Bft) W-SW 248 2 min 0,000 mm 2,3 UV-I 628 W/m 14,7 C 16,0 C 6,4 km/h (2 Bft) 98,11 %
27.07.2017 09:38 16,3 C 18,3 C 92 % 1011,1 hPa 0,0 l/m 5,5 km/h (1 Bft) W-SW 242 2 min 0,000 mm 2,3 UV-I 617 W/m 15,0 C 16,3 C 8,0 km/h (2 Bft) 96,55 %
27.07.2017 09:40 16,6 C 18,3 C 90 % 1011,1 hPa 0,0 l/m 7,7 km/h (2 Bft) W 262 2 min 0,000 mm 2,4 UV-I 650 W/m 15,0 C 15,9 C 12,9 km/h (3 Bft) 100,00 %
27.07.2017 09:43 16,9 C 18,3 C 89 % 1011,1 hPa 0,0 l/m 7,9 km/h (2 Bft) W 272 3 min 0,000 mm 2,5 UV-I 663 W/m 15,1 C 16,1 C 12,9 km/h (3 Bft) 98,63 %
27.07.2017 09:44 17,1 C 18,3 C 89 % 1011,1 hPa 0,0 l/m 8,7 km/h (2 Bft) W-SW 252 1 min 0,000 mm 2,5 UV-I 673 W/m 15,3 C 16,0 C 14,5 km/h (3 Bft) 100,00 %
27.07.2017 09:46 17,3 C 18,3 C 88 % 1011,1 hPa 0,0 l/m 13,1 km/h (3 Bft) W-SW 251 2 min 0,000 mm 2,6 UV-I 692 W/m 15,3 C 14,6 C 19,3 km/h (3 Bft) 100,00 %
27.07.2017 09:48 17,4 C 18,3 C 87 % 1011,1 hPa 0,0 l/m 10,7 km/h (2 Bft) W-SW 240 2 min 0,000 mm 2,7 UV-I 732 W/m 15,2 C 15,5 C 17,7 km/h (3 Bft) 96,23 %
27.07.2017 09:50 17,6 C 18,3 C 86 % 1011,0 hPa 0,0 l/m 9,6 km/h (2 Bft) W 269 2 min 0,000 mm 2,7 UV-I 729 W/m 15,2 C 16,1 C 14,5 km/h (3 Bft) 100,00 %
27.07.2017 09:52 17,8 C 18,9 C 85 % 1011,0 hPa 0,0 l/m 7,2 km/h (2 Bft) SW 236 2 min 0,000 mm 2,7 UV-I 725 W/m 15,2 C 17,4 C 14,5 km/h (3 Bft) 97,56 %
27.07.2017 09:54 17,8 C 18,3 C 84 % 1010,9 hPa 0,0 l/m 5,6 km/h (1 Bft) SW 232 2 min 0,000 mm 2,7 UV-I 733 W/m 15,1 C 17,8 C 8,0 km/h (2 Bft) 98,11 %
27.07.2017 09:56 17,9 C 18,3 C 84 % 1010,9 hPa 0,0 l/m 9,3 km/h (2 Bft) SW 221 2 min 0,000 mm 2,8 UV-I 733 W/m 15,2 C 16,6 C 14,5 km/h (3 Bft) 100,00 %
27.07.2017 09:58 18,0 C 18,3 C 85 % 1010,9 hPa 0,0 l/m 8,4 km/h (2 Bft) W-SW 237 2 min 0,000 mm 2,6 UV-I 749 W/m 15,4 C 17,1 C 14,5 km/h (3 Bft) 98,11 %
27.07.2017 10:00 18,1 C 18,3 C 83 % 1010,9 hPa 0,0 l/m 6,7 km/h (2 Bft) W-SW 250 2 min 0,229 mm 2,9 UV-I 766 W/m 15,2 C 18,0 C 12,9 km/h (3 Bft) 97,37 %
27.07.2017 10:02 18,1 C 18,3 C 84 % 1010,9 hPa 0,0 l/m 9,3 km/h (2 Bft) W 268 2 min 0,000 mm 2,8 UV-I 805 W/m 15,4 C 16,8 C 16,1 km/h (3 Bft) 97,44 %
27.07.2017 10:04 18,2 C 18,3 C 83 % 1010,9 hPa 0,0 l/m 9,9 km/h (2 Bft) W 279 2 min 0,000 mm 3,0 UV-I 815 W/m 15,3 C 16,7 C 16,1 km/h (3 Bft) 98,11 %
27.07.2017 10:06 18,3 C 18,3 C 84 % 1011,0 hPa 0,0 l/m 9,3 km/h (2 Bft) SW 226 2 min 0,000 mm 2,4 UV-I 885 W/m 15,5 C 17,0 C 12,9 km/h (3 Bft) 100,00 %
27.07.2017 10:08 18,3 C 18,3 C 83 % 1010,9 hPa 0,0 l/m 8,7 km/h (2 Bft) SW 222 0 min 0,000 mm 1,7 UV-I 357 W/m 15,4 C 17,3 C 16,1 km/h (3 Bft) 98,44 %
27.07.2017 10:10 18,1 C 18,3 C 81 % 1010,9 hPa 0,0 l/m 14,4 km/h (3 Bft) W 276 0 min 0,000 mm 1,4 UV-I 239 W/m 14,8 C 15,1 C 19,3 km/h (3 Bft) 100,00 %
27.07.2017 10:12 17,9 C 18,3 C 80 % 1010,9 hPa 0,0 l/m 9,2 km/h (2 Bft) W-SW 247 0 min 0,000 mm 2,0 UV-I 253 W/m 14,4 C 16,6 C 16,1 km/h (3 Bft) 98,00 %
27.07.2017 10:14 17,9 C 18,3 C 83 % 1011,0 hPa 0,0 l/m 8,0 km/h (2 Bft) W 275 2 min 0,000 mm 2,3 UV-I 406 W/m 15,0 C 17,1 C 14,5 km/h (3 Bft) 100,00 %
27.07.2017 10:16 18,0 C 18,3 C 83 % 1010,9 hPa 0,0 l/m 8,6 km/h (2 Bft) W-SW 246 0 min 0,000 mm 2,7 UV-I 371 W/m 15,1 C 17,0 C 14,5 km/h (3 Bft) 100,00 %
27.07.2017 10:18 18,1 C 18,3 C 82 % 1010,9 hPa 0,0 l/m 9,6 km/h (2 Bft) W-SW 250 2 min 0,000 mm 2,8 UV-I 835 W/m 15,0 C 16,7 C 14,5 km/h (3 Bft) 97,87 %
27.07.2017 10:20 18,1 C 18,3 C 80 % 1010,9 hPa 0,0 l/m 10,7 km/h (2 Bft) W-SW 238 2 min 0,000 mm 2,2 UV-I 508 W/m 14,6 C 16,3 C 17,7 km/h (3 Bft) 94,00 %
27.07.2017 10:22 17,9 C 18,3 C 80 % 1010,9 hPa 0,0 l/m 9,2 km/h (2 Bft) W-SW 257 0 min 0,000 mm 2,5 UV-I 263 W/m 14,4 C 16,6 C 16,1 km/h (3 Bft) 95,12 %
27.07.2017 10:24 17,9 C 18,3 C 82 % 1010,9 hPa 0,0 l/m 7,8 km/h (2 Bft) SW 228 2 min 0,000 mm 3,2 UV-I 732 W/m 14,8 C 17,2 C 14,5 km/h (3 Bft) 97,56 %
27.07.2017 10:26 18,1 C 18,3 C 81 % 1010,9 hPa 0,0 l/m 6,5 km/h (2 Bft) W 273 2 min 0,000 mm 3,3 UV-I 815 W/m 14,8 C 18,1 C 11,3 km/h (2 Bft) 94,34 %
27.07.2017 10:28 18,3 C 18,3 C 81 % 1010,9 hPa 0,0 l/m 8,5 km/h (2 Bft) W 262 2 min 0,000 mm 2,9 UV-I 744 W/m 15,0 C 17,4 C 12,9 km/h (3 Bft) 98,00 %
27.07.2017 10:30 18,3 C 18,9 C 78 % 1010,8 hPa 0,0 l/m 8,7 km/h (2 Bft) SW 233 2 min 0,000 mm 3,3 UV-I 744 W/m 14,4 C 17,3 C 14,5 km/h (3 Bft) 95,12 %
27.07.2017 10:32 18,3 C 18,9 C 80 % 1010,9 hPa 0,0 l/m 5,6 km/h (1 Bft) SW 219 2 min 0,000 mm 3,5 UV-I 721 W/m 14,8 C 18,3 C 14,5 km/h (3 Bft) 95,74 %
27.07.2017 10:34 18,3 C 18,9 C 79 % 1010,8 hPa 0,0 l/m 7,4 km/h (2 Bft) W-SW 238 2 min 0,000 mm 3,6 UV-I 709 W/m 14,6 C 17,8 C 12,9 km/h (3 Bft) 95,12 %
27.07.2017 10:36 18,5 C 18,9 C 79 % 1010,9 hPa 0,0 l/m 5,3 km/h (1 Bft) W 265 2 min 0,000 mm 3,7 UV-I 719 W/m 14,8 C 18,5 C 11,3 km/h (2 Bft) 98,21 %
27.07.2017 10:38 18,6 C 18,9 C 80 % 1010,8 hPa 0,0 l/m 6,7 km/h (2 Bft) SW 229 2 min 0,000 mm 3,8 UV-I 728 W/m 15,1 C 18,5 C 12,9 km/h (3 Bft) 96,00 %
27.07.2017 10:40 18,7 C 18,9 C 79 % 1010,8 hPa 0,0 l/m 7,4 km/h (2 Bft) W 259 2 min 0,000 mm 3,8 UV-I 739 W/m 15,0 C 18,2 C 14,5 km/h (3 Bft) 97,73 %
27.07.2017 10:42 18,7 C 18,9 C 78 % 1010,8 hPa 0,0 l/m 8,6 km/h (2 Bft) W 265 2 min 0,000 mm 3,9 UV-I 760 W/m 14,8 C 17,7 C 14,5 km/h (3 Bft) 95,74 %
27.07.2017 10:44 18,8 C 18,9 C 79 % 1010,8 hPa 0,0 l/m 5,5 km/h (1 Bft) W-NW 300 2 min 0,000 mm 3,6 UV-I 777 W/m 15,1 C 18,8 C 11,3 km/h (2 Bft) 93,62 %
27.07.2017 10:46 19,0 C 18,9 C 78 % 1010,9 hPa 0,0 l/m 4,9 km/h (1 Bft) W-SW 241 2 min 0,000 mm 4,0 UV-I 778 W/m 15,1 C 19,0 C 14,5 km/h (3 Bft) 97,73 %
27.07.2017 10:48 19,0 C 18,9 C 78 % 1010,9 hPa 0,0 l/m 6,5 km/h (2 Bft) W 279 2 min 0,000 mm 4,0 UV-I 765 W/m 15,1 C 19,0 C 14,5 km/h (3 Bft) 95,24 %
27.07.2017 10:50 19,0 C 18,9 C 76 % 1010,9 hPa 0,0 l/m 10,4 km/h (2 Bft) W-NW 288 2 min 0,000 mm 4,1 UV-I 783 W/m 14,7 C 17,4 C 19,3 km/h (3 Bft) 98,18 %
27.07.2017 10:52 19,0 C 18,9 C 76 % 1010,9 hPa 0,0 l/m 11,2 km/h (2 Bft) W-NW 302 2 min 0,000 mm 3,7 UV-I 784 W/m 14,7 C 17,1 C 17,7 km/h (3 Bft) 95,56 %
27.07.2017 10:54 18,9 C 18,9 C 76 % 1010,9 hPa 0,0 l/m 8,6 km/h (2 Bft) W-SW 255 0 min 0,000 mm 3,9 UV-I 284 W/m 14,6 C 18,0 C 12,9 km/h (3 Bft) 97,73 %
27.07.2017 10:56 19,0 C 18,9 C 76 % 1010,8 hPa 0,0 l/m 10,6 km/h (2 Bft) W-SW 248 0 min 0,000 mm 4,2 UV-I 363 W/m 14,7 C 17,3 C 19,3 km/h (3 Bft) 100,00 %
27.07.2017 10:58 19,1 C 18,9 C 76 % 1010,8 hPa 0,0 l/m 10,2 km/h (2 Bft) W 270 2 min 0,000 mm 4,3 UV-I 778 W/m 14,8 C 17,6 C 19,3 km/h (3 Bft) 97,87 %
27.07.2017 11:00 19,2 C 18,9 C 76 % 1010,8 hPa 0,0 l/m 7,9 km/h (2 Bft) S-SW 205 2 min 0,000 mm 4,3 UV-I 776 W/m 14,9 C 18,6 C 12,9 km/h (3 Bft) 97,56 %
27.07.2017 11:02 19,3 C 18,9 C 76 % 1010,8 hPa 0,0 l/m 6,5 km/h (2 Bft) W-SW 255 2 min 0,381 mm 4,3 UV-I 793 W/m 15,0 C 19,3 C 16,1 km/h (3 Bft) 100,00 %
27.07.2017 11:04 19,3 C 18,9 C 73 % 1010,7 hPa 0,0 l/m 8,7 km/h (2 Bft) W-SW 238 2 min 0,000 mm 4,2 UV-I 795 W/m 14,3 C 18,3 C 12,9 km/h (3 Bft) 97,56 %
27.07.2017 11:06 19,4 C 18,9 C 75 % 1010,8 hPa 0,0 l/m 6,6 km/h (2 Bft) SW 225 2 min 0,000 mm 4,5 UV-I 782 W/m 14,8 C 19,3 C 12,9 km/h (3 Bft) 100,00 %
27.07.2017 11:08 19,6 C 18,9 C 76 % 1010,8 hPa 0,0 l/m 5,2 km/h (1 Bft) W-NW 282 2 min 0,000 mm 4,6 UV-I 797 W/m 15,2 C 19,6 C 11,3 km/h (2 Bft) 98,11 %
27.07.2017 11:10 19,6 C 18,9 C 76 % 1010,8 hPa 0,0 l/m 4,1 km/h (1 Bft) W-NW 290 2 min 0,000 mm 4,7 UV-I 811 W/m 15,2 C 19,6 C 8,0 km/h (2 Bft) 95,65 %
27.07.2017 11:12 19,7 C 18,9 C 75 % 1010,7 hPa 0,0 l/m 3,7 km/h (1 Bft) N 5 2 min 0,000 mm 4,7 UV-I 846 W/m 15,1 C 19,7 C 8,0 km/h (2 Bft) 98,53 %
27.07.2017 11:14 19,8 C 18,9 C 78 % 1010,8 hPa 0,0 l/m 6,8 km/h (2 Bft) W-NW 292 2 min 0,000 mm 4,6 UV-I 879 W/m 15,8 C 19,6 C 14,5 km/h (3 Bft) 100,00 %
27.07.2017 11:16 19,7 C 18,9 C 74 % 1010,7 hPa 0,0 l/m 4,0 km/h (1 Bft) N 5 2 min 0,000 mm 4,1 UV-I 849 W/m 14,9 C 19,7 C 12,9 km/h (3 Bft) 98,46 %
27.07.2017 11:18 19,8 C 18,9 C 76 % 1010,8 hPa 0,0 l/m 5,9 km/h (2 Bft) W 266 2 min 0,000 mm 4,8 UV-I 864 W/m 15,4 C 19,8 C 12,9 km/h (3 Bft) 100,00 %
27.07.2017 11:20 19,8 C 18,9 C 75 % 1010,7 hPa 0,0 l/m 4,4 km/h (1 Bft) W-SW 238 2 min 0,000 mm 5,3 UV-I 971 W/m 15,2 C 19,8 C 8,0 km/h (2 Bft) 97,01 %
27.07.2017 11:22 20,0 C 18,9 C 75 % 1010,7 hPa 0,0 l/m 8,6 km/h (2 Bft) W 262 2 min 0,000 mm 5,0 UV-I 990 W/m 15,4 C 19,1 C 17,7 km/h (3 Bft) 98,11 %
27.07.2017 11:24 20,1 C 18,9 C 73 % 1010,6 hPa 0,0 l/m 9,1 km/h (2 Bft) W 263 2 min 0,000 mm 4,5 UV-I 731 W/m 15,1 C 19,1 C 20,9 km/h (4 Bft) 97,56 %
27.07.2017 11:26 20,1 C 18,9 C 71 % 1010,6 hPa 0,0 l/m 13,1 km/h (3 Bft) W-SW 256 2 min 0,000 mm 5,0 UV-I 742 W/m 14,7 C 17,8 C 20,9 km/h (4 Bft) 96,00 %
27.07.2017 11:28 20,1 C 18,9 C 74 % 1010,6 hPa 0,0 l/m 7,9 km/h (2 Bft) W-SW 257 2 min 0,000 mm 5,0 UV-I 846 W/m 15,3 C 19,5 C 12,9 km/h (3 Bft) 100,00 %
27.07.2017 11:30 20,2 C 18,9 C 72 % 1010,6 hPa 0,0 l/m 6,2 km/h (2 Bft) N-NW 336 2 min 0,000 mm 5,0 UV-I 847 W/m 15,0 C 20,2 C 14,5 km/h (3 Bft) 96,00 %
27.07.2017 11:32 20,3 C 18,9 C 72 % 1010,5 hPa 0,0 l/m 4,3 km/h (1 Bft) N-NW 328 2 min 0,000 mm 4,8 UV-I 860 W/m 15,1 C 20,3 C 8,0 km/h (2 Bft) 100,00 %
27.07.2017 11:34 20,2 C 18,9 C 71 % 1010,6 hPa 0,0 l/m 4,9 km/h (1 Bft) S 176 2 min 0,000 mm 5,0 UV-I 868 W/m 14,8 C 20,2 C 11,3 km/h (2 Bft) 97,37 %
27.07.2017 11:36 20,3 C 18,9 C 72 % 1010,6 hPa 0,0 l/m 2,4 km/h (1 Bft) S 189 2 min 0,000 mm 5,2 UV-I 873 W/m 15,1 C 20,3 C 6,4 km/h (2 Bft) 100,00 %
27.07.2017 11:38 20,4 C 18,9 C 75 % 1010,6 hPa 0,0 l/m 5,7 km/h (1 Bft) SW 226 2 min 0,000 mm 5,2 UV-I 876 W/m 15,8 C 20,4 C 12,9 km/h (3 Bft) 97,37 %
27.07.2017 11:40 20,6 C 18,9 C 72 % 1010,6 hPa 0,0 l/m 4,6 km/h (1 Bft) SW 219 2 min 0,000 mm 5,3 UV-I 894 W/m 15,4 C 20,6 C 12,9 km/h (3 Bft) 96,23 %
27.07.2017 11:42 20,8 C 18,9 C 73 % 1010,6 hPa 0,0 l/m 6,7 km/h (2 Bft) W 280 2 min 0,000 mm 5,4 UV-I 917 W/m 15,8 C 20,7 C 16,1 km/h (3 Bft) 100,00 %
27.07.2017 11:44 20,8 C 18,9 C 71 % 1010,6 hPa 0,0 l/m 7,7 km/h (2 Bft) SW 231 2 min 0,000 mm 5,6 UV-I 972 W/m 15,3 C 20,3 C 14,5 km/h (3 Bft) 97,37 %
27.07.2017 11:46 20,9 C 18,9 C 71 % 1010,5 hPa 0,0 l/m 3,9 km/h (1 Bft) W-SW 253 2 min 0,000 mm 5,1 UV-I 1020 W/m 15,4 C 20,9 C 12,9 km/h (3 Bft) 100,00 %
27.07.2017 11:48 20,9 C 18,9 C 71 % 1010,4 hPa 0,0 l/m 3,7 km/h (1 Bft) S-SW 211 2 min 0,000 mm 3,9 UV-I 1027 W/m 15,4 C 20,9 C 11,3 km/h (2 Bft) 98,00 %
27.07.2017 11:50 21,1 C 18,9 C 73 % 1010,4 hPa 0,0 l/m 4,8 km/h (1 Bft) W-NW 284 2 min 0,000 mm 5,3 UV-I 1005 W/m 16,1 C 21,1 C 16,1 km/h (3 Bft) 100,00 %
27.07.2017 11:52 20,9 C 18,9 C 71 % 1010,4 hPa 0,0 l/m 4,7 km/h (1 Bft) W 265 2 min 0,000 mm 5,3 UV-I 969 W/m 15,4 C 20,9 C 11,3 km/h (2 Bft) 100,00 %
27.07.2017 11:54 20,8 C 18,9 C 70 % 1010,4 hPa 0,0 l/m 6,4 km/h (2 Bft) W 267 2 min 0,000 mm 3,0 UV-I 491 W/m 15,1 C 20,8 C 11,3 km/h (2 Bft) 98,00 %
27.07.2017 11:56 20,6 C 18,9 C 72 % 1010,4 hPa 0,0 l/m 4,7 km/h (1 Bft) W-NW 300 0 min 0,000 mm 4,2 UV-I 244 W/m 15,4 C 20,6 C 14,5 km/h (3 Bft) 97,37 %
27.07.2017 11:58 20,7 C 18,9 C 71 % 1010,4 hPa 0,0 l/m 3,1 km/h (1 Bft) W-SW 251 2 min 0,000 mm 5,7 UV-I 906 W/m 15,2 C 20,7 C 6,4 km/h (2 Bft) 96,00 %
27.07.2017 12:00 20,8 C 18,9 C 71 % 1010,4 hPa 0,0 l/m 5,5 km/h (1 Bft) W-SW 246 2 min 0,483 mm 5,9 UV-I 1063 W/m 15,3 C 20,8 C 11,3 km/h (2 Bft) 98,00 %
27.07.2017 12:02 20,9 C 18,9 C 72 % 1010,4 hPa 0,0 l/m 8,8 km/h (2 Bft) W-SW 248 2 min 0,000 mm 5,4 UV-I 1095 W/m 15,7 C 20,0 C 14,5 km/h (3 Bft) 92,31 %
27.07.2017 12:04 21,0 C 18,9 C 69 % 1010,3 hPa 0,0 l/m 6,6 km/h (2 Bft) NW 325 2 min 0,000 mm 3,7 UV-I 1132 W/m 15,1 C 20,9 C 11,3 km/h (2 Bft) 96,15 %
27.07.2017 12:06 20,9 C 18,9 C 70 % 1010,4 hPa 0,0 l/m 5,9 km/h (2 Bft) SW 234 0 min 0,000 mm 2,3 UV-I 389 W/m 15,2 C 20,9 C 14,5 km/h (3 Bft) 95,24 %
27.07.2017 12:08 20,8 C 18,9 C 70 % 1010,3 hPa 0,0 l/m 8,5 km/h (2 Bft) W-SW 241 0 min 0,000 mm 1,8 UV-I 274 W/m 15,1 C 20,0 C 17,7 km/h (3 Bft) 98,18 %
27.07.2017 12:10 20,7 C 18,9 C 68 % 1010,4 hPa 0,0 l/m 8,0 km/h (2 Bft) W 281 0 min 0,000 mm 1,9 UV-I 233 W/m 14,6 C 20,1 C 14,5 km/h (3 Bft) 95,83 %
27.07.2017 12:12 20,6 C 18,9 C 69 % 1010,4 hPa 0,0 l/m 8,2 km/h (2 Bft) W 264 0 min 0,000 mm 2,1 UV-I 247 W/m 14,7 C 19,9 C 12,9 km/h (3 Bft) 97,14 %
27.07.2017 12:14 20,4 C 18,9 C 69 % 1010,3 hPa 0,0 l/m 8,4 km/h (2 Bft) W 259 0 min 0,000 mm 2,6 UV-I 246 W/m 14,5 C 19,6 C 14,5 km/h (3 Bft) 94,64 %
27.07.2017 12:16 20,4 C 18,9 C 70 % 1010,3 hPa 0,0 l/m 7,5 km/h (2 Bft) W-SW 238 0 min 0,000 mm 5,0 UV-I 326 W/m 14,7 C 20,0 C 12,9 km/h (3 Bft) 94,34 %
27.07.2017 12:18 20,7 C 18,9 C 72 % 1010,3 hPa 0,0 l/m 3,7 km/h (1 Bft) W 259 2 min 0,000 mm 5,6 UV-I 925 W/m 15,5 C 20,7 C 9,7 km/h (2 Bft) 92,11 %
27.07.2017 12:20 20,9 C 18,9 C 68 % 1010,3 hPa 0,0 l/m 10,4 km/h (2 Bft) W-SW 255 2 min 0,000 mm 3,9 UV-I 725 W/m 14,8 C 19,5 C 16,1 km/h (3 Bft) 94,34 %
27.07.2017 12:22 20,9 C 18,9 C 67 % 1010,2 hPa 0,0 l/m 9,6 km/h (2 Bft) W-SW 252 0 min 0,000 mm 2,0 UV-I 276 W/m 14,5 C 19,8 C 14,5 km/h (3 Bft) 95,12 %
27.07.2017 12:24 20,8 C 18,9 C 67 % 1010,3 hPa 0,0 l/m 8,5 km/h (2 Bft) W 281 0 min 0,000 mm 1,6 UV-I 222 W/m 14,4 C 20,0 C 17,7 km/h (3 Bft) 92,00 %
27.07.2017 12:26 20,7 C 18,9 C 67 % 1010,3 hPa 0,0 l/m 8,0 km/h (2 Bft) W-SW 256 0 min 0,000 mm 1,5 UV-I 214 W/m 14,3 C 20,1 C 16,1 km/h (3 Bft) 92,00 %
27.07.2017 12:28 20,6 C 18,9 C 69 % 1010,3 hPa 0,0 l/m 10,2 km/h (2 Bft) W 259 0 min 0,000 mm 1,9 UV-I 263 W/m 14,7 C 19,2 C 17,7 km/h (3 Bft) 94,74 %
27.07.2017 12:30 20,4 C 18,9 C 69 % 1010,3 hPa 0,0 l/m 9,5 km/h (2 Bft) W-SW 245 0 min 0,000 mm 2,1 UV-I 283 W/m 14,5 C 19,2 C 16,1 km/h (3 Bft) 94,00 %
27.07.2017 12:32 20,3 C 18,9 C 68 % 1010,2 hPa 0,0 l/m 13,9 km/h (3 Bft) W-SW 254 0 min 0,000 mm 2,4 UV-I 313 W/m 14,2 C 17,9 C 19,3 km/h (3 Bft) 95,12 %
27.07.2017 12:34 20,4 C 18,9 C 69 % 1010,3 hPa 0,0 l/m 15,6 km/h (3 Bft) W 261 0 min 0,000 mm 2,8 UV-I 373 W/m 14,5 C 17,6 C 25,7 km/h (4 Bft) 94,34 %
27.07.2017 12:36 20,4 C 18,9 C 68 % 1010,2 hPa 0,0 l/m 15,0 km/h (3 Bft) W-SW 258 0 min 0,000 mm 3,0 UV-I 398 W/m 14,3 C 17,7 C 20,9 km/h (4 Bft) 95,12 %
27.07.2017 12:38 20,5 C 18,9 C 68 % 1010,2 hPa 0,0 l/m 11,5 km/h (2 Bft) W-SW 243 0 min 0,000 mm 2,1 UV-I 294 W/m 14,4 C 18,7 C 16,1 km/h (3 Bft) 94,64 %
27.07.2017 12:40 20,4 C 18,9 C 69 % 1010,3 hPa 0,0 l/m 10,4 km/h (2 Bft) W-SW 254 0 min 0,000 mm 1,7 UV-I 228 W/m 14,5 C 19,0 C 19,3 km/h (3 Bft) 92,11 %
27.07.2017 12:42 20,3 C 18,9 C 67 % 1010,3 hPa 0,0 l/m 15,4 km/h (3 Bft) W-SW 250 0 min 0,000 mm 1,5 UV-I 214 W/m 14,0 C 17,5 C 27,4 km/h (4 Bft) 96,23 %
27.07.2017 12:44 20,2 C 18,9 C 69 % 1010,3 hPa 0,0 l/m 11,0 km/h (2 Bft) W-SW 240 0 min 0,000 mm 1,7 UV-I 231 W/m 14,3 C 18,6 C 22,5 km/h (4 Bft) 94,00 %
27.07.2017 12:46 20,1 C 18,9 C 66 % 1010,3 hPa 0,0 l/m 15,1 km/h (3 Bft) W-SW 252 0 min 0,000 mm 2,0 UV-I 246 W/m 13,5 C 17,3 C 35,4 km/h (5 Bft) 94,00 %
27.07.2017 12:48 20,1 C 18,9 C 64 % 1010,4 hPa 0,0 l/m 14,1 km/h (3 Bft) W 271 0 min 0,000 mm 1,6 UV-I 215 W/m 13,1 C 17,6 C 30,6 km/h (5 Bft) 94,87 %
27.07.2017 12:50 19,9 C 18,9 C 63 % 1010,4 hPa 0,0 l/m 18,9 km/h (3 Bft) W-NW 287 0 min 0,000 mm 1,7 UV-I 213 W/m 12,6 C 16,3 C 30,6 km/h (5 Bft) 94,00 %
27.07.2017 12:52 19,8 C 18,9 C 64 % 1010,4 hPa 0,0 l/m 14,4 km/h (3 Bft) SW 236 0 min 0,000 mm 2,3 UV-I 289 W/m 12,8 C 17,2 C 25,7 km/h (4 Bft) 96,00 %
27.07.2017 12:54 19,8 C 18,9 C 65 % 1010,5 hPa 0,0 l/m 13,0 km/h (3 Bft) W-SW 250 0 min 0,000 mm 2,9 UV-I 361 W/m 13,0 C 17,5 C 19,3 km/h (3 Bft) 97,37 %
27.07.2017 12:56 19,8 C 18,9 C 65 % 1010,5 hPa 0,0 l/m 14,3 km/h (3 Bft) SW 226 0 min 0,000 mm 3,6 UV-I 431 W/m 13,0 C 17,2 C 25,7 km/h (4 Bft) 94,00 %
27.07.2017 12:58 19,9 C 19,4 C 64 % 1010,4 hPa 0,0 l/m 8,6 km/h (2 Bft) W-SW 240 2 min 0,000 mm 4,2 UV-I 490 W/m 12,9 C 19,0 C 14,5 km/h (3 Bft) 96,00 %
27.07.2017 13:00 20,1 C 18,9 C 64 % 1010,4 hPa 0,0 l/m 13,5 km/h (3 Bft) SW 224 0 min 0,000 mm 3,5 UV-I 443 W/m 13,1 C 17,7 C 20,9 km/h (4 Bft) 95,45 %
27.07.2017 13:02 20,2 C 18,9 C 64 % 1010,3 hPa 0,0 l/m 14,7 km/h (3 Bft) N 5 0 min 0,279 mm 2,6 UV-I 319 W/m 13,2 C 17,6 C 33,8 km/h (5 Bft) 96,23 %
27.07.2017 13:04 20,1 C 18,9 C 63 % 1010,4 hPa 0,0 l/m 17,3 km/h (3 Bft) W 278 0 min 0,000 mm 2,2 UV-I 289 W/m 12,8 C 16,9 C 25,7 km/h (4 Bft) 94,29 %
27.07.2017 13:06 19,9 C 18,9 C 64 % 1010,5 hPa 0,0 l/m 17,3 km/h (3 Bft) W-SW 256 0 min 0,000 mm 2,3 UV-I 293 W/m 12,9 C 16,6 C 25,7 km/h (4 Bft) 97,73 %
27.07.2017 13:08 19,8 C 18,9 C 63 % 1010,5 hPa 0,0 l/m 19,4 km/h (3 Bft) W 263 0 min 0,000 mm 2,3 UV-I 306 W/m 12,5 C 16,1 C 32,2 km/h (5 Bft) 93,02 %
27.07.2017 13:10 19,8 C 18,9 C 65 % 1010,5 hPa 0,0 l/m 12,0 km/h (2 Bft) W-SW 257 0 min 0,000 mm 2,6 UV-I 385 W/m 13,0 C 17,8 C 20,9 km/h (4 Bft) 100,00 %
27.07.2017 13:12 19,7 C 18,9 C 65 % 1010,5 hPa 0,0 l/m 14,8 km/h (3 Bft) W 275 0 min 0,000 mm 3,3 UV-I 380 W/m 12,9 C 16,9 C 25,7 km/h (4 Bft) 97,73 %
27.07.2017 13:14 19,7 C 18,9 C 67 % 1010,4 hPa 0,0 l/m 12,3 km/h (3 Bft) W-SW 244 0 min 0,000 mm 3,6 UV-I 414 W/m 13,4 C 17,6 C 20,9 km/h (4 Bft) 100,00 %
27.07.2017 13:16 19,8 C 19,4 C 66 % 1010,4 hPa 0,0 l/m 15,2 km/h (3 Bft) W-SW 246 2 min 0,000 mm 4,3 UV-I 480 W/m 13,3 C 17,0 C 29,0 km/h (5 Bft) 98,57 %
27.07.2017 13:18 20,0 C 19,4 C 67 % 1010,4 hPa 0,0 l/m 10,3 km/h (2 Bft) W-SW 255 2 min 0,000 mm 4,1 UV-I 519 W/m 13,7 C 18,5 C 17,7 km/h (3 Bft) 97,73 %
27.07.2017 13:20 20,2 C 19,4 C 65 % 1010,4 hPa 0,0 l/m 17,8 km/h (3 Bft) W-SW 244 2 min 0,000 mm 4,5 UV-I 519 W/m 13,4 C 16,9 C 25,7 km/h (4 Bft) 100,00 %
27.07.2017 13:22 20,2 C 19,4 C 66 % 1010,4 hPa 0,0 l/m 13,1 km/h (3 Bft) SO 141 2 min 0,000 mm 3,9 UV-I 520 W/m 13,6 C 18,0 C 27,4 km/h (4 Bft) 95,74 %
27.07.2017 13:24 20,3 C 19,4 C 64 % 1010,4 hPa 0,0 l/m 11,6 km/h (2 Bft) SW 227 2 min 0,000 mm 3,9 UV-I 523 W/m 13,3 C 18,5 C 20,9 km/h (4 Bft) 100,00 %
27.07.2017 13:26 20,2 C 19,4 C 64 % 1010,3 hPa 0,0 l/m 10,5 km/h (2 Bft) SW 233 0 min 0,000 mm 3,4 UV-I 442 W/m 13,2 C 18,7 C 14,5 km/h (3 Bft) 96,23 %
27.07.2017 13:28 20,2 C 19,4 C 65 % 1010,2 hPa 0,0 l/m 12,9 km/h (3 Bft) W-SW 252 0 min 0,000 mm 3,1 UV-I 385 W/m 13,4 C 18,0 C 19,3 km/h (3 Bft) 100,00 %
27.07.2017 13:30 20,1 C 19,4 C 64 % 1010,1 hPa 0,0 l/m 14,2 km/h (3 Bft) W-SW 244 0 min 0,000 mm 3,6 UV-I 458 W/m 13,1 C 17,6 C 22,5 km/h (4 Bft) 100,00 %
27.07.2017 13:32 20,0 C 19,4 C 66 % 1010,2 hPa 0,0 l/m 11,7 km/h (2 Bft) SW 234 2 min 0,000 mm 4,1 UV-I 531 W/m 13,4 C 18,1 C 17,7 km/h (3 Bft) 98,00 %
27.07.2017 13:34 20,0 C 19,4 C 64 % 1010,3 hPa 0,0 l/m 13,7 km/h (3 Bft) W-SW 237 2 min 0,000 mm 5,0 UV-I 639 W/m 13,0 C 17,6 C 19,3 km/h (3 Bft) 100,00 %
27.07.2017 13:36 20,0 C 19,4 C 65 % 1010,2 hPa 0,0 l/m 8,8 km/h (2 Bft) SW 214 2 min 0,000 mm 4,0 UV-I 553 W/m 13,2 C 19,1 C 16,1 km/h (3 Bft) 96,23 %
27.07.2017 13:38 20,1 C 19,4 C 66 % 1010,2 hPa 0,0 l/m 9,0 km/h (2 Bft) SW 229 2 min 0,000 mm 3,8 UV-I 483 W/m 13,5 C 19,1 C 16,1 km/h (3 Bft) 97,87 %
27.07.2017 13:40 20,1 C 19,4 C 66 % 1010,2 hPa 0,0 l/m 11,6 km/h (2 Bft) SW 229 2 min 0,000 mm 4,0 UV-I 511 W/m 13,5 C 18,3 C 20,9 km/h (4 Bft) 98,11 %
27.07.2017 13:42 20,1 C 19,4 C 65 % 1010,3 hPa 0,0 l/m 14,3 km/h (3 Bft) SW 227 2 min 0,000 mm 4,0 UV-I 508 W/m 13,3 C 17,5 C 24,1 km/h (4 Bft) 100,00 %
27.07.2017 13:44 20,0 C 19,4 C 65 % 1010,2 hPa 0,0 l/m 9,8 km/h (2 Bft) W 274 2 min 0,000 mm 4,2 UV-I 571 W/m 13,2 C 18,7 C 19,3 km/h (3 Bft) 98,00 %
27.07.2017 13:46 20,1 C 19,4 C 66 % 1010,2 hPa 0,0 l/m 11,4 km/h (2 Bft) W-SW 239 2 min 0,000 mm 3,8 UV-I 499 W/m 13,5 C 18,3 C 20,9 km/h (4 Bft) 100,00 %
27.07.2017 13:48 20,2 C 19,4 C 64 % 1010,1 hPa 0,0 l/m 12,4 km/h (3 Bft) SW 231 0 min 0,000 mm 3,8 UV-I 451 W/m 13,2 C 18,1 C 20,9 km/h (4 Bft) 94,92 %
27.07.2017 13:50 20,2 C 19,4 C 64 % 1010,1 hPa 0,0 l/m 9,7 km/h (2 Bft) SW 236 0 min 0,000 mm 3,3 UV-I 407 W/m 13,2 C 19,0 C 22,5 km/h (4 Bft) 95,74 %
27.07.2017 13:52 20,1 C 19,4 C 64 % 1010,1 hPa 0,0 l/m 15,4 km/h (3 Bft) W-NW 290 0 min 0,000 mm 3,1 UV-I 396 W/m 13,1 C 17,3 C 30,6 km/h (5 Bft) 100,00 %
27.07.2017 13:54 20,0 C 19,4 C 64 % 1010,1 hPa 0,0 l/m 10,7 km/h (2 Bft) W 270 0 min 0,000 mm 2,8 UV-I 360 W/m 13,0 C 18,4 C 19,3 km/h (3 Bft) 97,37 %
27.07.2017 13:56 19,9 C 19,4 C 67 % 1010,1 hPa 0,0 l/m 8,2 km/h (2 Bft) SW 231 0 min 0,000 mm 2,6 UV-I 343 W/m 13,6 C 19,2 C 16,1 km/h (3 Bft) 97,87 %
27.07.2017 13:58 19,9 C 19,4 C 66 % 1010,1 hPa 0,0 l/m 10,4 km/h (2 Bft) W-SW 248 0 min 0,000 mm 2,6 UV-I 344 W/m 13,4 C 18,4 C 17,7 km/h (3 Bft) 100,00 %
27.07.2017 14:00 19,8 C 19,4 C 67 % 1010,1 hPa 0,0 l/m 8,6 km/h (2 Bft) SW 234 0 min 0,330 mm 2,6 UV-I 350 W/m 13,5 C 18,9 C 16,1 km/h (3 Bft) 98,51 %
27.07.2017 14:02 19,8 C 19,4 C 67 % 1010,1 hPa 0,0 l/m 10,6 km/h (2 Bft) SW 233 0 min 0,000 mm 2,8 UV-I 371 W/m 13,5 C 18,2 C 20,9 km/h (4 Bft) 96,23 %
27.07.2017 14:04 19,8 C 19,4 C 67 % 1010,2 hPa 0,0 l/m 12,8 km/h (3 Bft) W-SW 246 0 min 0,000 mm 3,3 UV-I 420 W/m 13,5 C 17,6 C 22,5 km/h (4 Bft) 97,44 %
27.07.2017 14:06 19,9 C 19,4 C 68 % 1010,1 hPa 0,0 l/m 8,0 km/h (2 Bft) SW 236 0 min 0,000 mm 2,9 UV-I 388 W/m 13,8 C 19,2 C 12,9 km/h (3 Bft) 98,21 %
27.07.2017 14:08 20,0 C 19,4 C 68 % 1010,1 hPa 0,0 l/m 9,5 km/h (2 Bft) W 260 0 min 0,000 mm 2,7 UV-I 349 W/m 13,9 C 18,8 C 12,9 km/h (3 Bft) 100,00 %
27.07.2017 14:10 19,9 C 19,4 C 67 % 1010,1 hPa 0,0 l/m 13,9 km/h (3 Bft) W 263 0 min 0,000 mm 2,4 UV-I 314 W/m 13,6 C 17,4 C 22,5 km/h (4 Bft) 97,73 %
27.07.2017 14:12 19,8 C 19,4 C 66 % 1010,2 hPa 0,0 l/m 15,1 km/h (3 Bft) W-SW 246 0 min 0,000 mm 2,1 UV-I 276 W/m 13,3 C 17,0 C 20,9 km/h (4 Bft) 94,64 %
27.07.2017 14:14 19,7 C 19,4 C 67 % 1010,2 hPa 0,0 l/m 10,9 km/h (2 Bft) W 266 0 min 0,000 mm 1,9 UV-I 259 W/m 13,4 C 18,0 C 17,7 km/h (3 Bft) 97,37 %
27.07.2017 14:16 19,7 C 19,4 C 68 % 1010,2 hPa 0,0 l/m 8,5 km/h (2 Bft) W-SW 257 0 min 0,000 mm 2,0 UV-I 271 W/m 13,6 C 18,8 C 12,9 km/h (3 Bft) 97,73 %
27.07.2017 14:18 19,6 C 19,4 C 68 % 1010,2 hPa 0,0 l/m 11,0 km/h (2 Bft) W 263 0 min 0,000 mm 2,1 UV-I 282 W/m 13,5 C 17,9 C 16,1 km/h (3 Bft) 98,31 %
27.07.2017 14:20 19,6 C 19,4 C 68 % 1010,2 hPa 0,0 l/m 8,1 km/h (2 Bft) S-SW 211 0 min 0,000 mm 2,2 UV-I 297 W/m 13,5 C 18,9 C 16,1 km/h (3 Bft) 97,56 %
27.07.2017 14:22 19,7 C 19,4 C 70 % 1010,2 hPa 0,0 l/m 7,8 km/h (2 Bft) W-NW 296 0 min 0,000 mm 2,4 UV-I 319 W/m 14,1 C 19,1 C 12,9 km/h (3 Bft) 97,37 %
27.07.2017 14:24 19,7 C 19,4 C 70 % 1010,2 hPa 0,0 l/m 4,4 km/h (1 Bft) W-SW 242 0 min 0,000 mm 2,6 UV-I 354 W/m 14,1 C 19,7 C 8,0 km/h (2 Bft) 96,43 %
27.07.2017 14:26 19,8 C 19,4 C 70 % 1010,2 hPa 0,0 l/m 7,5 km/h (2 Bft) NW 308 0 min 0,000 mm 3,1 UV-I 395 W/m 14,2 C 19,3 C 12,9 km/h (3 Bft) 97,73 %
27.07.2017 14:28 20,0 C 19,4 C 69 % 1010,2 hPa 0,0 l/m 6,3 km/h (2 Bft) S-SW 209 2 min 0,000 mm 3,4 UV-I 467 W/m 14,1 C 20,0 C 12,9 km/h (3 Bft) 94,00 %
27.07.2017 14:30 20,1 C 19,4 C 69 % 1010,2 hPa 0,0 l/m 7,5 km/h (2 Bft) W 273 2 min 0,000 mm 3,6 UV-I 561 W/m 14,2 C 19,7 C 19,3 km/h (3 Bft) 97,56 %
27.07.2017 14:32 20,1 C 19,4 C 67 % 1010,1 hPa 0,0 l/m 12,0 km/h (2 Bft) W-SW 250 0 min 0,000 mm 3,3 UV-I 424 W/m 13,8 C 18,1 C 22,5 km/h (4 Bft) 96,43 %
27.07.2017 14:34 20,1 C 19,4 C 68 % 1010,1 hPa 0,0 l/m 10,6 km/h (2 Bft) W 266 0 min 0,000 mm 3,0 UV-I 370 W/m 14,0 C 18,6 C 16,1 km/h (3 Bft) 97,37 %
27.07.2017 14:36 20,1 C 19,4 C 67 % 1010,1 hPa 0,0 l/m 5,2 km/h (1 Bft) W 267 0 min 0,000 mm 2,6 UV-I 312 W/m 13,8 C 20,1 C 9,7 km/h (2 Bft) 96,00 %
27.07.2017 14:38 20,1 C 19,4 C 67 % 1010,1 hPa 0,0 l/m 9,1 km/h (2 Bft) W-SW 253 0 min 0,000 mm 2,3 UV-I 286 W/m 13,8 C 19,1 C 14,5 km/h (3 Bft) 95,45 %
27.07.2017 14:40 20,0 C 19,4 C 68 % 1010,1 hPa 0,0 l/m 7,5 km/h (2 Bft) W-SW 238 0 min 0,000 mm 2,2 UV-I 287 W/m 13,9 C 19,5 C 14,5 km/h (3 Bft) 97,92 %
27.07.2017 14:42 20,0 C 19,4 C 67 % 1010,0 hPa 0,0 l/m 7,7 km/h (2 Bft) N-NW 327 0 min 0,000 mm 2,3 UV-I 305 W/m 13,7 C 19,5 C 14,5 km/h (3 Bft) 95,92 %
27.07.2017 14:44 19,9 C 19,4 C 68 % 1010,0 hPa 0,0 l/m 8,5 km/h (2 Bft) NW 309 0 min 0,000 mm 2,5 UV-I 334 W/m 13,8 C 19,1 C 16,1 km/h (3 Bft) 97,78 %
27.07.2017 14:46 20,1 C 19,4 C 67 % 1010,1 hPa 0,0 l/m 8,3 km/h (2 Bft) W 259 0 min 0,000 mm 2,6 UV-I 364 W/m 13,8 C 19,3 C 16,1 km/h (3 Bft) 92,73 %
27.07.2017 14:48 20,1 C 19,4 C 67 % 1010,1 hPa 0,0 l/m 8,7 km/h (2 Bft) W-NW 288 0 min 0,000 mm 2,6 UV-I 354 W/m 13,8 C 19,2 C 14,5 km/h (3 Bft) 97,44 %
27.07.2017 14:50 20,1 C 19,4 C 66 % 1010,1 hPa 0,0 l/m 7,3 km/h (2 Bft) W 278 0 min 0,000 mm 2,6 UV-I 350 W/m 13,5 C 19,7 C 12,9 km/h (3 Bft) 93,62 %
27.07.2017 14:52 20,1 C 19,4 C 67 % 1010,1 hPa 0,0 l/m 2,6 km/h (1 Bft) N-NW 338 0 min 0,000 mm 2,7 UV-I 371 W/m 13,8 C 20,1 C 4,8 km/h (1 Bft) 100,00 %
27.07.2017 14:54 20,1 C 19,4 C 68 % 1010,1 hPa 0,0 l/m 4,1 km/h (1 Bft) W 259 0 min 0,000 mm 2,7 UV-I 382 W/m 14,0 C 20,1 C 9,7 km/h (2 Bft) 96,00 %
27.07.2017 14:56 20,2 C 19,4 C 69 % 1010,0 hPa 0,0 l/m 5,8 km/h (2 Bft) SW 233 0 min 0,000 mm 2,6 UV-I 372 W/m 14,3 C 20,2 C 9,7 km/h (2 Bft) 98,00 %
27.07.2017 14:58 20,3 C 19,4 C 68 % 1010,0 hPa 0,0 l/m 9,3 km/h (2 Bft) W-SW 252 0 min 0,000 mm 2,6 UV-I 370 W/m 14,2 C 19,2 C 16,1 km/h (3 Bft) 100,00 %
27.07.2017 15:00 20,3 C 19,4 C 67 % 1010,0 hPa 0,0 l/m 7,7 km/h (2 Bft) S-SW 205 0 min 0,254 mm 2,6 UV-I 379 W/m 14,0 C 19,8 C 16,1 km/h (3 Bft) 97,56 %
27.07.2017 15:02 20,3 C 19,4 C 67 % 1010,0 hPa 0,0 l/m 5,9 km/h (2 Bft) W 259 0 min 0,000 mm 2,6 UV-I 383 W/m 14,0 C 20,3 C 16,1 km/h (3 Bft) 98,00 %
27.07.2017 15:04 20,4 C 19,4 C 67 % 1010,1 hPa 0,0 l/m 1,8 km/h (1 Bft) W 261 0 min 0,000 mm 2,6 UV-I 383 W/m 14,1 C 20,4 C 3,2 km/h (1 Bft) 100,00 %
27.07.2017 15:06 20,4 C 19,4 C 69 % 1010,1 hPa 0,0 l/m 3,0 km/h (1 Bft) W-NW 290 0 min 0,000 mm 2,6 UV-I 396 W/m 14,5 C 20,4 C 6,4 km/h (2 Bft) 96,00 %
27.07.2017 15:08 20,4 C 19,4 C 68 % 1010,1 hPa 0,0 l/m 4,7 km/h (1 Bft) W-SW 252 0 min 0,000 mm 2,6 UV-I 399 W/m 14,3 C 20,4 C 6,4 km/h (2 Bft) 100,00 %
27.07.2017 15:10 20,3 C 19,4 C 66 % 1010,1 hPa 0,0 l/m 6,7 km/h (2 Bft) SW 228 0 min 0,000 mm 2,6 UV-I 390 W/m 13,7 C 20,2 C 12,9 km/h (3 Bft) 100,00 %
27.07.2017 15:12 20,3 C 19,4 C 67 % 1010,0 hPa 0,0 l/m 3,7 km/h (1 Bft) W-NW 292 0 min 0,000 mm 2,5 UV-I 375 W/m 14,0 C 20,3 C 11,3 km/h (2 Bft) 95,45 %
27.07.2017 15:14 20,3 C 19,4 C 67 % 1010,0 hPa 0,0 l/m 8,8 km/h (2 Bft) W-SW 241 0 min 0,000 mm 2,2 UV-I 338 W/m 14,0 C 19,4 C 12,9 km/h (3 Bft) 95,24 %
27.07.2017 15:16 20,3 C 19,4 C 69 % 1009,9 hPa 0,0 l/m 6,0 km/h (2 Bft) W-SW 248 0 min 0,000 mm 2,2 UV-I 326 W/m 14,4 C 20,3 C 11,3 km/h (2 Bft) 94,23 %
27.07.2017 15:18 20,3 C 19,4 C 68 % 1009,9 hPa 0,0 l/m 3,9 km/h (1 Bft) W-NW 284 0 min 0,000 mm 2,2 UV-I 342 W/m 14,2 C 20,3 C 6,4 km/h (2 Bft) 98,11 %
27.07.2017 15:20 20,3 C 19,4 C 70 % 1009,9 hPa 0,0 l/m 3,6 km/h (1 Bft) W-NW 290 0 min 0,000 mm 2,4 UV-I 356 W/m 14,6 C 20,3 C 6,4 km/h (2 Bft) 98,00 %
27.07.2017 15:22 20,2 C 19,4 C 69 % 1009,9 hPa 0,0 l/m 5,2 km/h (1 Bft) NW 322 0 min 0,000 mm 2,4 UV-I 355 W/m 14,3 C 20,2 C 11,3 km/h (2 Bft) 94,87 %
27.07.2017 15:24 20,3 C 19,4 C 70 % 1009,9 hPa 0,0 l/m 2,8 km/h (1 Bft) NW 313 0 min 0,000 mm 2,3 UV-I 345 W/m 14,6 C 20,3 C 6,4 km/h (2 Bft) 97,56 %
27.07.2017 15:26 20,4 C 19,4 C 71 % 1009,9 hPa 0,0 l/m 1,5 km/h (1 Bft) NW 308 0 min 0,000 mm 2,1 UV-I 320 W/m 15,0 C 20,4 C 4,8 km/h (1 Bft) 96,43 %
27.07.2017 15:28 20,4 C 19,4 C 69 % 1009,9 hPa 0,0 l/m 2,8 km/h (1 Bft) W-NW 282 0 min 0,000 mm 2,0 UV-I 295 W/m 14,5 C 20,4 C 6,4 km/h (2 Bft) 96,00 %
27.07.2017 15:30 20,3 C 19,4 C 70 % 1009,9 hPa 0,0 l/m 2,6 km/h (1 Bft) W-NW 303 0 min 0,000 mm 1,9 UV-I 278 W/m 14,6 C 20,3 C 4,8 km/h (1 Bft) 95,74 %
27.07.2017 15:32 20,3 C 19,4 C 69 % 1009,9 hPa 0,0 l/m 1,8 km/h (1 Bft) SW 231 0 min 0,000 mm 1,7 UV-I 256 W/m 14,4 C 20,3 C 4,8 km/h (1 Bft) 97,62 %
27.07.2017 15:34 20,2 C 19,4 C 69 % 1009,9 hPa 0,0 l/m 4,1 km/h (1 Bft) NW 319 0 min 0,000 mm 1,4 UV-I 222 W/m 14,3 C 20,2 C 12,9 km/h (3 Bft) 96,23 %
27.07.2017 15:36 20,1 C 19,4 C 70 % 1010,0 hPa 0,0 l/m 3,4 km/h (1 Bft) W-NW 292 0 min 0,000 mm 1,2 UV-I 174 W/m 14,5 C 20,1 C 6,4 km/h (2 Bft) 95,45 %
27.07.2017 15:38 19,9 C 19,4 C 69 % 1010,1 hPa 0,0 l/m 4,1 km/h (1 Bft) W 264 0 min 0,000 mm 0,9 UV-I 144 W/m 14,0 C 19,9 C 11,3 km/h (2 Bft) 97,73 %
27.07.2017 15:40 19,8 C 19,4 C 70 % 1010,0 hPa 0,0 l/m 5,3 km/h (1 Bft) W 261 0 min 0,000 mm 0,9 UV-I 131 W/m 14,2 C 19,8 C 11,3 km/h (2 Bft) 93,62 %
27.07.2017 15:42 19,7 C 19,4 C 71 % 1010,1 hPa 0,0 l/m 1,6 km/h (1 Bft) W 279 0 min 0,000 mm 0,8 UV-I 122 W/m 14,3 C 19,7 C 8,0 km/h (2 Bft) 95,12 %
27.07.2017 15:44 19,7 C 19,4 C 73 % 1010,2 hPa 0,0 l/m 3,6 km/h (1 Bft) W 261 0 min 0,000 mm 0,8 UV-I 116 W/m 14,7 C 19,7 C 8,0 km/h (2 Bft) 100,00 %
27.07.2017 15:46 19,7 C 19,4 C 71 % 1010,2 hPa 0,0 l/m 4,6 km/h (1 Bft) SW 221 0 min 0,000 mm 0,7 UV-I 106 W/m 14,3 C 19,7 C 9,7 km/h (2 Bft) 100,00 %
27.07.2017 15:48 19,6 C 19,4 C 72 % 1010,3 hPa 0,0 l/m 6,1 km/h (2 Bft) W-NW 299 0 min 0,000 mm 0,7 UV-I 108 W/m 14,4 C 19,6 C 14,5 km/h (3 Bft) 96,00 %
27.07.2017 15:50 19,6 C 19,4 C 72 % 1010,3 hPa 0,0 l/m 8,8 km/h (2 Bft) W-NW 296 0 min 0,000 mm 0,7 UV-I 115 W/m 14,4 C 18,6 C 17,7 km/h (3 Bft) 98,00 %
27.07.2017 15:52 19,5 C 19,4 C 73 % 1010,4 hPa 0,0 l/m 7,6 km/h (2 Bft) W-SW 241 0 min 0,000 mm 0,7 UV-I 101 W/m 14,5 C 19,0 C 14,5 km/h (3 Bft) 97,37 %
27.07.2017 15:54 19,4 C 19,4 C 73 % 1010,4 hPa 0,0 l/m 7,8 km/h (2 Bft) SW 216 0 min 0,000 mm 0,6 UV-I 89 W/m 14,4 C 18,8 C 12,9 km/h (3 Bft) 100,00 %
27.07.2017 15:56 19,3 C 19,4 C 74 % 1010,5 hPa 0,0 l/m 10,2 km/h (2 Bft) W-SW 249 0 min 0,000 mm 0,6 UV-I 87 W/m 14,5 C 17,8 C 17,7 km/h (3 Bft) 95,12 %
27.07.2017 15:58 19,2 C 19,4 C 76 % 1010,6 hPa 0,0 l/m 13,6 km/h (3 Bft) SW 235 0 min 0,000 mm 0,5 UV-I 80 W/m 14,9 C 16,6 C 20,9 km/h (4 Bft) 96,23 %
27.07.2017 16:00 18,8 C 19,4 C 78 % 1010,6 hPa 0,0 l/m 12,8 km/h (3 Bft) S-SW 209 0 min 0,153 mm 0,5 UV-I 83 W/m 14,9 C 16,4 C 20,9 km/h (4 Bft) 97,62 %
27.07.2017 16:02 18,3 C 19,4 C 81 % 1010,5 hPa 0,0 l/m 12,0 km/h (2 Bft) S-SW 201 0 min 0,000 mm 0,7 UV-I 108 W/m 15,0 C 16,1 C 19,3 km/h (3 Bft) 95,74 %
27.07.2017 16:04 17,9 C 19,4 C 83 % 1010,2 hPa 0,0 l/m 6,8 km/h (2 Bft) S-SO 168 0 min 0,000 mm 0,9 UV-I 144 W/m 15,0 C 17,7 C 11,3 km/h (2 Bft) 100,00 %
27.07.2017 16:06 17,7 C 19,4 C 85 % 1010,1 hPa 0,0 l/m 7,9 km/h (2 Bft) W-SW 240 0 min 0,000 mm 1,1 UV-I 160 W/m 15,1 C 17,0 C 16,1 km/h (3 Bft) 100,00 %
27.07.2017 16:08 17,6 C 19,4 C 83 % 1010,1 hPa 0,0 l/m 7,9 km/h (2 Bft) S-SW 193 0 min 0,000 mm 1,1 UV-I 166 W/m 14,7 C 16,9 C 11,3 km/h (2 Bft) 97,56 %
27.07.2017 16:10 17,7 C 19,4 C 84 % 1010,2 hPa 0,0 l/m 10,2 km/h (2 Bft) S-SW 210 0 min 0,000 mm 1,1 UV-I 175 W/m 15,0 C 16,0 C 16,1 km/h (3 Bft) 98,00 %
27.07.2017 16:12 17,8 C 19,4 C 86 % 1010,3 hPa 0,0 l/m 5,9 km/h (2 Bft) SW 221 0 min 0,000 mm 1,1 UV-I 168 W/m 15,4 C 17,8 C 9,7 km/h (2 Bft) 97,56 %
27.07.2017 16:14 17,8 C 19,4 C 87 % 1010,2 hPa 0,0 l/m 6,0 km/h (2 Bft) S-SO 161 0 min 0,000 mm 1,0 UV-I 152 W/m 15,6 C 17,8 C 9,7 km/h (2 Bft) 94,34 %
27.07.2017 16:16 17,7 C 19,4 C 86 % 1010,2 hPa 0,0 l/m 3,0 km/h (1 Bft) S-SW 195 0 min 0,000 mm 1,0 UV-I 147 W/m 15,3 C 17,7 C 6,4 km/h (2 Bft) 92,68 %
27.07.2017 16:18 17,6 C 19,4 C 86 % 1010,2 hPa 0,0 l/m 3,4 km/h (1 Bft) S-SW 195 0 min 0,000 mm 0,9 UV-I 136 W/m 15,2 C 17,6 C 6,4 km/h (2 Bft) 94,00 %
27.07.2017 16:20 17,5 C 19,4 C 86 % 1010,2 hPa 0,0 l/m 5,6 km/h (1 Bft) S-SW 207 0 min 0,000 mm 0,8 UV-I 128 W/m 15,1 C 17,5 C 11,3 km/h (2 Bft) 87,23 %
27.07.2017 16:22 17,5 C 19,4 C 86 % 1010,1 hPa 0,0 l/m 3,6 km/h (1 Bft) S-SW 213 0 min 0,000 mm 0,8 UV-I 130 W/m 15,1 C 17,5 C 8,0 km/h (2 Bft) 93,62 %
27.07.2017 16:24 17,5 C 19,4 C 86 % 1010,1 hPa 0,0 l/m 3,9 km/h (1 Bft) S 178 0 min 0,000 mm 0,8 UV-I 135 W/m 15,1 C 17,5 C 6,4 km/h (2 Bft) 96,23 %
27.07.2017 16:26 17,6 C 19,4 C 87 % 1010,1 hPa 0,0 l/m 4,4 km/h (1 Bft) S-SW 202 0 min 0,000 mm 0,8 UV-I 134 W/m 15,4 C 17,6 C 6,4 km/h (2 Bft) 91,67 %
27.07.2017 16:28 17,7 C 19,4 C 87 % 1010,1 hPa 0,0 l/m 2,9 km/h (1 Bft) S-SW 202 0 min 0,000 mm 0,8 UV-I 127 W/m 15,5 C 17,7 C 4,8 km/h (1 Bft) 92,54 %
27.07.2017 16:30 17,7 C 19,4 C 87 % 1010,1 hPa 0,0 l/m 2,8 km/h (1 Bft) S-SW 210 0 min 0,000 mm 0,7 UV-I 126 W/m 15,5 C 17,7 C 4,8 km/h (1 Bft) 92,68 %
27.07.2017 16:32 17,7 C 19,4 C 87 % 1010,1 hPa 0,0 l/m 3,1 km/h (1 Bft) S-SW 207 0 min 0,000 mm 0,8 UV-I 135 W/m 15,5 C 17,7 C 4,8 km/h (1 Bft) 91,49 %
27.07.2017 16:34 17,8 C 19,4 C 87 % 1010,1 hPa 0,0 l/m 5,2 km/h (1 Bft) S-SW 201 0 min 0,000 mm 0,8 UV-I 151 W/m 15,6 C 17,8 C 11,3 km/h (2 Bft) 91,49 %
27.07.2017 16:36 17,8 C 19,4 C 85 % 1010,1 hPa 0,0 l/m 5,3 km/h (1 Bft) W-SW 239 0 min 0,000 mm 1,0 UV-I 171 W/m 15,2 C 17,8 C 8,0 km/h (2 Bft) 95,74 %
27.07.2017 16:38 17,8 C 19,4 C 85 % 1010,1 hPa 0,0 l/m 4,4 km/h (1 Bft) SW 228 0 min 0,000 mm 1,1 UV-I 190 W/m 15,2 C 17,8 C 6,4 km/h (2 Bft) 92,00 %
27.07.2017 16:40 17,9 C 19,4 C 84 % 1010,1 hPa 0,0 l/m 3,5 km/h (1 Bft) SW 229 0 min 0,000 mm 1,1 UV-I 191 W/m 15,2 C 17,9 C 4,8 km/h (1 Bft) 95,56 %
27.07.2017 16:42 17,9 C 19,4 C 83 % 1010,1 hPa 0,0 l/m 4,5 km/h (1 Bft) SW 219 0 min 0,000 mm 0,9 UV-I 175 W/m 15,0 C 17,9 C 8,0 km/h (2 Bft) 96,00 %
27.07.2017 16:44 17,9 C 19,4 C 83 % 1010,2 hPa 0,0 l/m 4,8 km/h (1 Bft) SW 219 0 min 0,000 mm 0,9 UV-I 165 W/m 15,0 C 17,9 C 6,4 km/h (2 Bft) 96,00 %
27.07.2017 16:46 18,0 C 19,4 C 84 % 1010,1 hPa 0,0 l/m 5,7 km/h (1 Bft) SW 215 0 min 0,000 mm 0,9 UV-I 158 W/m 15,3 C 18,0 C 8,0 km/h (2 Bft) 97,37 %
27.07.2017 16:48 18,1 C 19,4 C 83 % 1010,2 hPa 0,0 l/m 4,4 km/h (1 Bft) SW 217 0 min 0,000 mm 0,8 UV-I 151 W/m 15,2 C 18,1 C 6,4 km/h (2 Bft) 93,62 %
27.07.2017 16:50 18,1 C 19,4 C 83 % 1010,1 hPa 0,0 l/m 3,5 km/h (1 Bft) SW 217 0 min 0,000 mm 0,8 UV-I 143 W/m 15,2 C 18,1 C 4,8 km/h (1 Bft) 91,49 %
27.07.2017 16:52 18,1 C 19,4 C 83 % 1010,2 hPa 0,0 l/m 4,3 km/h (1 Bft) SW 217 0 min 0,000 mm 0,7 UV-I 133 W/m 15,2 C 18,1 C 6,4 km/h (2 Bft) 95,74 %
27.07.2017 16:54 18,2 C 19,4 C 83 % 1010,1 hPa 0,0 l/m 3,9 km/h (1 Bft) SW 229 0 min 0,000 mm 0,7 UV-I 127 W/m 15,3 C 18,2 C 6,4 km/h (2 Bft) 95,45 %
27.07.2017 16:56 18,2 C 19,4 C 83 % 1010,2 hPa 0,0 l/m 4,7 km/h (1 Bft) W-SW 250 0 min 0,000 mm 0,7 UV-I 127 W/m 15,3 C 18,2 C 6,4 km/h (2 Bft) 98,00 %
27.07.2017 16:58 18,3 C 19,4 C 82 % 1010,1 hPa 0,0 l/m 4,5 km/h (1 Bft) W-SW 242 0 min 0,000 mm 0,7 UV-I 130 W/m 15,2 C 18,3 C 6,4 km/h (2 Bft) 96,00 %
27.07.2017 17:00 18,3 C 19,4 C 83 % 1010,1 hPa 0,0 l/m 3,8 km/h (1 Bft) W-SW 256 0 min 0,101 mm 0,7 UV-I 138 W/m 15,4 C 18,3 C 6,4 km/h (2 Bft) 98,00 %
27.07.2017 17:02 18,4 C 19,4 C 83 % 1010,2 hPa 0,0 l/m 6,4 km/h (2 Bft) W-SW 250 0 min 0,000 mm 0,7 UV-I 141 W/m 15,5 C 18,4 C 11,3 km/h (2 Bft) 95,74 %
27.07.2017 17:04 18,4 C 19,4 C 82 % 1010,1 hPa 0,0 l/m 5,8 km/h (2 Bft) NW 325 0 min 0,000 mm 0,7 UV-I 133 W/m 15,3 C 18,4 C 17,7 km/h (3 Bft) 96,15 %
27.07.2017 17:06 18,5 C 19,4 C 80 % 1010,2 hPa 0,0 l/m 8,7 km/h (2 Bft) W 276 0 min 0,000 mm 0,6 UV-I 127 W/m 15,0 C 17,5 C 12,9 km/h (3 Bft) 98,46 %
27.07.2017 17:08 18,5 C 19,4 C 81 % 1010,2 hPa 0,0 l/m 5,4 km/h (1 Bft) SW 229 0 min 0,000 mm 0,6 UV-I 125 W/m 15,2 C 18,5 C 8,0 km/h (2 Bft) 97,87 %
27.07.2017 17:10 18,6 C 19,4 C 79 % 1010,2 hPa 0,0 l/m 6,2 km/h (2 Bft) W-SW 243 0 min 0,000 mm 0,6 UV-I 125 W/m 14,9 C 18,6 C 9,7 km/h (2 Bft) 97,56 %
27.07.2017 17:12 18,6 C 19,4 C 80 % 1010,2 hPa 0,0 l/m 6,9 km/h (2 Bft) SW 223 0 min 0,000 mm 0,6 UV-I 127 W/m 15,1 C 18,4 C 11,3 km/h (2 Bft) 96,00 %
27.07.2017 17:14 18,6 C 19,4 C 78 % 1010,2 hPa 0,0 l/m 10,0 km/h (2 Bft) W-SW 244 0 min 0,000 mm 0,6 UV-I 129 W/m 14,7 C 17,1 C 16,1 km/h (3 Bft) 96,15 %
27.07.2017 17:16 18,7 C 19,4 C 78 % 1010,2 hPa 0,0 l/m 10,0 km/h (2 Bft) W-SW 240 0 min 0,000 mm 0,6 UV-I 124 W/m 14,8 C 17,2 C 19,3 km/h (3 Bft) 97,22 %
27.07.2017 17:18 18,7 C 19,4 C 77 % 1010,2 hPa 0,0 l/m 6,4 km/h (2 Bft) W-SW 251 0 min 0,000 mm 0,6 UV-I 116 W/m 14,6 C 18,7 C 11,3 km/h (2 Bft) 96,00 %
27.07.2017 17:20 18,7 C 19,4 C 79 % 1010,2 hPa 0,0 l/m 6,6 km/h (2 Bft) W 279 0 min 0,000 mm 0,5 UV-I 113 W/m 15,0 C 18,6 C 16,1 km/h (3 Bft) 97,87 %
27.07.2017 17:22 18,7 C 19,4 C 77 % 1010,1 hPa 0,0 l/m 11,0 km/h (2 Bft) W-SW 250 0 min 0,000 mm 0,5 UV-I 113 W/m 14,6 C 16,9 C 17,7 km/h (3 Bft) 97,73 %
27.07.2017 17:24 18,7 C 19,4 C 76 % 1010,1 hPa 0,0 l/m 7,6 km/h (2 Bft) W-SW 242 0 min 0,000 mm 0,5 UV-I 122 W/m 14,4 C 18,2 C 14,5 km/h (3 Bft) 100,00 %
27.07.2017 17:26 18,6 C 19,4 C 74 % 1010,1 hPa 0,0 l/m 11,0 km/h (2 Bft) W 261 0 min 0,000 mm 0,6 UV-I 140 W/m 13,9 C 16,7 C 17,7 km/h (3 Bft) 100,00 %
27.07.2017 17:28 18,6 C 19,4 C 75 % 1010,0 hPa 0,0 l/m 10,1 km/h (2 Bft) W-SW 239 0 min 0,000 mm 0,7 UV-I 161 W/m 14,1 C 17,1 C 16,1 km/h (3 Bft) 100,00 %
27.07.2017 17:30 18,6 C 19,4 C 75 % 1010,0 hPa 0,0 l/m 7,3 km/h (2 Bft) W-SW 238 0 min 0,000 mm 0,7 UV-I 166 W/m 14,1 C 18,2 C 16,1 km/h (3 Bft) 100,00 %
27.07.2017 17:32 18,6 C 19,4 C 75 % 1010,1 hPa 0,0 l/m 8,5 km/h (2 Bft) W-SW 255 0 min 0,000 mm 0,7 UV-I 159 W/m 14,1 C 17,7 C 14,5 km/h (3 Bft) 98,00 %
27.07.2017 17:34 18,6 C 19,4 C 75 % 1010,1 hPa 0,0 l/m 8,7 km/h (2 Bft) W-NW 282 0 min 0,000 mm 0,6 UV-I 138 W/m 14,1 C 17,6 C 14,5 km/h (3 Bft) 100,00 %
27.07.2017 17:36 18,5 C 19,4 C 76 % 1010,1 hPa 0,0 l/m 6,2 km/h (2 Bft) W-SW 248 0 min 0,000 mm 0,3 UV-I 108 W/m 14,2 C 18,5 C 11,3 km/h (2 Bft) 100,00 %
27.07.2017 17:38 18,4 C 19,4 C 76 % 1010,1 hPa 0,0 l/m 6,3 km/h (2 Bft) W 261 0 min 0,000 mm 0,0 UV-I 98 W/m 14,1 C 18,4 C 11,3 km/h (2 Bft) 100,00 %
27.07.2017 17:40 18,4 C 19,4 C 76 % 1010,2 hPa 0,0 l/m 7,3 km/h (2 Bft) W 277 0 min 0,000 mm 0,1 UV-I 104 W/m 14,1 C 18,0 C 14,5 km/h (3 Bft) 98,11 %
27.07.2017 17:42 18,3 C 19,4 C 76 % 1010,1 hPa 0,0 l/m 10,2 km/h (2 Bft) W-NW 298 0 min 0,000 mm 0,5 UV-I 112 W/m 14,0 C 16,7 C 19,3 km/h (3 Bft) 100,00 %
27.07.2017 17:44 18,3 C 19,4 C 76 % 1010,2 hPa 0,0 l/m 6,6 km/h (2 Bft) W-SW 244 0 min 0,000 mm 0,5 UV-I 119 W/m 14,0 C 18,2 C 16,1 km/h (3 Bft) 100,00 %
27.07.2017 17:46 18,3 C 19,4 C 76 % 1010,2 hPa 0,0 l/m 6,1 km/h (2 Bft) W-SW 253 0 min 0,000 mm 0,5 UV-I 124 W/m 14,0 C 18,3 C 11,3 km/h (2 Bft) 97,37 %
27.07.2017 17:48 18,3 C 19,4 C 77 % 1010,2 hPa 0,0 l/m 6,4 km/h (2 Bft) SW 225 0 min 0,000 mm 0,5 UV-I 125 W/m 14,2 C 18,3 C 12,9 km/h (3 Bft) 100,00 %
27.07.2017 17:50 18,3 C 19,4 C 77 % 1010,2 hPa 0,0 l/m 8,0 km/h (2 Bft) W-SW 246 0 min 0,000 mm 0,5 UV-I 125 W/m 14,2 C 17,6 C 14,5 km/h (3 Bft) 100,00 %
27.07.2017 17:52 18,3 C 19,4 C 76 % 1010,2 hPa 0,0 l/m 12,6 km/h (3 Bft) NW 304 0 min 0,000 mm 0,5 UV-I 127 W/m 14,0 C 15,9 C 17,7 km/h (3 Bft) 100,00 %
27.07.2017 17:54 18,3 C 19,4 C 76 % 1010,2 hPa 0,0 l/m 10,3 km/h (2 Bft) W-NW 292 0 min 0,000 mm 0,5 UV-I 122 W/m 14,0 C 16,7 C 19,3 km/h (3 Bft) 100,00 %
27.07.2017 17:56 18,2 C 19,4 C 75 % 1010,2 hPa 0,0 l/m 16,5 km/h (3 Bft) W 261 0 min 0,000 mm 0,3 UV-I 111 W/m 13,7 C 14,7 C 25,7 km/h (4 Bft) 100,00 %
27.07.2017 17:58 18,2 C 19,4 C 76 % 1010,2 hPa 0,0 l/m 12,3 km/h (3 Bft) W 261 0 min 0,000 mm 0,0 UV-I 95 W/m 13,9 C 15,9 C 27,4 km/h (4 Bft) 100,00 %
27.07.2017 18:00 18,2 C 19,4 C 75 % 1010,3 hPa 0,0 l/m 16,4 km/h (3 Bft) SW 234 0 min 0,000 mm 0,0 UV-I 84 W/m 13,7 C 14,7 C 22,5 km/h (4 Bft) 100,00 %
27.07.2017 18:02 18,2 C 19,4 C 75 % 1010,2 hPa 0,0 l/m 10,5 km/h (2 Bft) W-SW 243 0 min 0,102 mm 0,0 UV-I 84 W/m 13,7 C 16,5 C 16,1 km/h (3 Bft) 100,00 %
27.07.2017 18:04 18,1 C 19,4 C 76 % 1010,2 hPa 0,0 l/m 10,7 km/h (2 Bft) W-SW 237 0 min 0,000 mm 0,0 UV-I 83 W/m 13,8 C 16,3 C 19,3 km/h (3 Bft) 100,00 %
27.07.2017 18:06 18,1 C 19,4 C 75 % 1010,3 hPa 0,0 l/m 12,2 km/h (2 Bft) NW 309 0 min 0,000 mm 0,0 UV-I 78 W/m 13,6 C 15,8 C 17,7 km/h (3 Bft) 98,11 %
27.07.2017 18:08 18,1 C 19,4 C 76 % 1010,2 hPa 0,0 l/m 10,4 km/h (2 Bft) S-SW 207 0 min 0,000 mm 0,0 UV-I 77 W/m 13,8 C 16,4 C 20,9 km/h (4 Bft) 94,74 %
27.07.2017 18:10 18,0 C 19,4 C 75 % 1010,2 hPa 0,0 l/m 14,6 km/h (3 Bft) S-SW 205 0 min 0,000 mm 0,0 UV-I 82 W/m 13,5 C 14,9 C 22,5 km/h (4 Bft) 98,11 %
27.07.2017 18:13 17,9 C 19,4 C 76 % 1010,3 hPa 0,0 l/m 16,0 km/h (3 Bft) W-SW 258 0 min 0,000 mm 0,0 UV-I 84 W/m 13,6 C 14,4 C 27,4 km/h (4 Bft) 94,29 %
27.07.2017 18:14 17,9 C 19,4 C 76 % 1010,3 hPa 0,0 l/m 19,3 km/h (3 Bft) W 261 0 min 0,000 mm 0,0 UV-I 89 W/m 13,6 C 13,6 C 27,4 km/h (4 Bft) 96,30 %
27.07.2017 18:16 17,8 C 19,4 C 75 % 1010,3 hPa 0,0 l/m 19,8 km/h (3 Bft) W 261 0 min 0,000 mm 0,0 UV-I 95 W/m 13,3 C 13,4 C 33,8 km/h (5 Bft) 94,74 %
27.07.2017 18:18 17,8 C 19,4 C 76 % 1010,3 hPa 0,0 l/m 19,0 km/h (3 Bft) W 259 0 min 0,000 mm 0,0 UV-I 104 W/m 13,5 C 13,6 C 27,4 km/h (4 Bft) 98,00 %
27.07.2017 18:20 17,7 C 19,4 C 77 % 1010,3 hPa 0,0 l/m 12,8 km/h (3 Bft) W-NW 296 0 min 0,000 mm 0,0 UV-I 111 W/m 13,6 C 15,1 C 17,7 km/h (3 Bft) 95,12 %
27.07.2017 18:22 17,7 C 19,4 C 77 % 1010,3 hPa 0,0 l/m 13,0 km/h (3 Bft) W-SW 252 0 min 0,000 mm 0,0 UV-I 102 W/m 13,6 C 15,1 C 19,3 km/h (3 Bft) 91,07 %
27.07.2017 18:24 17,6 C 19,4 C 78 % 1010,3 hPa 0,0 l/m 15,0 km/h (3 Bft) W 272 0 min 0,000 mm 0,0 UV-I 87 W/m 13,7 C 14,3 C 19,3 km/h (3 Bft) 94,00 %
27.07.2017 18:26 17,6 C 19,4 C 78 % 1010,3 hPa 0,0 l/m 10,1 km/h (2 Bft) W-SW 252 0 min 0,000 mm 0,0 UV-I 77 W/m 13,7 C 16,0 C 14,5 km/h (3 Bft) 96,30 %
27.07.2017 18:28 17,6 C 19,4 C 78 % 1010,4 hPa 0,0 l/m 14,1 km/h (3 Bft) SW 236 0 min 0,000 mm 0,0 UV-I 74 W/m 13,7 C 14,6 C 19,3 km/h (3 Bft) 93,44 %
27.07.2017 18:30 17,6 C 19,4 C 78 % 1010,3 hPa 0,0 l/m 16,7 km/h (3 Bft) SW 235 0 min 0,000 mm 0,0 UV-I 74 W/m 13,7 C 13,9 C 20,9 km/h (4 Bft) 89,36 %
27.07.2017 18:32 17,5 C 19,4 C 79 % 1010,3 hPa 0,0 l/m 13,9 km/h (3 Bft) W-SW 257 0 min 0,000 mm 0,0 UV-I 77 W/m 13,8 C 14,5 C 22,5 km/h (4 Bft) 90,24 %
27.07.2017 18:34 17,5 C 19,4 C 79 % 1010,3 hPa 0,0 l/m 10,4 km/h (2 Bft) SW 236 0 min 0,000 mm 0,0 UV-I 80 W/m 13,8 C 15,7 C 19,3 km/h (3 Bft) 96,23 %
27.07.2017 18:36 17,5 C 19,4 C 79 % 1010,3 hPa 0,0 l/m 12,0 km/h (2 Bft) W-SW 248 0 min 0,000 mm 0,0 UV-I 77 W/m 13,8 C 15,2 C 20,9 km/h (4 Bft) 88,10 %
27.07.2017 18:38 17,5 C 19,4 C 79 % 1010,3 hPa 0,0 l/m 12,6 km/h (3 Bft) W-SW 252 0 min 0,000 mm 0,0 UV-I 73 W/m 13,8 C 15,0 C 20,9 km/h (4 Bft) 96,15 %
27.07.2017 18:40 17,4 C 19,4 C 80 % 1010,3 hPa 0,0 l/m 12,9 km/h (3 Bft) W 266 0 min 0,000 mm 0,0 UV-I 68 W/m 13,9 C 14,7 C 22,5 km/h (4 Bft) 95,24 %
27.07.2017 18:42 17,4 C 19,4 C 80 % 1010,3 hPa 0,0 l/m 13,3 km/h (3 Bft) S-SW 213 0 min 0,000 mm 0,0 UV-I 65 W/m 13,9 C 14,6 C 22,5 km/h (4 Bft) 95,74 %
27.07.2017 18:44 17,4 C 19,4 C 80 % 1010,2 hPa 0,0 l/m 9,1 km/h (2 Bft) W-SW 249 0 min 0,000 mm 0,0 UV-I 65 W/m 13,9 C 16,1 C 12,9 km/h (3 Bft) 97,87 %
27.07.2017 18:46 17,4 C 19,4 C 80 % 1010,3 hPa 0,0 l/m 15,0 km/h (3 Bft) W-SW 248 0 min 0,000 mm 0,0 UV-I 66 W/m 13,9 C 14,1 C 22,5 km/h (4 Bft) 98,00 %
27.07.2017 18:48 17,4 C 19,4 C 80 % 1010,2 hPa 0,0 l/m 12,6 km/h (3 Bft) W-SW 243 0 min 0,000 mm 0,0 UV-I 63 W/m 13,9 C 14,8 C 22,5 km/h (4 Bft) 96,00 %
27.07.2017 18:50 17,3 C 19,4 C 81 % 1010,3 hPa 0,0 l/m 9,7 km/h (2 Bft) SW 232 0 min 0,000 mm 0,0 UV-I 57 W/m 14,0 C 15,8 C 16,1 km/h (3 Bft) 100,00 %
27.07.2017 18:52 17,3 C 19,4 C 81 % 1010,3 hPa 0,0 l/m 13,8 km/h (3 Bft) W 262 0 min 0,000 mm 0,0 UV-I 54 W/m 14,0 C 14,3 C 19,3 km/h (3 Bft) 98,21 %
27.07.2017 18:54 17,3 C 19,4 C 81 % 1010,3 hPa 0,0 l/m 9,5 km/h (2 Bft) SW 228 0 min 0,000 mm 0,0 UV-I 53 W/m 14,0 C 15,9 C 16,1 km/h (3 Bft) 97,37 %
27.07.2017 18:56 17,3 C 19,4 C 82 % 1010,3 hPa 0,0 l/m 10,3 km/h (2 Bft) S-SW 211 0 min 0,000 mm 0,0 UV-I 52 W/m 14,2 C 15,5 C 16,1 km/h (3 Bft) 97,56 %
27.07.2017 18:58 17,2 C 19,4 C 82 % 1010,2 hPa 0,0 l/m 8,6 km/h (2 Bft) SW 222 0 min 0,000 mm 0,0 UV-I 49 W/m 14,1 C 16,1 C 14,5 km/h (3 Bft) 100,00 %
27.07.2017 19:00 17,2 C 19,4 C 82 % 1010,3 hPa 0,0 l/m 8,3 km/h (2 Bft) W-SW 240 0 min 0,076 mm 0,0 UV-I 49 W/m 14,1 C 16,3 C 14,5 km/h (3 Bft) 100,00 %
27.07.2017 19:02 17,2 C 19,4 C 83 % 1010,2 hPa 0,0 l/m 10,9 km/h (2 Bft) SW 227 0 min 0,000 mm 0,0 UV-I 57 W/m 14,3 C 15,2 C 17,7 km/h (3 Bft) 98,31 %
27.07.2017 19:04 17,2 C 19,4 C 83 % 1010,2 hPa 0,0 l/m 9,3 km/h (2 Bft) W-SW 240 0 min 0,000 mm 0,0 UV-I 68 W/m 14,3 C 15,8 C 14,5 km/h (3 Bft) 92,68 %
27.07.2017 19:06 17,1 C 19,4 C 83 % 1010,2 hPa 0,0 l/m 9,8 km/h (2 Bft) SW 229 0 min 0,000 mm 0,0 UV-I 85 W/m 14,2 C 15,5 C 16,1 km/h (3 Bft) 96,23 %
27.07.2017 19:08 17,1 C 19,4 C 83 % 1010,1 hPa 0,0 l/m 9,5 km/h (2 Bft) SW 236 0 min 0,000 mm 0,0 UV-I 107 W/m 14,2 C 15,6 C 14,5 km/h (3 Bft) 97,56 %
27.07.2017 19:10 17,2 C 19,4 C 84 % 1010,1 hPa 0,0 l/m 6,8 km/h (2 Bft) S-SW 209 0 min 0,000 mm 0,0 UV-I 131 W/m 14,5 C 17,0 C 11,3 km/h (2 Bft) 98,11 %
27.07.2017 19:12 17,2 C 19,4 C 84 % 1010,1 hPa 0,0 l/m 10,9 km/h (2 Bft) W-SW 253 2 min 0,000 mm 0,0 UV-I 146 W/m 14,5 C 15,2 C 16,1 km/h (3 Bft) 92,11 %
27.07.2017 19:14 17,3 C 19,4 C 84 % 1010,1 hPa 0,0 l/m 11,5 km/h (2 Bft) W-SW 255 2 min 0,000 mm 0,0 UV-I 137 W/m 14,6 C 15,1 C 17,7 km/h (3 Bft) 100,00 %
27.07.2017 19:16 17,3 C 19,4 C 83 % 1010,1 hPa 0,0 l/m 13,6 km/h (3 Bft) W-SW 237 0 min 0,000 mm 0,0 UV-I 117 W/m 14,4 C 14,4 C 20,9 km/h (4 Bft) 100,00 %
27.07.2017 19:18 17,3 C 19,4 C 83 % 1010,0 hPa 0,0 l/m 13,4 km/h (3 Bft) W 261 0 min 0,000 mm 0,0 UV-I 111 W/m 14,4 C 14,5 C 19,3 km/h (3 Bft) 98,08 %
27.07.2017 19:20 17,3 C 19,4 C 83 % 1010,0 hPa 0,0 l/m 12,4 km/h (3 Bft) SW 221 2 min 0,000 mm 0,0 UV-I 119 W/m 14,4 C 14,8 C 20,9 km/h (4 Bft) 100,00 %
27.07.2017 19:22 17,3 C 19,4 C 83 % 1009,9 hPa 0,0 l/m 8,9 km/h (2 Bft) W 267 2 min 0,000 mm 0,0 UV-I 124 W/m 14,4 C 16,1 C 19,3 km/h (3 Bft) 100,00 %
27.07.2017 19:24 17,3 C 19,4 C 83 % 1010,0 hPa 0,0 l/m 10,8 km/h (2 Bft) SW 232 2 min 0,000 mm 0,0 UV-I 113 W/m 14,4 C 15,4 C 22,5 km/h (4 Bft) 97,37 %
27.07.2017 19:26 17,3 C 19,4 C 83 % 1010,0 hPa 0,0 l/m 9,0 km/h (2 Bft) W-SW 250 0 min 0,000 mm 0,0 UV-I 99 W/m 14,4 C 16,1 C 19,3 km/h (3 Bft) 98,00 %
27.07.2017 19:28 17,4 C 19,4 C 83 % 1009,9 hPa 0,0 l/m 8,2 km/h (2 Bft) W-SW 240 2 min 0,000 mm 0,0 UV-I 110 W/m 14,5 C 16,5 C 12,9 km/h (3 Bft) 98,00 %
27.07.2017 19:30 17,4 C 19,4 C 83 % 1009,9 hPa 0,0 l/m 6,8 km/h (2 Bft) SW 234 2 min 0,000 mm 0,0 UV-I 136 W/m 14,5 C 17,2 C 14,5 km/h (3 Bft) 100,00 %
27.07.2017 19:32 17,4 C 19,4 C 83 % 1009,8 hPa 0,0 l/m 10,7 km/h (2 Bft) SW 234 2 min 0,000 mm 0,0 UV-I 129 W/m 14,5 C 15,5 C 17,7 km/h (3 Bft) 94,34 %
27.07.2017 19:34 17,4 C 19,4 C 83 % 1009,8 hPa 0,0 l/m 11,7 km/h (2 Bft) SW 232 0 min 0,000 mm 0,0 UV-I 95 W/m 14,5 C 15,1 C 17,7 km/h (3 Bft) 98,11 %
27.07.2017 19:36 17,4 C 19,4 C 83 % 1009,9 hPa 0,0 l/m 9,0 km/h (2 Bft) SW 217 0 min 0,000 mm 0,0 UV-I 91 W/m 14,5 C 16,2 C 14,5 km/h (3 Bft) 95,45 %
27.07.2017 19:38 17,4 C 19,4 C 83 % 1009,9 hPa 0,0 l/m 10,1 km/h (2 Bft) SW 236 0 min 0,000 mm 0,0 UV-I 87 W/m 14,5 C 15,7 C 16,1 km/h (3 Bft) 97,73 %
27.07.2017 19:40 17,4 C 19,4 C 83 % 1010,0 hPa 0,0 l/m 11,9 km/h (2 Bft) W 259 0 min 0,000 mm 0,0 UV-I 76 W/m 14,5 C 15,1 C 19,3 km/h (3 Bft) 98,11 %
27.07.2017 19:42 17,3 C 19,4 C 84 % 1010,0 hPa 0,0 l/m 12,2 km/h (2 Bft) W-SW 244 0 min 0,000 mm 0,0 UV-I 58 W/m 14,6 C 14,9 C 19,3 km/h (3 Bft) 94,74 %
27.07.2017 19:44 17,3 C 19,4 C 83 % 1010,1 hPa 0,0 l/m 10,1 km/h (2 Bft) W-SW 253 0 min 0,000 mm 0,0 UV-I 49 W/m 14,4 C 15,6 C 16,1 km/h (3 Bft) 100,00 %
27.07.2017 19:46 17,3 C 19,4 C 84 % 1010,0 hPa 0,0 l/m 9,6 km/h (2 Bft) S 190 0 min 0,000 mm 0,0 UV-I 45 W/m 14,6 C 15,8 C 16,1 km/h (3 Bft) 94,00 %
27.07.2017 19:48 17,3 C 19,4 C 84 % 1010,0 hPa 0,0 l/m 8,0 km/h (2 Bft) W-SW 240 0 min 0,000 mm 0,0 UV-I 42 W/m 14,6 C 16,5 C 14,5 km/h (3 Bft) 100,00 %
27.07.2017 19:50 17,3 C 19,4 C 84 % 1010,1 hPa 0,0 l/m 8,6 km/h (2 Bft) W-SW 242 0 min 0,000 mm 0,0 UV-I 39 W/m 14,6 C 16,2 C 12,9 km/h (3 Bft) 100,00 %
27.07.2017 19:52 17,2 C 19,4 C 85 % 1010,1 hPa 0,0 l/m 7,2 km/h (2 Bft) W-SW 256 0 min 0,000 mm 0,0 UV-I 34 W/m 14,7 C 16,8 C 12,9 km/h (3 Bft) 98,11 %
27.07.2017 19:54 17,2 C 19,4 C 85 % 1010,1 hPa 0,0 l/m 8,8 km/h (2 Bft) W-SW 243 0 min 0,000 mm 0,0 UV-I 32 W/m 14,7 C 16,0 C 12,9 km/h (3 Bft) 97,44 %
27.07.2017 19:56 17,2 C 19,4 C 84 % 1010,0 hPa 0,0 l/m 10,3 km/h (2 Bft) W-SW 242 0 min 0,000 mm 0,0 UV-I 26 W/m 14,5 C 15,4 C 16,1 km/h (3 Bft) 100,00 %
27.07.2017 19:58 17,2 C 19,4 C 84 % 1010,1 hPa 0,0 l/m 10,9 km/h (2 Bft) W-SW 241 0 min 0,000 mm 0,0 UV-I 22 W/m 14,5 C 15,2 C 16,1 km/h (3 Bft) 98,08 %
27.07.2017 20:00 17,2 C 19,4 C 84 % 1010,1 hPa 0,0 l/m 6,4 km/h (2 Bft) W-SW 238 0 min 0,076 mm 0,0 UV-I 20 W/m 14,5 C 17,2 C 9,7 km/h (2 Bft) 100,00 %
27.07.2017 20:02 17,2 C 19,4 C 85 % 1010,2 hPa 0,0 l/m 8,6 km/h (2 Bft) SW 228 0 min 0,000 mm 0,0 UV-I 20 W/m 14,7 C 16,1 C 14,5 km/h (3 Bft) 100,00 %
27.07.2017 20:04 17,1 C 19,4 C 85 % 1010,2 hPa 0,0 l/m 7,6 km/h (2 Bft) W-SW 250 0 min 0,000 mm 0,0 UV-I 20 W/m 14,6 C 16,5 C 14,5 km/h (3 Bft) 98,21 %
27.07.2017 20:06 17,1 C 19,4 C 85 % 1010,2 hPa 0,0 l/m 8,5 km/h (2 Bft) W 259 0 min 0,000 mm 0,0 UV-I 22 W/m 14,6 C 16,1 C 14,5 km/h (3 Bft) 96,00 %
27.07.2017 20:08 17,1 C 19,4 C 85 % 1010,3 hPa 0,0 l/m 5,1 km/h (1 Bft) W-SW 244 0 min 0,000 mm 0,0 UV-I 25 W/m 14,6 C 17,1 C 9,7 km/h (2 Bft) 97,56 %
27.07.2017 20:10 17,1 C 19,4 C 85 % 1010,2 hPa 0,0 l/m 6,7 km/h (2 Bft) W-SW 242 0 min 0,000 mm 0,0 UV-I 33 W/m 14,6 C 17,0 C 12,9 km/h (3 Bft) 95,74 %
27.07.2017 20:12 17,1 C 19,4 C 85 % 1010,2 hPa 0,0 l/m 7,6 km/h (2 Bft) W-SW 253 0 min 0,000 mm 0,0 UV-I 36 W/m 14,6 C 16,5 C 12,9 km/h (3 Bft) 97,73 %
27.07.2017 20:14 17,1 C 19,4 C 85 % 1010,2 hPa 0,0 l/m 6,4 km/h (2 Bft) W 267 0 min 0,000 mm 0,0 UV-I 32 W/m 14,6 C 17,1 C 11,3 km/h (2 Bft) 93,62 %
27.07.2017 20:16 17,1 C 19,4 C 85 % 1010,2 hPa 0,0 l/m 7,1 km/h (2 Bft) W-SW 252 0 min 0,000 mm 0,0 UV-I 24 W/m 14,6 C 16,7 C 11,3 km/h (2 Bft) 92,45 %
27.07.2017 20:18 17,1 C 19,4 C 85 % 1010,3 hPa 0,0 l/m 5,1 km/h (1 Bft) W 265 0 min 0,000 mm 0,0 UV-I 21 W/m 14,6 C 17,1 C 9,7 km/h (2 Bft) 94,74 %
27.07.2017 20:20 17,1 C 19,4 C 85 % 1010,3 hPa 0,0 l/m 5,0 km/h (1 Bft) W-SW 249 0 min 0,000 mm 0,0 UV-I 18 W/m 14,6 C 17,1 C 8,0 km/h (2 Bft) 94,34 %
27.07.2017 20:22 17,1 C 19,4 C 85 % 1010,3 hPa 0,0 l/m 5,3 km/h (1 Bft) W 263 0 min 0,000 mm 0,0 UV-I 16 W/m 14,6 C 17,1 C 11,3 km/h (2 Bft) 94,00 %
27.07.2017 20:24 17,1 C 19,4 C 85 % 1010,3 hPa 0,0 l/m 5,7 km/h (1 Bft) SW 234 0 min 0,000 mm 0,0 UV-I 13 W/m 14,6 C 17,1 C 11,3 km/h (2 Bft) 94,74 %
27.07.2017 20:26 17,1 C 19,4 C 85 % 1010,3 hPa 0,0 l/m 4,8 km/h (1 Bft) W-SW 252 0 min 0,000 mm 0,0 UV-I 11 W/m 14,6 C 17,1 C 8,0 km/h (2 Bft) 92,00 %
27.07.2017 20:28 17,1 C 19,4 C 85 % 1010,2 hPa 0,0 l/m 7,2 km/h (2 Bft) W-SW 254 0 min 0,000 mm 0,0 UV-I 10 W/m 14,6 C 16,7 C 11,3 km/h (2 Bft) 93,62 %
27.07.2017 20:30 17,1 C 19,4 C 85 % 1010,3 hPa 0,0 l/m 7,1 km/h (2 Bft) W-SW 255 0 min 0,000 mm 0,0 UV-I 9 W/m 14,6 C 16,7 C 11,3 km/h (2 Bft) 93,62 %
27.07.2017 20:32 17,1 C 19,4 C 85 % 1010,3 hPa 0,0 l/m 4,9 km/h (1 Bft) W 259 0 min 0,000 mm 0,0 UV-I 9 W/m 14,6 C 17,1 C 6,4 km/h (2 Bft) 94,00 %
27.07.2017 20:34 17,1 C 19,4 C 85 % 1010,3 hPa 0,0 l/m 5,4 km/h (1 Bft) W-SW 254 0 min 0,000 mm 0,0 UV-I 9 W/m 14,6 C 17,1 C 8,0 km/h (2 Bft) 92,31 %
27.07.2017 20:36 17,1 C 19,4 C 85 % 1010,3 hPa 0,0 l/m 5,4 km/h (1 Bft) SW 236 0 min 0,000 mm 0,0 UV-I 8 W/m 14,6 C 17,1 C 11,3 km/h (2 Bft) 90,91 %
27.07.2017 20:38 17,1 C 19,4 C 85 % 1010,3 hPa 0,0 l/m 4,2 km/h (1 Bft) SW 236 0 min 0,000 mm 0,0 UV-I 7 W/m 14,6 C 17,1 C 6,4 km/h (2 Bft) 97,62 %
27.07.2017 20:40 17,0 C 19,4 C 85 % 1010,2 hPa 0,0 l/m 4,6 km/h (1 Bft) W-SW 257 0 min 0,000 mm 0,0 UV-I 7 W/m 14,5 C 17,0 C 6,4 km/h (2 Bft) 95,74 %
27.07.2017 20:42 17,0 C 19,4 C 86 % 1010,3 hPa 0,0 l/m 3,0 km/h (1 Bft) W-SW 257 0 min 0,000 mm 0,0 UV-I 7 W/m 14,6 C 17,0 C 4,8 km/h (1 Bft) 95,74 %
27.07.2017 20:44 17,0 C 19,4 C 86 % 1010,3 hPa 0,0 l/m 4,8 km/h (1 Bft) S-SW 205 0 min 0,000 mm 0,0 UV-I 6 W/m 14,6 C 17,0 C 8,0 km/h (2 Bft) 97,87 %
27.07.2017 20:46 16,9 C 19,4 C 86 % 1010,3 hPa 0,0 l/m 5,0 km/h (1 Bft) SW 218 0 min 0,000 mm 0,0 UV-I 5 W/m 14,5 C 16,9 C 8,0 km/h (2 Bft) 94,34 %
27.07.2017 20:48 16,9 C 19,4 C 86 % 1010,3 hPa 0,0 l/m 4,0 km/h (1 Bft) SW 222 0 min 0,000 mm 0,0 UV-I 5 W/m 14,5 C 16,9 C 8,0 km/h (2 Bft) 97,56 %
27.07.2017 20:50 16,9 C 19,4 C 86 % 1010,3 hPa 0,0 l/m 5,2 km/h (1 Bft) W-SW 246 0 min 0,000 mm 0,0 UV-I 5 W/m 14,5 C 16,9 C 6,4 km/h (2 Bft) 94,34 %
27.07.2017 20:53 16,9 C 19,4 C 86 % 1010,2 hPa 0,0 l/m 4,5 km/h (1 Bft) W-SW 239 0 min 0,000 mm 0,0 UV-I 5 W/m 14,5 C 16,9 C 6,4 km/h (2 Bft) 94,34 %
27.07.2017 20:54 16,9 C 19,4 C 86 % 1010,2 hPa 0,0 l/m 4,2 km/h (1 Bft) W-SW 238 0 min 0,000 mm 0,0 UV-I 5 W/m 14,5 C 16,9 C 4,8 km/h (1 Bft) 94,74 %
27.07.2017 20:56 16,8 C 19,4 C 86 % 1010,2 hPa 0,0 l/m 3,8 km/h (1 Bft) W-SW 248 0 min 0,000 mm 0,0 UV-I 5 W/m 14,4 C 16,8 C 8,0 km/h (2 Bft) 98,00 %
27.07.2017 20:58 16,8 C 19,4 C 86 % 1010,2 hPa 0,0 l/m 6,2 km/h (2 Bft) SW 234 0 min 0,000 mm 0,0 UV-I 4 W/m 14,4 C 16,8 C 8,0 km/h (2 Bft) 92,11 %
27.07.2017 21:00 16,8 C 19,4 C 86 % 1010,2 hPa 0,0 l/m 5,6 km/h (1 Bft) SW 225 0 min 0,000 mm 0,0 UV-I 0 W/m 14,4 C 16,8 C 8,0 km/h (2 Bft) 98,00 %
27.07.2017 21:02 16,7 C 19,4 C 87 % 1010,3 hPa 0,0 l/m 4,9 km/h (1 Bft) SW 230 0 min 0,026 mm 0,0 UV-I 0 W/m 14,5 C 16,7 C 8,0 km/h (2 Bft) 96,23 %
27.07.2017 21:04 16,7 C 19,4 C 87 % 1010,4 hPa 0,0 l/m 6,0 km/h (2 Bft) W 261 0 min 0,000 mm 0,0 UV-I 0 W/m 14,5 C 16,7 C 9,7 km/h (2 Bft) 92,68 %
27.07.2017 21:06 16,6 C 19,4 C 87 % 1010,4 hPa 0,0 l/m 4,6 km/h (1 Bft) W 259 0 min 0,000 mm 0,0 UV-I 0 W/m 14,4 C 16,6 C 6,4 km/h (2 Bft) 98,00 %
27.07.2017 21:08 16,6 C 19,4 C 87 % 1010,4 hPa 0,0 l/m 4,5 km/h (1 Bft) W 259 0 min 0,000 mm 0,0 UV-I 0 W/m 14,4 C 16,6 C 6,4 km/h (2 Bft) 95,74 %
27.07.2017 21:10 16,4 C 19,4 C 88 % 1010,4 hPa 0,0 l/m 3,7 km/h (1 Bft) W 259 0 min 0,000 mm 0,0 UV-I 0 W/m 14,4 C 16,4 C 4,8 km/h (1 Bft) 97,56 %
27.07.2017 21:12 16,4 C 19,4 C 88 % 1010,4 hPa 0,0 l/m 2,3 km/h (1 Bft) W 259 0 min 0,000 mm 0,0 UV-I 0 W/m 14,4 C 16,4 C 4,8 km/h (1 Bft) 94,34 %
27.07.2017 21:14 16,4 C 19,4 C 88 % 1010,4 hPa 0,0 l/m 2,6 km/h (1 Bft) W 259 0 min 0,000 mm 0,0 UV-I 0 W/m 14,4 C 16,4 C 3,2 km/h (1 Bft) 100,00 %
27.07.2017 21:16 16,3 C 19,4 C 88 % 1010,5 hPa 0,0 l/m 3,4 km/h (1 Bft) W 259 0 min 0,000 mm 0,0 UV-I 0 W/m 14,3 C 16,3 C 4,8 km/h (1 Bft) 92,00 %
27.07.2017 21:18 16,3 C 19,4 C 88 % 1010,5 hPa 0,0 l/m 3,1 km/h (1 Bft) W 259 0 min 0,000 mm 0,0 UV-I 0 W/m 14,3 C 16,3 C 4,8 km/h (1 Bft) 97,56 %
27.07.2017 21:20 16,3 C 19,4 C 89 % 1010,4 hPa 0,0 l/m 0,4 km/h (0 Bft) W 259 0 min 0,000 mm 0,0 UV-I 0 W/m 14,5 C 16,3 C 3,2 km/h (1 Bft) 100,00 %
27.07.2017 21:22 16,3 C 19,4 C 89 % 1010,4 hPa 0,0 l/m 0,6 km/h (0 Bft) W 259 0 min 0,000 mm 0,0 UV-I 0 W/m 14,5 C 16,3 C 3,2 km/h (1 Bft) 100,00 %
27.07.2017 21:24 16,2 C 19,4 C 89 % 1010,4 hPa 0,0 l/m 1,0 km/h (0 Bft) W 259 0 min 0,000 mm 0,0 UV-I 0 W/m 14,4 C 16,2 C 3,2 km/h (1 Bft) 97,87 %
27.07.2017 21:26 16,1 C 19,4 C 90 % 1010,5 hPa 0,0 l/m 2,6 km/h (1 Bft) W 259 0 min 0,000 mm 0,0 UV-I 0 W/m 14,5 C 16,1 C 4,8 km/h (1 Bft) 100,00 %
27.07.2017 21:28 16,1 C 19,4 C 89 % 1010,5 hPa 0,0 l/m 2,3 km/h (1 Bft) W 259 0 min 0,000 mm 0,0 UV-I 0 W/m 14,3 C 16,1 C 4,8 km/h (1 Bft) 97,87 %
27.07.2017 21:30 16,1 C 19,4 C 90 % 1010,4 hPa 0,0 l/m 1,6 km/h (1 Bft) S 185 0 min 0,000 mm 0,0 UV-I 0 W/m 14,5 C 16,1 C 3,2 km/h (1 Bft) 98,00 %
27.07.2017 21:32 16,1 C 19,4 C 89 % 1010,4 hPa 0,0 l/m 1,0 km/h (0 Bft) S 185 0 min 0,000 mm 0,0 UV-I 0 W/m 14,3 C 16,1 C 3,2 km/h (1 Bft) 97,87 %
27.07.2017 21:34 15,9 C 19,4 C 90 % 1010,3 hPa 0,0 l/m 1,2 km/h (1 Bft) S 185 0 min 0,000 mm 0,0 UV-I 0 W/m 14,3 C 15,9 C 3,2 km/h (1 Bft) 96,00 %
27.07.2017 21:36 15,9 C 19,4 C 90 % 1010,3 hPa 0,0 l/m 1,2 km/h (1 Bft) S 185 0 min 0,000 mm 0,0 UV-I 0 W/m 14,3 C 15,9 C 3,2 km/h (1 Bft) 100,00 %
27.07.2017 21:38 15,9 C 19,4 C 90 % 1010,3 hPa 0,0 l/m 1,2 km/h (1 Bft) S 185 0 min 0,000 mm 0,0 UV-I 0 W/m 14,3 C 15,9 C 3,2 km/h (1 Bft) 97,87 %
27.07.2017 21:40 15,9 C 19,4 C 90 % 1010,4 hPa 0,0 l/m 1,9 km/h (1 Bft) S 185 0 min 0,000 mm 0,0 UV-I 0 W/m 14,3 C 15,9 C 3,2 km/h (1 Bft) 97,37 %
27.07.2017 21:42 15,9 C 19,4 C 91 % 1010,4 hPa 0,0 l/m 1,7 km/h (1 Bft) S 185 0 min 0,000 mm 0,0 UV-I 0 W/m 14,4 C 15,9 C 3,2 km/h (1 Bft) 100,00 %
27.07.2017 21:44 15,9 C 19,4 C 90 % 1010,3 hPa 0,0 l/m 0,4 km/h (0 Bft) S 185 0 min 0,000 mm 0,0 UV-I 0 W/m 14,3 C 15,9 C 3,2 km/h (1 Bft) 100,00 %
27.07.2017 21:46 15,9 C 19,4 C 90 % 1010,3 hPa 0,0 l/m 1,7 km/h (1 Bft) S 185 0 min 0,000 mm 0,0 UV-I 0 W/m 14,3 C 15,9 C 3,2 km/h (1 Bft) 100,00 %
27.07.2017 21:48 15,9 C 19,4 C 91 % 1010,4 hPa 0,0 l/m 2,3 km/h (1 Bft) S 185 0 min 0,000 mm 0,0 UV-I 0 W/m 14,4 C 15,9 C 4,8 km/h (1 Bft) 100,00 %
27.07.2017 21:50 15,9 C 19,4 C 90 % 1010,4 hPa 0,0 l/m 2,9 km/h (1 Bft) S 185 0 min 0,000 mm 0,0 UV-I 0 W/m 14,3 C 15,9 C 4,8 km/h (1 Bft) 98,11 %
27.07.2017 21:52 15,9 C 19,4 C 90 % 1010,4 hPa 0,0 l/m 2,9 km/h (1 Bft) S 185 0 min 0,000 mm 0,0 UV-I 0 W/m 14,3 C 15,9 C 4,8 km/h (1 Bft) 100,00 %
27.07.2017 21:54 15,9 C 19,4 C 90 % 1010,4 hPa 0,0 l/m 0,8 km/h (0 Bft) S 185 0 min 0,000 mm 0,0 UV-I 0 W/m 14,3 C 15,9 C 3,2 km/h (1 Bft) 97,78 %
27.07.2017 21:56 15,9 C 19,4 C 91 % 1010,4 hPa 0,0 l/m 2,4 km/h (1 Bft) S 185 0 min 0,000 mm 0,0 UV-I 0 W/m 14,4 C 15,9 C 4,8 km/h (1 Bft) 100,00 %
27.07.2017 21:58 15,9 C 19,4 C 91 % 1010,3 hPa 0,0 l/m 2,5 km/h (1 Bft) S 185 0 min 0,000 mm 0,0 UV-I 0 W/m 14,4 C 15,9 C 4,8 km/h (1 Bft) 97,87 %
27.07.2017 22:00 15,9 C 19,4 C 91 % 1010,3 hPa 0,0 l/m 2,3 km/h (1 Bft) S 185 0 min 0,000 mm 0,0 UV-I 0 W/m 14,4 C 15,9 C 4,8 km/h (1 Bft) 100,00 %
27.07.2017 22:02 15,9 C 19,4 C 91 % 1010,3 hPa 0,0 l/m 2,6 km/h (1 Bft) S 185 0 min 0,000 mm 0,0 UV-I 0 W/m 14,4 C 15,9 C 4,8 km/h (1 Bft) 94,74 %
27.07.2017 22:04 15,8 C 19,4 C 90 % 1010,3 hPa 0,0 l/m 3,0 km/h (1 Bft) S 185 0 min 0,000 mm 0,0 UV-I 0 W/m 14,2 C 15,8 C 4,8 km/h (1 Bft) 98,00 %
27.07.2017 22:06 15,8 C 19,4 C 90 % 1010,3 hPa 0,0 l/m 2,7 km/h (1 Bft) S 185 0 min 0,000 mm 0,0 UV-I 0 W/m 14,2 C 15,8 C 6,4 km/h (2 Bft) 96,00 %
27.07.2017 22:08 15,8 C 19,4 C 91 % 1010,3 hPa 0,0 l/m 2,5 km/h (1 Bft) S 185 0 min 0,000 mm 0,0 UV-I 0 W/m 14,3 C 15,8 C 4,8 km/h (1 Bft) 95,74 %
27.07.2017 22:10 15,8 C 19,4 C 90 % 1010,3 hPa 0,0 l/m 2,3 km/h (1 Bft) S 185 0 min 0,000 mm 0,0 UV-I 0 W/m 14,2 C 15,8 C 3,2 km/h (1 Bft) 97,87 %
27.07.2017 22:12 15,8 C 19,4 C 91 % 1010,3 hPa 0,0 l/m 1,6 km/h (1 Bft) S 185 0 min 0,000 mm 0,0 UV-I 0 W/m 14,3 C 15,8 C 3,2 km/h (1 Bft) 95,74 %
27.07.2017 22:14 15,8 C 19,4 C 91 % 1010,4 hPa 0,0 l/m 3,1 km/h (1 Bft) S 185 0 min 0,000 mm 0,0 UV-I 0 W/m 14,3 C 15,8 C 4,8 km/h (1 Bft) 95,74 %
27.07.2017 22:16 15,8 C 19,4 C 91 % 1010,3 hPa 0,0 l/m 3,2 km/h (1 Bft) S 185 0 min 0,000 mm 0,0 UV-I 0 W/m 14,3 C 15,8 C 4,8 km/h (1 Bft) 97,37 %
27.07.2017 22:18 15,7 C 19,4 C 91 % 1010,3 hPa 0,0 l/m 3,4 km/h (1 Bft) S 185 0 min 0,000 mm 0,0 UV-I 0 W/m 14,2 C 15,7 C 4,8 km/h (1 Bft) 94,64 %
27.07.2017 22:20 15,7 C 19,4 C 91 % 1010,3 hPa 0,0 l/m 3,7 km/h (1 Bft) S 185 0 min 0,000 mm 0,0 UV-I 0 W/m 14,2 C 15,7 C 4,8 km/h (1 Bft) 95,74 %
27.07.2017 22:22 15,6 C 19,4 C 91 % 1010,3 hPa 0,0 l/m 4,0 km/h (1 Bft) S 185 0 min 0,000 mm 0,0 UV-I 0 W/m 14,1 C 15,6 C 4,8 km/h (1 Bft) 94,74 %
27.07.2017 22:24 15,5 C 19,4 C 91 % 1010,2 hPa 0,0 l/m 4,1 km/h (1 Bft) S 185 0 min 0,000 mm 0,0 UV-I 0 W/m 14,0 C 15,5 C 6,4 km/h (2 Bft) 97,87 %
27.07.2017 22:26 15,5 C 19,4 C 91 % 1010,2 hPa 0,0 l/m 2,9 km/h (1 Bft) S 185 0 min 0,000 mm 0,0 UV-I 0 W/m 14,0 C 15,5 C 4,8 km/h (1 Bft) 96,23 %
27.07.2017 22:28 15,4 C 19,4 C 92 % 1010,2 hPa 0,0 l/m 3,3 km/h (1 Bft) S 185 0 min 0,000 mm 0,0 UV-I 0 W/m 14,1 C 15,4 C 6,4 km/h (2 Bft) 92,31 %
27.07.2017 22:30 15,4 C 19,4 C 92 % 1010,1 hPa 0,0 l/m 3,3 km/h (1 Bft) S 185 0 min 0,000 mm 0,0 UV-I 0 W/m 14,1 C 15,4 C 6,4 km/h (2 Bft) 96,15 %
27.07.2017 22:32 15,4 C 19,4 C 92 % 1010,2 hPa 0,0 l/m 3,1 km/h (1 Bft) S 185 0 min 0,000 mm 0,0 UV-I 0 W/m 14,1 C 15,4 C 4,8 km/h (1 Bft) 97,62 %
27.07.2017 22:34 15,3 C 19,4 C 92 % 1010,1 hPa 0,0 l/m 4,0 km/h (1 Bft) S 185 0 min 0,000 mm 0,0 UV-I 0 W/m 14,0 C 15,3 C 6,4 km/h (2 Bft) 91,49 %
27.07.2017 22:36 15,4 C 19,4 C 92 % 1010,2 hPa 0,0 l/m 4,0 km/h (1 Bft) S 185 0 min 0,000 mm 0,0 UV-I 0 W/m 14,1 C 15,4 C 6,4 km/h (2 Bft) 98,11 %
27.07.2017 22:38 15,4 C 19,4 C 92 % 1010,2 hPa 0,0 l/m 5,0 km/h (1 Bft) S 185 0 min 0,000 mm 0,0 UV-I 0 W/m 14,1 C 15,4 C 6,4 km/h (2 Bft) 100,00 %
27.07.2017 22:40 15,4 C 19,4 C 92 % 1010,2 hPa 0,0 l/m 4,1 km/h (1 Bft) S 185 0 min 0,000 mm 0,0 UV-I 0 W/m 14,1 C 15,4 C 4,8 km/h (1 Bft) 100,00 %
27.07.2017 22:42 15,4 C 19,4 C 92 % 1010,1 hPa 0,0 l/m 2,1 km/h (1 Bft) S 185 0 min 0,000 mm 0,0 UV-I 0 W/m 14,1 C 15,4 C 4,8 km/h (1 Bft) 95,74 %
27.07.2017 22:44 15,4 C 19,4 C 92 % 1010,1 hPa 0,0 l/m 1,5 km/h (1 Bft) S 185 0 min 0,000 mm 0,0 UV-I 0 W/m 14,1 C 15,4 C 3,2 km/h (1 Bft) 100,00 %
27.07.2017 22:46 15,3 C 19,4 C 92 % 1010,0 hPa 0,0 l/m 0,7 km/h (0 Bft) S 185 0 min 0,000 mm 0,0 UV-I 0 W/m 14,0 C 15,3 C 1,6 km/h (1 Bft) 97,37 %
27.07.2017 22:48 15,3 C 19,4 C 92 % 1010,0 hPa 0,0 l/m 1,5 km/h (1 Bft) S 185 0 min 0,000 mm 0,0 UV-I 0 W/m 14,0 C 15,3 C 3,2 km/h (1 Bft) 97,87 %
27.07.2017 22:50 15,3 C 19,4 C 92 % 1010,0 hPa 0,0 l/m 2,1 km/h (1 Bft) S 185 0 min 0,000 mm 0,0 UV-I 0 W/m 14,0 C 15,3 C 4,8 km/h (1 Bft) 93,62 %
27.07.2017 22:52 15,4 C 19,4 C 92 % 1010,0 hPa 0,0 l/m 2,8 km/h (1 Bft) S 185 0 min 0,000 mm 0,0 UV-I 0 W/m 14,1 C 15,4 C 4,8 km/h (1 Bft) 100,00 %
27.07.2017 22:54 15,4 C 19,4 C 92 % 1010,0 hPa 0,0 l/m 3,6 km/h (1 Bft) S 185 0 min 0,000 mm 0,0 UV-I 0 W/m 14,1 C 15,4 C 4,8 km/h (1 Bft) 97,87 %
27.07.2017 22:56 15,4 C 19,4 C 92 % 1010,0 hPa 0,0 l/m 2,3 km/h (1 Bft) S 185 0 min 0,000 mm 0,0 UV-I 0 W/m 14,1 C 15,4 C 4,8 km/h (1 Bft) 98,00 %
27.07.2017 22:58 15,5 C 19,4 C 92 % 1010,1 hPa 0,0 l/m 2,0 km/h (1 Bft) S 185 0 min 0,000 mm 0,0 UV-I 0 W/m 14,2 C 15,5 C 4,8 km/h (1 Bft) 100,00 %
27.07.2017 23:00 15,5 C 19,4 C 92 % 1010,1 hPa 0,0 l/m 3,1 km/h (1 Bft) S 185 0 min 0,000 mm 0,0 UV-I 0 W/m 14,2 C 15,5 C 4,8 km/h (1 Bft) 98,00 %
27.07.2017 23:02 15,5 C 19,4 C 91 % 1010,1 hPa 0,0 l/m 2,3 km/h (1 Bft) S 185 0 min 0,000 mm 0,0 UV-I 0 W/m 14,0 C 15,5 C 4,8 km/h (1 Bft) 100,00 %
27.07.2017 23:04 15,5 C 19,4 C 91 % 1010,1 hPa 0,0 l/m 1,6 km/h (1 Bft) S 185 0 min 0,000 mm 0,0 UV-I 0 W/m 14,0 C 15,5 C 3,2 km/h (1 Bft) 98,21 %
27.07.2017 23:06 15,4 C 19,4 C 91 % 1010,2 hPa 0,0 l/m 1,4 km/h (1 Bft) S 185 0 min 0,000 mm 0,0 UV-I 0 W/m 13,9 C 15,4 C 4,8 km/h (1 Bft) 97,87 %
27.07.2017 23:08 15,4 C 19,4 C 91 % 1010,2 hPa 0,0 l/m 0,9 km/h (0 Bft) S 185 0 min 0,000 mm 0,0 UV-I 0 W/m 13,9 C 15,4 C 1,6 km/h (1 Bft) 100,00 %
27.07.2017 23:10 15,3 C 19,4 C 92 % 1010,2 hPa 0,0 l/m 1,7 km/h (1 Bft) S 185 0 min 0,000 mm 0,0 UV-I 0 W/m 14,0 C 15,3 C 3,2 km/h (1 Bft) 100,00 %
27.07.2017 23:12 15,3 C 19,4 C 92 % 1010,3 hPa 0,0 l/m 2,7 km/h (1 Bft) S 185 0 min 0,000 mm 0,0 UV-I 0 W/m 14,0 C 15,3 C 4,8 km/h (1 Bft) 100,00 %
27.07.2017 23:14 15,3 C 19,4 C 92 % 1010,3 hPa 0,0 l/m 2,8 km/h (1 Bft) S 185 0 min 0,000 mm 0,0 UV-I 0 W/m 14,0 C 15,3 C 4,8 km/h (1 Bft) 100,00 %
27.07.2017 23:16 15,3 C 19,4 C 92 % 1010,2 hPa 0,0 l/m 2,7 km/h (1 Bft) S 185 0 min 0,000 mm 0,0 UV-I 0 W/m 14,0 C 15,3 C 4,8 km/h (1 Bft) 94,87 %
27.07.2017 23:18 15,2 C 19,4 C 92 % 1010,2 hPa 0,0 l/m 3,0 km/h (1 Bft) S 185 0 min 0,000 mm 0,0 UV-I 0 W/m 13,9 C 15,2 C 3,2 km/h (1 Bft) 98,00 %
27.07.2017 23:20 15,2 C 19,4 C 92 % 1010,2 hPa 0,0 l/m 0,9 km/h (0 Bft) S 185 0 min 0,000 mm 0,0 UV-I 0 W/m 13,9 C 15,2 C 3,2 km/h (1 Bft) 100,00 %
27.07.2017 23:22 15,2 C 19,4 C 92 % 1010,2 hPa 0,0 l/m 1,6 km/h (1 Bft) S 185 0 min 0,000 mm 0,0 UV-I 0 W/m 13,9 C 15,2 C 3,2 km/h (1 Bft) 97,87 %
27.07.2017 23:24 15,2 C 19,4 C 92 % 1010,2 hPa 0,0 l/m 2,3 km/h (1 Bft) S 185 0 min 0,000 mm 0,0 UV-I 0 W/m 13,9 C 15,2 C 3,2 km/h (1 Bft) 100,00 %
27.07.2017 23:26 15,2 C 19,4 C 93 % 1010,1 hPa 0,0 l/m 1,4 km/h (1 Bft) S 185 0 min 0,000 mm 0,0 UV-I 0 W/m 14,1 C 15,2 C 4,8 km/h (1 Bft) 97,87 %
27.07.2017 23:28 15,1 C 19,4 C 93 % 1010,0 hPa 0,0 l/m 2,5 km/h (1 Bft) S 185 0 min 0,000 mm 0,0 UV-I 0 W/m 14,0 C 15,1 C 4,8 km/h (1 Bft) 100,00 %
27.07.2017 23:30 15,1 C 19,4 C 93 % 1010,0 hPa 0,0 l/m 4,8 km/h (1 Bft) S 185 0 min 0,000 mm 0,0 UV-I 0 W/m 14,0 C 15,1 C 6,4 km/h (2 Bft) 98,11 %
27.07.2017 23:32 15,2 C 19,4 C 93 % 1010,0 hPa 0,0 l/m 3,4 km/h (1 Bft) S 185 0 min 0,000 mm 0,0 UV-I 0 W/m 14,1 C 15,2 C 6,4 km/h (2 Bft) 98,00 %
27.07.2017 23:34 15,2 C 19,4 C 93 % 1009,8 hPa 0,0 l/m 2,9 km/h (1 Bft) S 185 0 min 0,000 mm 0,0 UV-I 0 W/m 14,1 C 15,2 C 6,4 km/h (2 Bft) 100,00 %
27.07.2017 23:36 15,2 C 19,4 C 93 % 1009,8 hPa 0,0 l/m 1,4 km/h (1 Bft) S 185 0 min 0,000 mm 0,0 UV-I 0 W/m 14,1 C 15,2 C 4,8 km/h (1 Bft) 97,14 %
27.07.2017 23:38 15,2 C 19,4 C 93 % 1009,7 hPa 0,0 l/m 0,7 km/h (0 Bft) S 185 0 min 0,000 mm 0,0 UV-I 0 W/m 14,1 C 15,2 C 3,2 km/h (1 Bft) 98,46 %
27.07.2017 23:40 15,2 C 19,4 C 93 % 1009,7 hPa 0,0 l/m 1,5 km/h (1 Bft) S 185 0 min 0,000 mm 0,0 UV-I 0 W/m 14,1 C 15,2 C 3,2 km/h (1 Bft) 97,37 %
27.07.2017 23:42 15,2 C 19,4 C 93 % 1009,7 hPa 0,0 l/m 0,0 km/h (0 Bft) S 185 0 min 0,000 mm 0,0 UV-I 0 W/m 14,1 C 15,2 C 1,6 km/h (1 Bft) 100,00 %
27.07.2017 23:44 15,2 C 19,4 C 93 % 1009,8 hPa 0,0 l/m 0,0 km/h (0 Bft) S 185 0 min 0,000 mm 0,0 UV-I 0 W/m 14,1 C 15,2 C 0,0 km/h (0 Bft) 98,11 %
27.07.2017 23:46 15,2 C 19,4 C 93 % 1009,9 hPa 0,0 l/m 0,1 km/h (0 Bft) S 185 0 min 0,000 mm 0,0 UV-I 0 W/m 14,1 C 15,2 C 1,6 km/h (1 Bft) 95,74 %
27.07.2017 23:48 15,2 C 19,4 C 93 % 1009,9 hPa 0,0 l/m 0,3 km/h (0 Bft) S 185 0 min 0,000 mm 0,0 UV-I 0 W/m 14,1 C 15,2 C 1,6 km/h (1 Bft) 100,00 %
27.07.2017 23:50 15,2 C 19,4 C 93 % 1010,0 hPa 0,0 l/m 0,0 km/h (0 Bft) S 185 0 min 0,000 mm 0,0 UV-I 0 W/m 14,1 C 15,2 C 0,0 km/h (0 Bft) 98,00 %
27.07.2017 23:52 15,2 C 19,4 C 93 % 1010,1 hPa 0,0 l/m 0,0 km/h (0 Bft) S 185 0 min 0,000 mm 0,0 UV-I 0 W/m 14,1 C 15,2 C 0,0 km/h (0 Bft) 100,00 %
27.07.2017 23:54 15,1 C 19,4 C 93 % 1010,1 hPa 0,0 l/m 0,0 km/h (0 Bft) S 185 0 min 0,000 mm 0,0 UV-I 0 W/m 14,0 C 15,1 C 0,0 km/h (0 Bft) 100,00 %
27.07.2017 23:56 15,1 C 19,4 C 93 % 1010,1 hPa 0,0 l/m 0,0 km/h (0 Bft) S 185 0 min 0,000 mm 0,0 UV-I 0 W/m 14,0 C 15,1 C 0,0 km/h (0 Bft) 92,45 %
27.07.2017 23:58 15,0 C 19,4 C 93 % 1010,2 hPa 0,0 l/m 0,0 km/h (0 Bft) S 185 0 min 0,000 mm 0,0 UV-I 0 W/m 13,9 C 15,0 C 0,0 km/h (0 Bft) 98,00 %
_ Min-Zeit 03:28 02:50 12:50 23:38 - 23:42 - - - - - - 03:28 03:40 23:44 07:46
Minimum _ 12,0 C 18,3 C 63 % 1009,7 hPa - 0,0 km/h (0 Bft) - - - - - - 11,2 C 7,5 C 0,0 km/h (0 Bft) 87,23 %
_ Max-Zeit 11:50 12:58 06:04 09:16 00:00 18:16 - - 09:43 12:00 12:00 12:04 11:50 11:50 12:46 00:00
Maximum _ 21,1 C 19,4 C 97 % 1011,3 hPa 0,2 l/m 19,8 km/h
W (3 Bft)
- - 3 min 0,483 mm 5,9 UV-I 1132 W/m 16,1 C 21,1 C 35,4 km/h
W (5 Bft)
100,00 %
Durchschnitt _ 16,2 C 18,9 C 86 % 1010,4 hPa #8,4 l/m 8,4 km/h (2 Bft) W-SW - #3:12 h #2,642 mm 2,3 UV-I 266 W/m 13,6 C 14,8 C 14,0 km/h (3 Bft) 96,65 %